[[{"header":{"parameterUnit":"m.s-1","parameterCategory":1,"la1":31.0,"la2":29.5877,"lo1":-88.7671,"lo2":-86.6584,"dy":0.0162,"dx":0.0185,"nx":115,"ny":88,"refTime":"2023-08-31T12:00:00:Z","depth":0,"parameterNumber":2,"parameterNumberName":"U-component_of_WINDS"},"data":[0.0,0.0,0.0,0.0,0.0,0.0,0.0,0.0,0.0,0.0,0.0,0.0,0.0,0.0,0.0,0.0,0.0,0.0,0.0,0.0,0.0,0.0,0.0,0.0,0.0,0.0,0.0,0.0,0.0,0.0,0.0,0.0,0.0,0.0,0.0,0.0,0.0,0.0,0.0,0.0,0.0,0.0,0.0,0.0,0.0,0.0,0.0,0.0,0.0,0.0,0.0,0.0,0.0,0.0,0.0,0.0,0.0,0.0,0.0,0.0,0.0,0.0,0.0,0.0,0.0,0.0,0.0,0.0,0.0,0.0,0.0,0.0,0.0,0.0,0.0,0.0,0.0,0.0,0.0,0.0,0.0,0.0,0.0,0.0,0.0,0.0,0.0,0.0,0.0,0.0,0.0,0.0,0.0,0.0,0.0,0.0,0.0,0.0,0.0,0.0,0.0,0.0,0.0,0.0,0.0,0.0,0.0,0.0,0.0,0.0,0.0,0.0,0.0,0.0,0.0,0.0,0.0,0.0,0.0,0.0,0.0,0.0,0.0,0.0,0.0,0.0,0.0,0.0,0.0,0.0,0.0,0.0,0.0,0.0,0.0,0.0,0.0,0.0,0.0,0.0,0.0,0.0,0.0,0.0,0.0,0.0,0.0,0.0,0.0,0.0,0.0,0.0,0.0,0.0,0.0,0.0,0.0,0.0,0.0,0.0,0.0,0.0,0.0,0.0,0.0,0.0,0.0,0.0,0.0,0.0,0.0,0.0,0.0,0.0,0.0,0.0,0.0,0.0,0.0,0.0,0.0,0.0,0.0,0.0,0.0,0.0,0.0,0.0,0.0,0.0,0.0,0.0,0.0,0.0,0.0,0.0,0.0,0.0,0.0,0.0,0.0,0.0,0.0,0.0,0.0,0.0,0.0,0.0,0.0,0.0,0.0,0.0,0.0,0.0,0.0,0.0,0.0,0.0,0.0,0.0,0.0,0.0,0.0,0.0,0.0,0.0,0.0,0.0,0.0,0.0,0.0,0.0,0.0,0.0,0.0,0.0,0.0,0.0,0.0,0.0,0.0,0.0,0.0,0.0,0.0,0.0,0.0,0.0,0.0,0.0,0.0,0.0,0.0,0.0,0.0,0.0,0.0,0.0,0.0,0.0,0.0,0.0,0.0,0.0,0.0,0.0,0.0,0.0,0.0,0.0,0.0,0.0,0.0,0.0,0.0,0.0,0.0,0.0,0.0,0.0,0.0,0.0,0.0,0.0,0.0,0.0,0.0,0.0,0.0,0.0,0.0,0.0,0.0,0.0,0.0,0.0,0.0,0.0,0.0,0.0,0.0,0.0,0.0,0.0,0.0,0.0,0.0,0.0,0.0,0.0,0.0,0.0,0.0,0.0,0.0,0.0,0.0,0.0,0.0,0.0,0.0,0.0,0.0,0.0,0.0,0.0,0.0,0.0,0.0,0.0,0.0,0.0,0.0,0.0,0.0,0.0,0.0,0.0,0.0,0.0,0.0,0.0,0.0,0.0,0.0,0.0,0.0,0.0,0.0,0.0,0.0,0.0,0.0,0.0,0.0,0.0,0.0,0.0,0.0,0.0,0.0,0.0,0.0,0.0,0.0,0.0,0.0,0.0,0.0,0.0,0.0,0.0,0.0,0.0,0.0,0.0,0.0,0.0,0.0,0.0,0.0,0.0,0.0,0.0,0.0,0.0,0.0,0.0,0.0,0.0,0.0,0.0,0.0,0.0,0.0,0.0,0.0,0.0,0.0,0.0,0.0,0.0,0.0,0.0,0.0,0.0,0.0,0.0,0.0,0.0,0.0,0.0,0.0,0.0,0.0,0.0,0.0,0.0,0.0,0.0,0.0,0.0,0.0,0.0,0.0,0.0,0.0,0.0,0.0,0.0,0.0,0.0,0.0,0.0,0.0,0.0,0.0,0.0,0.0,0.0,0.0,0.0,0.0,0.0,0.0,0.0,0.0,0.0,0.0,0.0,0.0,0.0,0.0,0.0,0.0,0.0,0.0,0.0,0.0,0.0,0.0,0.0,0.0,0.0,0.0,0.0,0.0,0.0,0.0,0.0,0.0,0.0,0.0,0.0,0.0,0.0,0.0,0.0,0.0,0.0,0.0,0.0,0.0,0.0,0.0,0.0,0.0,0.0,0.0,0.0,0.0,0.0,0.0,0.0,0.0,0.0,0.0,0.0,0.0,0.0,0.0,0.0,0.0,0.0,0.0,0.0,0.0,0.0,0.0,0.0,0.0,0.0,0.0,0.0,0.0,0.0,0.0,0.0,0.0,0.0,0.0,0.0,0.0,0.0,0.0,0.0,0.0,0.0,0.0,0.0,0.0,0.0,0.0,0.0,0.0,0.0,0.0,0.0,0.0,0.0,0.0,0.0,0.0,0.0,0.0,0.0,0.0,0.0,0.0,0.0,0.0,0.0,0.0,0.0,0.0,0.0,0.0,0.0,0.0,0.0,0.0,0.0,0.0,0.0,0.0,0.0,0.0,0.0,0.0,0.0,0.0,0.0,0.0,0.0,0.0,0.0,0.0,0.0,0.0,0.0,0.0,0.0,0.0,0.0,0.0,0.0,0.0,0.0,0.0,0.0,0.0,0.0,0.0,0.0,0.0,0.0,0.0,0.0,0.0,0.0,0.0,0.0,0.0,0.0,0.0,0.0,0.0,0.0,0.0,0.0,0.0,0.0,0.0,0.0,0.0,0.0,0.0,0.0,0.0,0.0,0.0,0.0,0.0,0.0,0.0,0.0,0.0,0.0,0.0,0.0,0.0,0.0,0.0,0.0,0.0,0.0,0.0,0.0,0.0,0.0,0.0,0.0,0.0,0.0,0.0,0.0,0.0,0.0,0.0,0.0,0.0,0.0,0.0,0.0,0.0,0.0,0.0,0.0,0.0,0.0,0.0,0.0,0.0,0.0,0.0,0.0,0.0,0.0,0.0,0.0,0.0,0.0,0.0,0.0,0.0,0.0,0.0,0.0,0.0,0.0,0.0,0.0,0.0,0.0,0.0,0.0,0.0,0.0,0.0,0.0,0.0,0.0,0.0,0.0,0.0,0.0,0.0,0.0,0.0,0.0,0.0,0.0,0.0,0.0,0.0,0.0,0.0,0.0,0.0,0.0,0.0,0.0,0.0,0.0,0.0,0.0,0.0,0.0,0.0,0.0,0.0,0.0,0.0,0.0,0.0,0.0,0.0,0.0,0.0,0.0,0.0,0.0,0.0,0.0,0.0,0.0,0.0,0.0,0.0,0.0,0.0,0.0,0.0,0.0,0.0,0.0,0.0,0.0,0.0,0.0,0.0,0.0,0.0,0.0,0.0,0.0,0.0,0.0,0.0,0.0,0.0,0.0,0.0,0.0,0.0,0.0,0.0,0.0,0.0,0.0,0.0,0.0,0.0,0.0,0.0,0.0,0.0,0.0,0.0,0.0,0.0,0.0,0.0,0.0,0.0,0.0,0.0,0.0,0.0,0.0,0.0,0.0,0.0,0.0,0.0,0.0,0.0,0.0,0.0,0.0,0.0,0.0,0.0,0.0,0.0,0.0,0.0,0.0,0.0,0.0,0.0,0.0,0.0,0.0,0.0,0.0,0.0,0.0,0.0,0.0,0.0,0.0,0.0,0.0,0.0,0.0,0.0,0.0,0.0,0.0,0.0,0.0,0.0,0.0,0.0,0.0,0.0,0.0,0.0,0.0,0.0,0.0,0.0,0.0,0.0,0.0,0.0,0.0,0.0,0.0,0.0,0.0,0.0,0.0,0.0,0.0,0.0,0.0,0.0,0.0,0.0,0.0,0.0,0.0,0.0,0.0,0.0,0.0,0.0,0.0,0.0,0.0,0.0,0.0,0.0,0.0,0.0,0.0,0.0,0.0,0.0,0.0,0.0,0.0,0.0,0.0,0.0,0.0,0.0,0.0,0.0,0.0,0.0,0.0,0.0,0.0,0.0,0.0,0.0,0.0,0.0,0.0,0.0,0.0,0.0,0.0,0.0,0.0,0.0,0.0,0.0,0.0,0.0,0.0,0.0,0.0,0.0,0.0,0.0,0.0,0.0,0.0,0.0,0.0,0.0,0.0,0.0,0.0,0.0,0.0,0.0,0.0,0.0,0.0,0.0,0.0,0.0,0.0,0.0,0.0,0.0,0.0,0.0,0.0,0.0,0.0,0.0,0.0,0.0,0.0,0.0,0.0,0.0,0.0,0.0,0.0,0.0,0.0,0.0,0.0,0.0,0.0,0.0,0.0,0.0,0.0,0.2198,0.0,0.0,0.0,0.0,0.0,0.0,0.0,0.0,0.0,0.0,0.0,0.0,0.0,0.0,0.0,0.0,0.0,0.0,0.0,0.0,0.0,0.0,0.0,0.0,0.0,0.0,0.0,0.0,0.0,0.0,0.0,0.0,0.0,0.0,0.0,0.0,0.0,0.0,0.0,0.0,0.0,0.0,0.0,0.0,0.0,0.0,0.0,0.0,0.0,0.0,0.0,0.0,0.0,0.0,0.0,0.0,0.0,0.0,0.0,0.0,0.0,0.0,0.0,0.0,0.0,0.0,0.0,0.0,0.0,0.0,0.0,0.0,0.0,0.0,0.0,0.0,0.0,0.0,0.0,0.0,0.0,0.0,0.0,0.0,0.0,0.0,0.0,0.0,0.0,0.0,0.0,0.0,0.0,0.0,0.0,0.0,0.0,0.0,0.0,0.0,0.0,0.0,0.0,0.0,0.0,0.0,0.0,0.0,0.0,0.0,0.244,0.2515,0.2512,0.2452,0.2318,0.0,0.0,0.0,0.0,0.0,0.0,0.0,0.0,0.0,0.0,0.0,0.0,0.0,0.0,0.0,0.0,0.0,0.0,0.0,0.0,0.0,0.0,0.0,0.0,0.0,0.0,0.0,0.0,0.0,0.0,0.0,0.0,0.0,0.0,0.0,0.0,0.0,0.0,0.0,0.0,0.0,0.0,0.0,0.0,0.0,0.0,0.0,0.0,0.0,0.0,0.0,0.0,0.0,0.0,0.0,0.0,0.0,0.0,0.0,0.0,0.0,0.0,0.0,0.0,0.0,0.0,0.0,0.0,0.0,0.0,0.0,0.0,0.0,0.0,0.0,0.0,0.0,0.0,0.0,0.0,0.0,0.0,0.0,0.0,0.0,0.0,0.0,0.0,0.0,0.0,0.0,0.0,0.0,0.0,0.0,0.0,0.0,0.0,0.0,0.0,0.0,0.0,0.0,0.0,0.0,0.0,0.0,0.0,0.0,0.0,0.0,0.0,0.2745,0.2659,0.2532,0.0,0.0,0.0,0.0,0.0,0.0,0.0,0.0,0.0,0.0,0.0,0.0,0.0,0.0,0.0,0.0,0.0,0.0,0.0,0.0,0.0,0.0,0.0,0.0,0.0,0.0,0.0,0.0,0.0,0.0,0.0,0.0,0.0,0.0,0.0,0.0,0.0,0.0,0.0,0.0,0.0,0.0,0.0,0.0,0.0,0.0,0.0,0.0,0.0,0.0,0.0,0.0,0.0,0.0,0.0,0.0,0.0,0.0,0.0,0.0,0.0,0.0,0.0,0.0,0.0,0.0,0.0,0.0,0.0,0.0,0.0,0.0,0.0,0.0,0.0,0.0,0.0,0.0,0.0,0.0,0.0,0.0,0.0,0.0,0.0,0.0,0.0,0.0,0.0,0.0,0.0,0.0,0.0,0.0,0.0,0.0,0.0,0.0,0.0,0.0,0.0,0.0,0.0,0.0,0.0,0.0,0.0,0.0,0.0,0.0,0.2681,0.3389,0.3016,0.0,0.286,0.0,0.0,0.0,0.0,0.0,0.0,0.0,0.0,0.0,0.0,0.0,0.0,0.0,0.0,0.0,0.0,0.0,0.0,0.0,0.0,0.0,0.0,0.0,0.0,0.0,0.0,0.0,0.0,0.0,0.0,0.0,0.0,0.0,0.0,0.0,0.0,0.0,0.0,0.0,0.0,0.0,0.0,0.0,0.0,0.0,0.0,0.0,0.0,0.0,0.0,0.0,0.0,0.0,0.0,0.0,0.0,0.0,0.0,0.0,0.0,0.0,0.0,0.0,0.0,0.0,0.0,0.0,0.0,0.0,0.0,0.0,0.0,0.0,0.0,0.0,0.0,0.0,0.0,0.0,0.0,0.0,0.0,0.0,0.0,0.0,0.0,0.0,0.0,0.0,0.0,0.0,0.0,0.0,0.0,0.0,0.0,0.0,0.0,0.0,0.0,0.0,0.0,0.0,0.0,0.0,0.0,0.0,0.0,0.0,0.0,0.3646,0.3966,0.3586,0.3458,0.0,0.0,0.0,0.0,0.0,0.0,0.0,0.0,0.0,0.0,0.0,0.0,0.0,0.0,0.0,0.0,0.0,0.0,0.0,0.0,0.0,0.0,0.0,0.0,0.0,0.0,0.0,0.0,0.0,0.0,0.0,0.0,0.0,0.0,0.0,0.0,0.0,0.0,0.0,0.0,0.0,0.0,0.0,0.0,0.0,0.0,0.0,0.0,0.0,0.0,0.0,0.0,0.0,0.0,0.0,0.0,0.0,0.0,0.0,0.0,0.0,0.0,0.0,0.0,0.0,0.0,0.0,0.0,0.0,0.0,0.0,0.0,0.0,0.0,0.0,0.0,0.0,0.0,0.0,0.0,0.0,0.0,0.0,0.0,0.0,0.0,0.0,0.0,0.0,0.0,0.0,0.0,0.0,0.0,0.0,0.0,0.0,0.0,0.0,0.0,0.0,0.0,0.0,0.0,0.0,0.0,0.0,0.0,0.0,0.0,0.4008,0.4231,0.4294,0.4135,0.3945,0.3785,0.0,0.0,0.0,0.0,0.0,0.0,0.0,0.0,0.0,0.0,0.0,0.0,0.0,0.0,0.0,0.0,0.0,0.0,0.0,0.0,0.0,0.0,0.0,0.0,0.0,0.0,0.0,0.0,0.0,0.0,0.0,0.0,0.0,0.0,0.0,0.0,0.0,0.0,0.0,0.0,0.0,0.0,0.0,0.0,0.0,0.0,0.0,0.0,0.0,0.0,0.0,0.0,0.0,0.0,0.0,0.0,0.0,0.0,0.0,0.0,0.0,0.0,0.0,0.0,0.0,0.0,0.0,0.0,0.0,0.0,0.0,0.0,0.0,0.0,0.0,0.0,0.0,0.0,0.0,0.0,0.0,0.0,0.0,0.0,0.0,0.0,0.0,0.0,0.0,0.0,0.0,0.0,0.0,0.0,0.0,0.0,0.0,0.0,0.0,0.0,0.0,0.0,0.0,0.0,0.0,0.0,0.0,0.0,0.506,0.4357,0.4092,0.4412,0.4523,0.4159,0.0,0.0,0.0,0.0,0.0,0.0,0.0,0.0,0.0,0.0,0.0,0.0,0.0,0.0,0.0,0.0,0.0,0.0,0.0,0.0,0.0,0.0,0.0,0.0,0.0,0.0,0.0,0.0,0.0,0.0,0.0,0.0,0.0,0.0,0.0,0.0,0.0,0.0,0.0,0.0,0.0,0.0,0.0,0.0,0.0,0.0,0.0,0.0,0.0,0.0,0.0,0.0,0.0,0.0,0.0,0.0,0.0,0.0,0.0,0.0,0.0,0.0,0.0,0.0,0.0,0.0,0.0,0.0,0.0,0.0,0.0,0.0,0.0,0.0,0.0,0.0,0.0,0.0,0.0,0.0,0.0,0.0,0.0,0.0,0.0,0.0,0.0,0.0,0.0,0.0,0.0,0.0,0.0,0.0,0.0,0.0,0.0,0.0,0.0,0.0,0.0,0.0,0.0,0.0,0.0,0.0,0.0,0.0,0.0,0.3866,0.4267,0.4851,0.5618,0.4866,0.4311,0.0,0.0,0.0,0.0,0.0,0.0,0.0,0.0,0.0,0.0,0.0,0.0,0.0,0.0,0.0,0.0,0.0,0.0,0.0,0.0,0.0,0.0,0.0,0.0,0.0,0.0,0.0,0.0,0.0,0.0,0.0,0.0,0.0,0.0,0.0,0.0,0.0,0.0,0.0,0.0,0.0,0.0,0.0,0.0,0.0,0.0,0.0,0.0,0.0,0.0,0.0,0.0,0.0,0.0,0.0,0.0,0.0,0.0,0.0,0.0,0.0,0.0,0.0,0.0,0.0,0.0,0.0,0.0,0.0,0.0,0.0,0.0,0.0,0.0,0.0,0.0,0.0,0.0,0.0,0.0,0.0,0.0,0.0,0.0,0.0,0.0,0.0,0.0,0.0,0.0,0.0,0.0,0.0,0.0,0.0,0.0,0.0,0.0,0.0,0.0,0.0,0.0,0.0,0.0,0.0,0.0,0.0,0.0,0.0,0.3712,0.0,0.545,0.5922,0.4987,0.4388,0.0,0.0,0.0,0.0,0.0,0.0,0.0,0.0,0.0,0.0,0.0,0.0,0.0,0.0,0.0,0.0,0.0,0.0,0.0,0.0,0.0,0.0,0.0,0.0,0.0,0.0,0.0,0.0,0.0,0.0,0.0,0.0,0.0,0.0,0.0,0.0,0.0,0.0,0.0,0.0,0.0,0.0,0.0,0.0,0.0,0.0,0.0,0.0,0.0,0.0,0.0,0.0,0.0,0.0,0.0,0.0,0.0,0.0,0.0,0.0,0.0,0.0,0.0,0.0,0.0,0.0,0.0,0.0,0.0,0.0,0.0,0.0,0.0,0.0,0.0,0.0,0.0,0.0,0.0,0.0,0.0,0.0,0.0,0.0,0.0,0.0,0.0,0.0,0.0,0.0,0.0,0.0,0.0,0.0,0.0,0.0,0.0,0.0,0.0,0.0,0.0,0.0,0.0,0.0,0.0,0.0,0.0,0.0,0.4213,0.4867,0.5481,0.5642,0.5229,0.4887,0.4404,0.0,0.0,0.0,0.0,0.0,0.0,0.0,0.0,0.0,0.0,0.0,0.0,0.0,0.0,0.0,0.0,0.0,0.0,0.0,0.0,0.0,0.0,0.0,0.0,0.0,0.0,0.0,0.0,0.0,0.0,0.0,0.0,0.0,0.0,0.0,0.0,0.0,0.0,0.0,0.0,0.0,0.0,0.0,0.0,0.0,0.0,0.0,0.0,0.0,0.0,0.0,0.0,0.0,0.0,0.0,0.0,0.0,0.0,0.0,0.0,0.0,0.0,0.0,0.0,0.0,0.0,0.0,0.0,0.0,0.0,0.0,0.0,0.0,0.0,0.0,0.0,0.0,0.0,0.0,0.0,0.0,0.0,0.0,0.0,0.0,0.0,0.0,0.0,0.0,0.0,0.0,0.0,0.0,0.0,0.0,0.0,0.0,0.0,0.0,0.0,0.0,0.0,0.0,0.0,0.0,0.0,0.0,0.0,0.0,0.4614,0.4694,0.5233,0.62,0.5134,0.4729,0.0,0.0,0.0,0.0,0.0,0.0,0.0,0.0,0.0,0.0,0.0,0.0,0.0,0.0,0.0,0.0,0.0,0.0,0.0,0.0,0.0,0.0,0.0,0.0,0.0,0.0,0.0,0.0,0.0,0.0,0.0,0.0,0.0,0.0,0.0,0.0,0.0,0.0,0.0,0.0,0.0,0.0,0.0,0.0,0.0,0.0,0.0,0.0,0.0,0.0,0.0,0.0,0.0,0.0,0.0,0.0,0.0,0.0,0.0,0.0,0.0,0.0,0.0,0.0,0.0,0.0,0.0,0.0,0.0,0.0,0.0,0.0,0.0,0.0,0.0,0.0,0.0,0.0,0.0,0.0,0.0,0.0,0.0,0.0,0.0,0.0,0.0,0.0,0.0,0.0,0.0,0.0,0.0,0.0,0.0,0.0,0.0,0.0,0.0,0.0,0.0,0.0,0.0,0.0,0.0,0.0,0.0,0.0,0.0,0.5049,0.4714,0.5073,0.6221,0.5208,0.493,0.5506,0.0,0.0,0.0,0.0,0.0,0.0,0.0,0.0,0.0,0.0,0.0,0.0,0.0,0.0,0.0,0.0,0.0,0.0,0.0,0.0,0.0,0.0,0.0,0.0,0.0,0.0,0.0,0.0,0.0,0.0,0.0,0.0,0.0,0.0,0.0,0.0,0.0,0.0,0.0,0.0,0.0,0.0,0.0,0.0,0.0,0.0,0.0,0.0,0.0,0.0,0.0,0.0,0.0,0.0,0.0,0.0,0.0,0.0,0.0,0.0,0.0,0.0,0.0,0.0,0.0,0.0,0.0,0.0,0.0,0.0,0.0,0.0,0.0,0.0,0.0,0.0,0.0,0.0,0.0,0.0,0.0,0.0,0.0,0.0,0.0,0.0,0.0,0.0,0.0,0.0,0.0,0.0,0.0,0.0,0.0,0.0,0.0,0.0,0.0,0.0,0.0,0.0,0.0,0.0,0.0,0.0,0.0,0.0,0.6009,0.5437,0.5258,0.5496,0.5312,0.5184,0.0,0.0,0.0,0.0,0.0,0.0,0.0,0.0,0.0,0.0,0.0,0.0,0.0,0.0,0.0,0.0,0.0,0.0,0.0,0.0,0.0,0.0,0.0,0.0,0.0,0.0,0.0,0.0,0.0,0.0,0.0,0.0,0.0,0.0,0.0,0.0,0.0,0.0,0.0,0.0,0.0,0.0,0.0,0.0,0.0,0.0,0.0,0.0,0.0,0.0,0.0,0.0,0.0,0.0,0.0,0.0,0.0,0.0,0.0,0.0,0.0,0.0,0.0,0.0,0.0,0.0,0.0,0.0,0.0,0.0,0.0,0.0,0.0,0.0,0.0,0.0,0.0,0.0,0.0,0.0,0.0,0.0,0.0,0.0,0.0,0.0,0.0,0.0,0.0,0.0,0.0,0.0,0.0,0.0,0.0,0.0,0.0,0.0,0.0,0.0,0.0,0.0,0.0,0.0,0.0,0.0,0.0,0.0,0.0,0.6005,0.5872,0.6281,0.7289,0.6564,0.6272,0.0,0.0,0.0,0.0,0.0,0.0,0.0,0.0,0.0,0.0,0.0,0.0,0.0,0.0,0.0,0.0,0.0,0.0,0.0,0.0,0.0,0.0,0.0,0.0,0.0,0.0,0.0,0.0,0.0,0.0,0.0,0.0,0.0,0.0,0.0,0.0,0.0,0.0,0.0,0.0,0.0,0.0,0.0,0.0,0.0,0.0,0.0,0.0,0.0,0.0,0.0,0.0,0.0,0.0,0.0,0.0,0.0,0.0,0.0,0.0,0.0,0.0,0.0,0.0,0.0,0.0,0.0,0.0,0.0,0.0,0.0,0.0,0.0,0.0,0.0,0.0,0.0,0.0,0.0,0.0,0.0,0.0,0.0,0.0,0.0,0.0,0.0,0.0,0.0,0.0,0.0,0.0,0.0,0.0,0.0,0.0,0.0,0.0,0.0,0.0,0.0,0.0,0.0,0.0,0.0,0.0,0.0,0.0,0.5274,0.6141,0.6266,0.6691,0.758,0.6937,0.6611,0.0,0.0,0.0,0.0,0.0,0.0,0.0,0.0,0.0,0.0,0.0,0.0,0.0,0.0,0.0,0.0,0.0,0.0,0.0,0.0,0.0,0.0,0.0,0.0,0.0,0.0,0.0,0.0,0.0,0.0,0.0,0.0,0.0,0.0,0.0,0.0,0.0,0.0,0.0,0.0,0.0,0.0,0.0,0.0,0.0,0.0,0.0,0.0,0.0,0.0,0.0,0.0,0.0,0.0,0.0,0.0,0.0,0.0,0.0,0.0,0.0,0.0,0.0,0.0,0.0,0.0,0.0,0.0,0.0,0.0,0.0,0.0,0.0,0.0,0.0,0.0,0.0,0.0,0.0,0.0,0.0,0.0,0.0,0.0,0.0,0.0,0.0,0.0,0.0,0.0,0.0,0.0,0.0,0.0,0.0,0.0,0.0,0.0,0.0,0.0,0.0,0.0,0.0,0.0,0.0,0.0,0.0,0.0,0.5799,0.6305,0.6575,0.6828,0.703,0.6863,0.6576,0.0,0.0,0.0,0.0,0.0,0.0,0.0,0.0,0.0,0.0,0.0,0.0,0.0,0.0,0.0,0.0,0.0,0.0,0.0,0.0,0.0,0.0,0.0,0.0,0.0,0.0,0.0,0.0,0.0,0.0,0.0,0.0,0.0,0.0,0.0,0.0,0.0,0.0,0.0,0.0,0.0,0.0,0.0,0.0,0.0,0.0,0.0,0.0,0.0,0.0,0.0,0.0,0.0,0.0,0.0,0.0,0.0,0.0,0.0,0.0,0.0,0.0,0.0,0.0,0.0,0.0,0.0,0.0,0.0,0.0,0.0,0.0,0.0,0.0,0.0,0.0,0.0,0.0,0.0,0.0,0.0,0.0,0.0,0.0,0.0,0.0,0.0,0.0,0.0,0.0,0.0,0.0,0.0,0.0,0.0,0.0,0.0,0.0,0.0,0.0,0.0,0.0,0.0,0.0,0.0,0.0,0.0,0.0,0.5922,0.6311,0.6651,0.7229,0.797,0.7359,0.6965,0.0,0.0,0.0,0.0,0.0,0.0,0.0,0.0,0.0,0.0,0.0,0.0,0.0,0.0,0.0,0.0,0.0,0.0,0.0,0.0,0.0,0.0,0.0,0.0,0.0,0.0,0.0,0.0,0.0,0.0,0.0,0.0,0.0,0.0,0.0,0.0,0.0,0.0,0.0,0.0,0.0,0.0,0.0,0.0,0.0,0.0,0.0,0.0,0.6713,0.0,0.0,0.0,0.0,0.0,0.0,0.0,0.0,0.0,0.0,0.0,0.0,0.0,0.0,0.0,0.0,0.0,0.0,0.0,0.0,0.0,0.0,0.0,0.0,0.0,0.0,0.0,0.0,0.0,0.0,0.0,0.0,0.0,0.0,0.0,0.0,0.0,0.0,0.0,0.0,0.0,0.0,0.0,0.0,0.0,0.0,0.0,0.0,0.0,0.0,0.0,0.0,0.0,0.0,0.0,0.0,0.0,0.0,0.0,0.5984,0.6378,0.6732,0.7171,0.7688,0.7304,0.723,0.0,0.0,0.0,0.0,0.0,0.0,0.0,0.0,0.0,0.0,0.0,0.0,0.0,0.0,0.0,0.0,0.0,0.0,0.0,0.0,0.0,0.0,0.0,0.0,0.0,0.0,0.0,0.0,0.0,0.0,0.0,0.0,0.0,0.0,0.0,0.0,0.0,0.0,0.0,0.0,0.0,0.0,0.0,0.0,0.0,0.0,0.0,0.0,0.0,0.0,0.0,0.0,0.0,0.0,0.0,0.0,0.0,0.0,0.0,0.0,0.0,0.0,0.0,0.0,0.0,0.0,0.0,0.0,0.0,0.0,0.0,0.0,0.0,0.0,0.0,0.0,0.0,0.0,0.0,0.0,0.0,0.0,0.0,0.0,0.0,0.0,0.0,0.0,0.0,0.0,0.0,0.0,0.0,0.0,0.0,0.0,0.0,0.0,0.0,0.0,0.0,0.0,0.0,0.0,0.0,0.0,0.0,0.5582,0.6047,0.6518,0.6807,0.7061,0.7305,0.7186,0.7567,0.837,0.0,0.0,0.0,0.0,0.0,0.0,0.0,0.0,0.0,0.0,0.0,0.0,0.0,0.0,0.0,0.0,0.0,0.0,0.0,0.0,0.0,0.0,0.0,0.0,0.0,0.0,0.0,0.0,0.0,0.0,0.0,0.0,0.0,0.0,0.0,0.0,0.0,0.0,0.6827,0.7572,0.0,0.0,0.0,0.0,0.0,0.0,0.0,0.0,0.7393,0.0,0.0,0.0,0.0,0.0,0.0,0.0,0.0,0.0,0.0,0.0,0.0,0.0,0.0,0.0,0.0,0.0,0.0,0.0,0.0,0.0,0.0,0.0,0.0,0.0,0.0,0.0,0.0,0.0,0.0,0.0,0.0,0.0,0.0,0.0,0.0,0.0,0.0,0.0,0.0,0.0,0.0,0.0,0.0,0.0,0.0,0.0,0.0,0.0,0.0,0.0,0.0,0.0,0.0,0.0,0.0,0.4924,0.5629,0.6165,0.6641,0.691,0.7467,0.8225,0.7946,0.8151,0.8941,0.0,0.0,0.0,0.0,0.0,0.0,0.0,0.0,0.0,0.0,0.0,0.0,0.0,0.0,0.0,0.0,0.0,0.0,0.0,0.0,0.0,0.0,0.0,0.0,0.0,0.0,0.0,0.0,0.0,0.0,0.0,0.0,0.0,0.0,0.0,0.0,0.0,0.0,0.0,0.8631,0.9031,0.0,0.0,0.0,0.0,0.0,0.0,0.0,0.0,0.7293,0.0,0.0,0.0,0.0,0.0,0.0,0.0,0.0,0.0,0.0,0.0,0.0,0.0,0.0,0.0,0.0,0.0,0.0,0.0,0.0,0.0,0.0,0.0,0.0,0.0,0.0,0.0,0.0,0.0,0.0,0.0,0.0,0.0,0.0,0.0,0.0,0.0,0.0,0.0,0.0,0.0,0.0,0.0,0.0,0.0,0.0,0.0,0.0,0.0,0.0,0.0,0.0,0.0,0.0,0.0,0.4995,0.5752,0.6328,0.6681,0.6947,0.7316,0.7742,0.7315,0.7417,0.0,0.0,0.0,0.0,0.0,0.0,0.0,0.0,0.0,0.0,0.0,0.0,0.0,0.0,0.0,0.0,0.0,0.0,0.0,0.0,0.0,0.0,0.0,0.0,0.0,0.0,0.0,0.0,0.0,0.0,0.0,0.0,0.0,0.0,0.0,0.0,0.0,0.0,0.0,0.0,0.8944,0.9324,0.9624,0.0,0.0,0.0,0.0,0.0,0.0,0.823,0.7889,0.0,0.0,0.0,0.0,0.0,0.0,0.0,0.0,0.0,0.0,0.0,0.0,0.0,0.0,0.0,0.0,0.0,0.0,0.0,0.0,0.0,0.0,0.0,0.0,0.0,0.0,0.0,0.0,0.0,0.0,0.0,0.0,0.0,0.0,0.0,0.0,0.0,0.0,0.0,0.0,0.0,0.0,0.0,0.0,0.0,0.0,0.0,0.0,0.0,0.0,0.0,0.0,0.0,0.0,0.0,0.4983,0.5785,0.6359,0.6681,0.6959,0.7068,0.7082,0.6622,0.664,0.0,0.0,0.0,0.0,0.0,0.0,0.0,0.0,0.0,0.0,0.0,0.0,0.0,0.0,0.0,0.0,0.0,0.0,0.0,0.0,0.0,0.0,0.0,0.0,0.0,0.0,0.0,0.0,0.0,0.0,0.0,0.0,0.0,0.0,0.0,0.0,0.0,0.0,0.0,0.0,0.0,0.9653,1.006,0.9737,0.0,0.0,0.0,0.0,0.8951,0.9098,0.0,0.0,0.0,0.0,0.0,0.0,0.0,0.0,0.0,0.0,0.0,0.0,0.0,0.0,0.0,0.0,0.0,0.0,0.0,0.0,0.0,0.0,0.0,0.0,0.0,0.0,0.0,0.0,0.0,0.0,0.0,0.0,0.0,0.0,0.0,0.0,0.0,0.0,0.0,0.0,0.0,0.0,0.0,0.0,0.0,0.0,0.0,0.0,0.0,0.0,0.0,0.0,0.0,0.0,0.0,0.0,0.4566,0.5406,0.6139,0.6689,0.6822,0.6967,0.7088,0.6803,0.6874,0.0,0.0,0.0,0.0,0.0,0.0,0.0,0.0,0.0,0.0,0.0,0.0,0.0,0.0,0.0,0.0,0.0,0.0,0.0,0.0,0.0,0.0,0.0,0.0,0.0,0.0,0.0,0.0,0.0,0.0,0.0,0.0,0.0,0.0,0.0,0.0,0.0,0.0,0.0,0.0,0.0,1.0365,1.0117,1.0287,1.0425,0.0,0.0,1.0472,1.0661,1.0722,0.0,0.0,0.0,0.0,0.0,0.0,0.0,0.0,0.0,0.0,0.0,0.0,0.0,0.0,0.0,0.0,0.0,0.0,0.0,0.0,0.0,0.0,0.0,0.0,0.0,0.0,0.0,0.0,0.0,0.0,0.0,0.0,0.0,0.0,0.0,0.0,0.0,0.0,0.0,0.0,0.0,0.0,0.0,0.0,0.0,0.0,0.0,0.0,0.0,0.0,0.0,0.0,0.0,0.0,0.0,0.3847,0.4501,0.5346,0.6035,0.6583,0.6719,0.6827,0.6888,0.6359,0.6338,0.0,0.0,0.0,0.0,0.0,0.0,0.0,0.0,0.0,0.0,0.0,0.0,0.0,0.0,0.0,0.0,0.0,0.0,0.0,0.0,0.0,0.0,0.0,0.0,0.0,0.0,0.0,0.0,0.0,0.0,0.0,0.0,0.0,0.0,0.0,0.0,0.0,0.0,0.0,0.0,0.0,0.0,1.0635,1.1009,0.0,0.0,0.0,1.1096,1.1216,0.0,0.0,0.0,0.0,0.0,0.0,0.0,0.0,0.0,0.0,0.0,0.0,0.0,0.0,0.0,0.0,0.0,0.0,0.0,0.0,0.0,0.0,0.0,0.0,0.0,0.0,0.0,0.0,0.0,0.0,0.0,0.0,0.0,0.0,0.0,0.0,0.0,0.0,0.0,0.0,0.0,0.0,0.0,0.0,0.0,0.0,0.0,0.0,0.0,0.0,0.0,0.0,0.0,0.0,0.0,0.0,0.0,0.4433,0.5254,0.5928,0.6439,0.6607,0.6661,0.6688,0.6088,0.0,0.0,0.0,0.0,0.0,0.0,0.0,0.0,0.0,0.0,0.0,0.0,0.0,0.0,0.0,0.0,0.0,0.0,0.0,0.0,0.0,0.0,0.0,0.0,0.0,0.0,0.0,0.4044,0.0,0.0,0.0,0.0,0.0,0.0,0.0,0.0,0.0,0.0,0.0,0.0,0.0,0.0,1.0565,1.0503,1.1176,1.1627,0.0,0.0,1.1808,1.177,1.1703,1.1256,0.0,0.0,0.0,0.0,0.0,0.0,0.0,0.0,0.0,0.0,0.0,0.0,0.0,0.0,0.0,0.0,0.0,0.0,0.0,0.0,0.0,0.0,0.0,0.0,0.0,0.0,0.0,0.0,0.0,0.0,0.0,0.0,0.0,0.0,0.0,0.0,0.0,0.0,0.0,0.0,0.0,0.0,0.0,0.0,0.0,0.0,0.0,0.0,0.0,0.0,0.0,0.0,0.0,0.0,0.0,0.4204,0.5006,0.5716,0.6289,0.6453,0.6556,0.6688,0.6426,0.6125,0.0,0.0,0.0,0.0,0.0,0.0,0.0,0.0,0.0,0.0,0.0,0.0,0.0,0.0,0.0,0.0,0.0,0.0,0.0,0.0,0.0,0.0,0.0,0.0,0.0,0.0,0.0,0.0,0.0,0.0,0.0,0.0,0.0,0.0,0.0,0.0,0.0,0.0,0.0,0.0,0.0,0.9338,0.9175,1.0233,1.1212,0.0,0.0,1.2993,1.2737,1.3106,1.2754,1.0822,0.0,0.0,0.0,0.0,0.0,0.0,0.0,0.0,0.0,0.0,0.0,0.0,0.0,0.0,0.0,0.0,0.0,0.0,0.0,0.0,0.0,0.0,0.0,0.0,0.0,0.0,0.0,0.0,0.0,0.0,0.0,0.0,0.0,0.0,0.0,0.0,0.0,0.0,0.0,0.0,0.0,0.0,0.0,0.0,0.0,0.0,0.0,0.0,0.0,0.0,0.0,0.0,0.0,0.345,0.4187,0.4982,0.5641,0.6098,0.6303,0.6412,0.647,0.6173,0.5923,0.0,0.0,0.0,0.0,0.0,0.0,0.0,0.0,0.0,0.0,0.0,0.0,0.0,0.0,0.0,0.0,0.0,0.0,0.0,0.0,0.0,0.0,0.0,0.0,0.0,0.0,0.0,0.0,0.6014,0.6007,0.5794,0.0,0.0,0.0,0.0,0.0,0.0,0.0,0.0,0.0,0.0,0.9037,0.915,0.9944,0.0,0.0,1.1109,1.1378,1.1423,1.1394,1.0984,1.0083,0.9271,0.0,0.0,0.0,0.0,0.0,0.0,0.0,0.0,0.0,0.0,0.0,0.0,0.0,0.0,0.0,0.0,0.0,0.0,0.0,0.0,0.0,0.0,0.0,0.0,0.0,0.0,0.0,0.0,0.0,0.0,0.0,0.0,0.0,0.0,0.0,0.0,0.0,0.0,0.0,0.0,0.0,0.0,0.0,0.0,0.0,0.0,0.0,0.0,0.0,0.0,0.0,0.0,0.3448,0.4149,0.4958,0.559,0.5919,0.6159,0.63,0.6289,0.5999,0.5752,0.0,0.0,0.0,0.0,0.0,0.0,0.0,0.0,0.0,0.0,0.0,0.0,0.0,0.0,0.0,0.0,0.0,0.0,0.0,0.0,0.0,0.0,0.0,0.0,0.0,0.0,0.0,0.0,0.618,0.5884,0.5229,0.0,0.0,0.0,0.0,0.0,0.0,0.0,0.0,0.0,0.0,0.8508,0.8684,0.9317,0.9833,0.9875,1.0112,1.0312,1.0398,1.0118,0.9749,0.926,0.0,0.0,0.0,0.0,0.0,0.0,0.0,0.0,0.0,0.0,0.0,0.0,0.0,0.0,0.0,0.0,0.0,0.0,0.0,0.0,0.0,0.0,0.0,0.0,0.0,0.0,0.0,0.0,0.0,0.0,0.2853,0.0,0.0,0.0,0.0,0.0,0.0,0.0,0.0,0.0,0.0,0.0,0.0,0.0,0.0,0.0,0.0,0.0,0.0,0.0,0.0,0.0,0.0,0.3401,0.4004,0.4941,0.5542,0.5803,0.6139,0.63,0.6289,0.5999,0.5696,0.5415,0.0,0.0,0.0,0.0,0.0,0.0,0.0,0.0,0.0,0.0,0.0,0.0,0.0,0.0,0.0,0.0,0.0,0.0,0.0,0.0,0.0,0.0,0.0,0.0,0.0,0.0,0.6183,0.555,0.4939,0.0,0.0,0.0,0.0,0.0,0.0,0.0,0.0,0.0,0.0,0.7119,0.7571,0.7374,0.8249,0.896,0.9135,0.9866,1.0248,0.9932,0.9883,0.9546,0.0,0.0,0.0,0.0,0.0,0.0,0.0,0.0,0.0,0.0,0.0,0.0,0.0,0.0,0.0,0.0,0.0,0.0,0.0,0.0,0.0,0.0,0.0,0.0,0.0,0.0,0.0,0.3906,0.3655,0.0,0.0,0.0,0.0,0.0,0.0,0.0,0.0,0.0,0.0,0.0,0.4868,0.4856,0.0,0.0,0.0,0.0,0.0,0.0,0.0,0.0,0.0,0.0,0.0,0.0,0.3524,0.4153,0.4958,0.5539,0.58,0.6139,0.6248,0.6108,0.5908,0.5521,0.4965,0.0,0.0,0.0,0.0,0.0,0.0,0.0,0.0,0.0,0.0,0.0,0.0,0.0,0.0,0.0,0.0,0.0,0.0,0.0,0.0,0.0,0.0,0.0,0.0,0.0,0.6163,0.0,0.0,0.0,0.0,0.0,0.0,0.0,0.0,0.0,0.0,0.0,0.6505,0.694,0.6983,0.702,0.7158,0.7501,0.7709,0.0,0.0,0.0,0.0,0.0,0.0,0.0,0.0,0.0,0.0,0.0,0.0,0.0,0.0,0.7111,0.6079,0.5796,0.5619,0.5557,0.0,0.0,0.0,0.0,0.0,0.0,0.0,0.0,0.0,0.0,0.0,0.0,0.0,0.0,0.4251,0.0,0.4033,0.0,0.0,0.0,0.0,0.0,0.0,0.0,0.0,0.4597,0.4868,0.5089,0.51,0.5029,0.0,0.485,0.4509,0.0,0.0,0.0,0.0,0.0,0.0,0.0,0.0,0.3802,0.4304,0.506,0.5559,0.5796,0.6051,0.6132,0.5993,0.583,0.545,0.483,0.4486,0.4212,0.0,0.0,0.0,0.0,0.0,0.0,0.0,0.0,0.0,0.0,0.0,0.0,0.0,0.0,0.0,0.0,0.0,0.0,0.0,0.0,0.0,0.0,0.0,0.5751,0.0,0.0,0.0,0.0,0.0,0.0,0.0,0.0,0.0,0.5953,0.6113,0.6412,0.7068,0.7007,0.69,0.7187,0.0,0.0,0.0,0.0,0.0,0.0,0.0,0.7038,0.7203,0.6942,0.6748,0.6861,0.7042,0.7112,0.6913,0.0,0.0,0.6397,0.6088,0.5995,0.6009,0.6054,0.6159,0.6318,0.6862,0.7201,0.0,0.0,0.0,0.0,0.0,0.0,0.0,0.0,0.3894,0.4095,0.0,0.4014,0.0,0.0,0.0,0.0,0.0,0.4165,0.0,0.0,0.4656,0.4947,0.5014,0.5024,0.5024,0.5079,0.5342,0.5173,0.46,0.3918,0.0,0.0,0.0,0.0,0.0,0.0,0.413,0.4442,0.5106,0.5584,0.5734,0.5882,0.599,0.5979,0.5735,0.544,0.5117,0.4951,0.4685,0.4231,0.3832,0.0,0.0,0.0,0.0,0.0,0.0,0.0,0.0,0.0,0.0,0.0,0.0,0.0,0.0,0.0,0.0,0.0,0.0,0.0,0.0,0.5161,0.0,0.0,0.0,0.0,0.0,0.0,0.0,0.0,0.0,0.0,0.5279,0.5863,0.648,0.6875,0.0,0.0,0.0,0.0,0.7105,0.7105,0.6994,0.696,0.7095,0.7098,0.7129,0.7102,0.0,0.0,0.7031,0.7319,0.7475,0.7011,0.7346,0.7614,0.7587,0.7197,0.6966,0.7041,0.6869,0.6905,0.7323,0.7514,0.7726,0.4556,0.0,0.0,0.0,0.0,0.4172,0.4605,0.5348,0.5393,0.5149,0.4711,0.4794,0.0,0.0,0.0,0.0,0.0,0.0,0.4332,0.4033,0.4226,0.4159,0.3825,0.3825,0.3862,0.3936,0.3958,0.3816,0.3562,0.3355,0.3304,0.3448,0.0,0.0,0.0,0.0,0.2954,0.3305,0.3685,0.4268,0.5064,0.5219,0.5492,0.5834,0.5579,0.5419,0.5327,0.5053,0.4833,0.4695,0.4195,0.0,0.0,0.0,0.0,0.0,0.0,0.0,0.0,0.0,0.0,0.0,0.0,0.0,0.0,0.0,0.0,0.0,0.0,0.0,0.5105,0.4736,0.447,0.0,0.0,0.0,0.0,0.0,0.0,0.0,0.0,0.0,0.6237,0.6529,0.6824,0.0,0.0,0.7282,0.7217,0.7261,0.7305,0.7305,0.7363,0.0,0.0,0.7237,0.7169,0.7431,0.7628,0.7706,0.758,0.7709,0.7872,0.7685,0.7776,0.7913,0.7847,0.7641,0.7438,0.7465,0.756,0.7638,0.7824,0.8045,0.8248,0.4015,0.3793,0.3838,0.3954,0.4139,0.3975,0.4285,0.4867,0.4949,0.4765,0.4424,0.4466,0.4204,0.3669,0.3441,0.0,0.0,0.0,0.3802,0.3655,0.3746,0.3648,0.3389,0.3395,0.3422,0.3509,0.3491,0.3401,0.3281,0.3279,0.3313,0.3383,0.0,0.0,0.274,0.265,0.2713,0.2922,0.3178,0.3636,0.429,0.4368,0.4673,0.5174,0.5042,0.5093,0.5392,0.5131,0.4972,0.4965,0.4545,0.4151,0.0,0.0,0.0,0.0,0.0,0.0,0.0,0.0,0.0,0.0,0.0,0.3091,0.2557,0.0,0.0,0.0,0.3886,0.4458,0.4984,0.4727,0.0,0.0,0.0,0.0,0.0,0.0,0.0,0.5805,0.6274,0.6698,0.6936,0.7149,0.7264,0.7348,0.7438,0.7448,0.7411,0.0,0.7508,0.7461,0.7539,0.7617,0.7672,0.7529,0.7489,0.7685,0.7841,0.785,0.7857,0.7931,0.7985,0.7988,0.7988,0.7988,0.7988,0.7892,0.7797,0.7855,0.8004,0.816,0.8224,0.8448,0.8587,0.3551,0.2935,0.3295,0.3461,0.3522,0.3343,0.3309,0.3351,0.3351,0.3496,0.3735,0.3453,0.3299,0.3266,0.2795,0.0,0.2697,0.2942,0.3132,0.3218,0.3247,0.3254,0.3332,0.3294,0.3334,0.3296,0.3523,0.3519,0.3296,0.3294,0.3213,0.2952,0.2778,0.27,0.2725,0.2795,0.2872,0.2951,0.3163,0.3349,0.3424,0.3453,0.3752,0.4211,0.4215,0.4538,0.5173,0.5051,0.4943,0.4975,0.477,0.4492,0.4214,0.0,0.0,0.0,0.0,0.0,0.0,0.0,0.0,0.0,0.0,0.0,0.0,0.0,0.0,0.0,0.3909,0.0,0.4864,0.5046,0.0,0.0,0.0,0.5467,0.5515,0.585,0.6217,0.6552,0.0,0.0,0.7433,0.7641,0.7818,0.7828,0.7706,0.7658,0.778,0.7682,0.7617,0.7617,0.7631,0.7685,0.7811,0.7814,0.7848,0.7938,0.7988,0.7982,0.7978,0.7985,0.7988,0.7988,0.7988,0.7988,0.7988,0.7975,0.8085,0.8221,0.8323,0.8422,0.8615,0.8703,0.8764,0.2335,0.2138,0.2101,0.2471,0.3116,0.2983,0.3207,0.3668,0.3668,0.357,0.342,0.3433,0.3405,0.3285,0.3242,0.323,0.3287,0.3289,0.3065,0.2692,0.2569,0.2278,0.1828,0.1829,0.1829,0.183,0.1879,0.1878,0.183,0.183,0.1762,0.1636,0.1579,0.1788,0.2166,0.1834,0.1629,0.1634,0.1697,0.2057,0.2642,0.3147,0.3469,0.3634,0.3517,0.3565,0.3724,0.3515,0.3671,0.4212,0.401,0.4039,0.4409,0.3849,0.0,0.0,0.0,0.0,0.0,0.0,0.0,0.0,0.0,0.343,0.2696,0.0,0.3938,0.0,0.4476,0.4935,0.5039,0.5288,0.0,0.0,0.585,0.6054,0.6505,0.661,0.6785,0.7122,0.7353,0.7546,0.7689,0.7767,0.7855,0.7963,0.7806,0.7736,0.7668,0.7719,0.776,0.777,0.7855,0.7897,0.797,0.7934,0.7944,0.7985,0.7988,0.7988,0.7988,0.7988,0.7988,0.7988,0.7988,0.7988,0.7995,0.7988,0.8099,0.8238,0.8357,0.8486,0.8672,0.8798,0.8834,0.1623,0.162,0.1524,0.1782,0.226,0.2168,0.2351,0.2686,0.2686,0.2574,0.2369,0.245,0.2449,0.2371,0.2403,0.2448,0.2535,0.2471,0.2272,0.198,0.1877,0.1676,0.1317,0.1303,0.1297,0.1297,0.1297,0.1297,0.1297,0.1297,0.1288,0.1232,0.1232,0.1404,0.1662,0.137,0.1239,0.1231,0.1202,0.1394,0.1791,0.2184,0.2523,0.2801,0.2745,0.284,0.312,0.2983,0.3127,0.3587,0.3666,0.3736,0.3787,0.3613,0.3281,0.0,0.0,0.0,0.0,0.0,0.0,0.0,0.0,0.0,0.0,0.0,0.3353,0.3423,0.3898,0.4251,0.4321,0.4612,0.5057,0.572,0.5888,0.6251,0.7045,0.7187,0.7134,0.6882,0.6928,0.6828,0.6557,0.6776,0.6996,0.7126,0.7368,0.7589,0.7773,0.7865,0.7913,0.7867,0.7934,0.7988,0.7988,0.7988,0.7988,0.7988,0.7988,0.7988,0.7988,0.7988,0.7988,0.7992,0.8046,0.814,0.8143,0.814,0.8191,0.8319,0.8426,0.8442,0.8581,0.8676,0.8747,0.0926,0.0967,0.0948,0.094,0.0938,0.092,0.1066,0.1297,0.1297,0.1284,0.1222,0.12,0.1202,0.1224,0.1231,0.1257,0.1294,0.1317,0.1295,0.1296,0.1328,0.1319,0.1307,0.1321,0.1309,0.1308,0.1308,0.1306,0.1303,0.1302,0.13,0.1297,0.1297,0.1297,0.1256,0.1192,0.1191,0.129,0.1221,0.1179,0.1088,0.1082,0.1361,0.194,0.1956,0.2238,0.2787,0.2712,0.2738,0.2928,0.3317,0.336,0.293,0.3117,0.2887,0.0,0.1775,0.0,0.0,0.0,0.0,0.0,0.0,0.0,0.0,0.241,0.2641,0.2779,0.3049,0.324,0.3411,0.3691,0.4244,0.5203,0.5534,0.6039,0.6866,0.7076,0.6867,0.6017,0.593,0.5576,0.4906,0.5325,0.5727,0.5774,0.6224,0.6766,0.7325,0.7624,0.7829,0.7889,0.7885,0.7839,0.7839,0.7889,0.7889,0.7889,0.7839,0.7889,0.7889,0.7889,0.7899,0.7975,0.8076,0.8163,0.8292,0.8299,0.8285,0.8445,0.8422,0.8333,0.8455,0.8552,0.8526,-0.0967,-0.0967,-0.0962,-0.096,-0.096,-0.0956,-0.0122,0.1297,0.1297,0.1268,0.1287,0.1265,0.1263,0.129,0.1335,0.1322,0.1308,0.1311,0.1324,0.131,0.1299,0.131,0.1296,0.1292,0.1331,0.1331,0.1331,0.1318,0.1294,0.1294,0.1321,0.1298,0.1297,0.1179,0.0982,0.0,0.0,0.0,0.1228,0.1157,0.1086,0.1097,0.1135,0.1196,0.1198,0.0,0.1309,0.1269,0.1534,0.2016,0.2174,0.0,0.0,0.0,0.0,0.0,0.0,0.0,0.0,0.0,0.0,0.0,0.1844,0.2037,0.2317,0.2898,0.3201,0.3104,0.3459,0.362,0.3588,0.3861,0.4126,0.4343,0.4494,0.4665,0.4812,0.485,0.4702,0.4484,0.4443,0.4349,0.4162,0.4318,0.4366,0.4368,0.4518,0.4618,0.4818,0.6226,0.7288,0.7338,0.7235,0.7288,0.7338,0.7288,0.7185,0.7335,0.7338,0.7338,0.7335,0.7385,0.7532,0.7823,0.7731,0.7792,0.831,0.8236,0.8131,0.8423,0.837,0.8364,0.8452,0.8535,0.8492,-0.1474,0.0,-0.15,-0.1493,0.0,-0.1644,-0.1078,-0.0081,-0.0081,-0.0082,-0.0041,0.0418,0.0631,0.0715,0.1149,0.1352,0.1365,0.1298,0.1305,0.1345,0.1206,0.0921,0.047,0.0338,0.0042,-0.042,-0.042,-0.0418,-0.0413,0.0041,0.004,-0.0359,0.0118,0.0078,-0.047,-0.047,0.0,0.1041,0.1138,0.118,0.11,0.1083,0.1063,0.1002,0.0,0.0,0.0,0.0,0.0,0.0,0.0,0.0,0.0,0.0,0.0,0.1623,0.1465,0.1431,0.1535,0.1563,0.1496,0.1405,0.1471,0.159,0.1781,0.2147,0.2335,0.2307,0.2511,0.2559,0.2389,0.2524,0.2799,0.3172,0.3328,0.3504,0.3988,0.409,0.3879,0.3309,0.3215,0.3066,0.2516,0.2819,0.3017,0.3067,0.3369,0.3571,0.372,0.4722,0.5622,0.5625,0.5622,0.5622,0.5622,0.5622,0.5622,0.5675,0.6077,0.6379,0.6429,0.6833,0.7263,0.7484,0.7496,0.7592,0.7922,0.7908,0.7877,0.808,0.8056,0.7985,0.8046,0.8163,0.8289,-0.1924,-0.1966,-0.2063,-0.2049,-0.2088,-0.2308,-0.2293,-0.2039,0.0,0.0,0.0,-0.0679,-0.0343,-0.026,0.0469,0.0808,0.0857,0.0759,0.0802,0.0814,0.059,0.0085,-0.0646,-0.0847,-0.1385,-0.2096,-0.2138,-0.2134,-0.2083,-0.135,-0.1336,-0.1931,-0.1225,-0.1213,-0.1915,-0.1955,-0.1187,0.0294,0.0621,0.071,0.0673,0.084,0.0896,0.084,0.0937,0.1019,0.1021,0.0994,0.0997,0.0997,0.1468,0.1531,0.1059,0.1461,0.152,0.105,0.1019,0.1022,0.0996,0.0992,0.1026,0.1062,0.1169,0.1223,0.1237,0.1247,0.1256,0.135,0.1311,0.1232,0.1029,0.1031,0.1311,0.203,0.2107,0.2479,0.3219,0.3368,0.2901,0.2162,0.1964,0.1663,0.0908,0.1262,0.1614,0.1715,0.2116,0.262,0.272,0.337,0.4017,0.4019,0.4071,0.3919,0.3919,0.3969,0.3867,0.4019,0.467,0.5175,0.5325,0.5879,0.6442,0.643,0.6706,0.6861,0.7191,0.7246,0.7446,0.7765,0.7704,0.7631,0.7663,0.7798,0.7991,-0.403,-0.4253,-0.4241,-0.4235,-0.4279,-0.4311,-0.4263,-0.4078,-0.2304,-0.1597,-0.1728,-0.1408,-0.132,-0.1517,-0.1297,-0.1227,-0.1268,-0.1345,-0.1346,0.0,-0.1386,-0.1484,-0.1599,-0.1638,-0.1719,-0.1844,-0.1886,-0.1868,-0.1834,-0.1745,-0.1765,-0.193,-0.1762,-0.1876,-0.2111,-0.215,-0.2006,-0.1763,-0.1323,-0.1063,-0.094,-0.0235,0.0166,0.0161,0.0678,0.1019,0.1021,0.0982,0.0996,0.0996,0.1149,0.1151,0.1029,0.1093,0.1079,0.1021,0.1019,0.0999,0.0994,0.1054,0.1037,0.0928,0.084,0.0916,0.1247,0.1148,0.1089,0.1114,0.0936,0.0759,0.0762,0.0762,0.0859,0.1014,0.1066,0.1037,0.1072,0.1032,0.0892,0.0503,0.0353,0.0,0.0,0.0,0.0,0.0,0.0,0.0,0.0,0.2116,0.3172,0.3323,0.3323,0.3323,0.3122,0.3272,0.3171,0.3323,0.3373,0.3623,0.3623,0.3875,0.4196,0.4309,0.4373,0.4727,0.5917,0.6183,0.6432,0.7274,0.7469,0.7517,0.7508,0.761,0.7746,-0.4743,-0.4879,-0.4879,-0.4879,-0.4835,-0.4879,-0.4926,-0.4966,-0.3896,-0.3437,-0.3485,-0.2895,-0.2608,-0.2598,-0.2054,-0.1799,-0.1742,-0.1782,-0.1782,-0.1825,-0.1929,-0.224,-0.2763,-0.2893,-0.3226,-0.373,-0.3771,-0.375,-0.3712,-0.3219,-0.3182,-0.3665,-0.362,-0.364,-0.3717,-0.3717,-0.3673,-0.3584,-0.2282,-0.1571,-0.1579,-0.1116,-0.0867,-0.0856,-0.056,-0.0393,-0.042,-0.0327,-0.0299,-0.0371,0.0205,0.0482,0.0414,0.0864,0.1099,0.112,0.0983,0.0921,0.0932,0.0885,0.0807,0.0732,0.0734,0.0758,0.0927,0.0868,0.0844,0.0851,0.0762,0.0673,0.0538,0.0538,0.0495,0.0409,0.0367,0.0326,0.019,0.0194,0.0148,0.0,0.0,0.0,0.0,0.0,0.0,0.0,0.0,0.0,0.0,0.0,0.0,0.1462,0.1462,0.1462,0.0,0.1462,0.1462,0.1462,0.1965,0.2267,0.2418,0.272,0.3234,0.3409,0.3365,0.3645,0.4536,0.4577,0.4884,0.5258,0.5531,0.5692,0.617,0.693,0.7544,-0.523,-0.5099,-0.5099,-0.5099,-0.5099,-0.5099,-0.5191,-0.5371,-0.5191,-0.5146,-0.501,-0.4293,-0.3899,-0.3745,-0.3013,-0.2617,-0.2532,-0.2543,-0.2532,-0.2538,-0.2662,-0.318,-0.3882,-0.409,-0.4543,-0.5246,-0.529,-0.5331,-0.5194,-0.4504,-0.4503,-0.51,-0.5061,-0.5018,-0.5018,-0.5018,-0.4933,-0.476,-0.3231,-0.2381,-0.2343,-0.2041,-0.1844,-0.1844,-0.1676,-0.1575,-0.1575,-0.1483,-0.1469,-0.1535,-0.0844,-0.0463,-0.0509,0.0109,0.0473,0.0473,0.0328,0.0255,0.0257,0.0075,-0.0038,-0.0039,-0.0041,-0.0042,-0.0042,-0.0043,0.0178,0.0537,0.0583,0.0449,0.0359,0.0314,0.0224,0.0,0.0,0.0,0.0,0.0,0.0,0.0,0.0,0.0,0.0,0.0,0.0,0.0,0.0,0.0,0.0,0.0,0.0,0.0,0.0,0.0,0.0,0.0,0.0,0.0,0.0706,0.116,0.1361,0.1965,0.2368,0.2321,0.2371,0.2535,0.287,0.3049,0.3281,0.3688,0.3921,0.404,0.479,0.563,0.687,-0.5935,-0.5416,-0.5416,-0.5371,-0.5416,-0.5416,-0.546,-0.5505,-0.5597,-0.5644,-0.5641,-0.5099,-0.5003,-0.5149,-0.4832,-0.461,-0.4621,-0.4689,-0.4641,-0.4604,-0.4726,-0.4773,-0.4823,-0.486,-0.4933,-0.5059,-0.5061,-0.5072,-0.5072,-0.493,-0.492,-0.5031,-0.5021,-0.5018,-0.5018,-0.5018,-0.4973,-0.4999,-0.469,-0.434,-0.3925,-0.3065,-0.2586,-0.2619,-0.1945,-0.1575,-0.1747,-0.1717,-0.1778,-0.1785,-0.1826,-0.1814,-0.1784,-0.1711,-0.1674,-0.1639,-0.1675,-0.1725,-0.1648,-0.1845,-0.1869,-0.1953,-0.2004,-0.2078,-0.2122,-0.2249,-0.1536,-0.0178,0.0179,0.0045,0.0045,0.0045,0.0,0.0,0.0,0.0,0.0,0.0,0.0,0.0,0.0,0.0,0.0,0.0,0.0,0.0,0.0,0.0,0.0,0.0,0.0,0.0,0.0,0.0,0.0,0.0,0.0,0.0,0.0,0.0,0.0,0.0,0.0,0.0,0.0,0.0,0.1522,0.1893,0.2275,0.2799,0.3141,0.3603,0.3769,0.4039,0.4947,-0.7129,-0.6432,-0.639,-0.639,-0.6476,-0.7003,-0.7224,-0.7224,-0.7312,-0.736,-0.7316,-0.7132,-0.6471,-0.5439,-0.5276,-0.5209,-0.5129,-0.5012,-0.5018,-0.5018,-0.5018,-0.5018,-0.5018,-0.5018,-0.5018,-0.5018,-0.5018,-0.5018,-0.5018,-0.5018,-0.5018,-0.5018,-0.5018,-0.5018,-0.5018,-0.5018,-0.5018,-0.5015,-0.4858,-0.471,-0.4533,-0.4039,-0.3718,-0.3639,-0.344,-0.3295,-0.3305,-0.3348,-0.3349,-0.3362,-0.2883,-0.2582,-0.266,-0.2203,-0.1936,-0.1937,-0.2051,-0.2175,-0.2233,-0.2312,-0.2398,-0.2384,-0.2439,-0.2513,-0.2518,-0.2621,-0.2309,-0.1581,-0.1069,-0.0808,-0.0808,-0.0359,0.0,0.0,0.0,0.0,0.0,0.0,0.0,0.0,0.0,0.0,0.0,0.0,0.0,0.0,0.0,0.0,0.0,0.0,0.0,0.0,0.0,0.0,0.0,0.0,0.0,0.0,0.0,0.0,0.0,0.0,0.0,0.0,0.0,0.0,0.0,0.0659,0.0969,0.1584,0.2095,0.2421,0.2421,0.2959,0.4005,-0.8324,-0.7536,-0.7489,-0.7492,-0.7536,-0.8193,-0.85,-0.8488,-0.8447,-0.8423,-0.8415,-0.8332,-0.7584,-0.6346,-0.6173,-0.5929,-0.5667,-0.5435,-0.521,-0.5018,-0.5018,-0.5018,-0.5018,-0.5018,-0.5018,-0.5018,-0.5018,-0.5018,-0.5018,-0.5018,-0.5018,-0.5018,-0.5018,-0.5018,-0.5018,-0.5018,-0.5018,-0.4973,-0.4887,-0.4831,-0.4777,-0.4662,-0.455,-0.4417,-0.4477,-0.4555,-0.4558,-0.4527,-0.4517,-0.4563,-0.3911,-0.3574,-0.3597,-0.3051,-0.2737,-0.2776,-0.2893,-0.3012,-0.3168,-0.3169,-0.3169,-0.3175,-0.3183,-0.3172,-0.3238,-0.3352,-0.3432,-0.3358,-0.269,-0.2152,-0.1749,-0.1211,-0.0808,-0.0808,-0.0629,-0.0404,0.0,-0.0229,0.0,0.0,0.0,0.0,0.0,0.0,0.0,0.0,0.0,0.0,0.0,0.0,0.0,0.0,0.0,0.0,0.0,0.0,0.0,0.0,0.0,0.0,0.0,0.0,0.0,0.0,0.0,0.0,0.0,0.0,0.0,0.0,0.0,0.0,0.1216,0.0,0.0,-0.9283,-0.8496,-0.8456,-0.8436,-0.8448,-0.8524,-0.8575,-0.8622,-0.8392,-0.828,-0.8298,-0.8076,-0.7955,-0.807,-0.7936,-0.7458,-0.6757,-0.633,-0.5744,-0.5135,-0.5054,-0.5018,-0.5018,-0.5018,-0.5018,-0.5018,-0.5018,-0.5018,-0.5018,-0.5018,-0.5018,-0.5018,-0.5018,-0.5018,-0.5018,-0.5018,-0.5018,-0.5015,-0.4963,-0.4953,-0.4817,-0.4787,-0.4754,-0.469,-0.4679,-0.4681,-0.4692,-0.4725,-0.4793,-0.4798,-0.4788,-0.4851,-0.4859,-0.482,-0.474,-0.4742,-0.4781,-0.482,-0.4779,-0.474,-0.4742,-0.482,-0.4675,-0.4797,-0.4671,-0.4851,-0.5013,-0.522,-0.4424,-0.3762,-0.3047,-0.2643,-0.2509,-0.251,-0.1838,-0.139,-0.1301,-0.0547,-0.0092,0.0,0.0,0.0,0.0,0.0,0.0,0.0,0.0,0.0,0.0,0.0,0.0,0.0,0.0,0.0,0.0,0.0,0.0,0.0,0.0,0.0,0.0,0.0,0.0,0.0,0.0,0.0,0.0,0.0,0.0,0.0,0.0,0.0,0.0,0.0,0.0,-0.9919,-0.9208,-0.9008,-0.9063,-0.9246,-0.9643,-0.9837,-0.9832,-0.9795,-0.972,-0.9705,-0.9637,-0.9647,-0.9705,-0.9536,-0.8788,-0.7587,-0.7195,-0.6584,-0.5822,-0.5783,-0.5515,-0.5018,-0.5018,-0.5018,-0.5018,-0.5018,-0.5018,-0.5018,-0.5018,-0.5018,-0.5018,-0.5018,-0.5018,-0.5018,-0.5018,-0.5018,-0.5018,-0.5018,-0.4993,-0.4914,-0.4911,-0.4928,-0.4885,-0.4809,-0.477,-0.477,-0.4885,-0.4953,-0.4914,-0.4957,-0.5018,-0.5018,-0.5018,-0.5018,-0.5018,-0.5018,-0.5018,-0.5018,-0.5018,-0.5018,-0.5018,-0.5018,-0.5056,-0.5135,-0.5273,-0.5401,-0.5408,-0.5365,-0.4966,-0.4567,-0.3673,-0.2911,-0.2867,-0.2598,-0.2107,-0.1526,-0.1084,-0.0684,0.0,0.0,0.0,0.0,0.0,0.0,0.0,0.0,0.0,0.0,0.0,0.0,0.0,0.0,0.0,0.0,0.0,0.0,0.0,0.0,0.0,0.0,0.0,0.0,0.0,0.0,0.0,0.0,0.0,0.0,0.0,0.0,0.0,0.0,0.0,0.0,-1.031,-0.9907,-0.9707,-0.9768,-0.9964,-1.0412,-1.0597,-1.0587,-1.0517,-1.0525,-1.0474,-1.0404,-1.0404,-1.0436,-1.0277,-0.97,-0.872,-0.8147,-0.7425,-0.6661,-0.6623,-0.6356,-0.5822,-0.5518,-0.5515,-0.5783,-0.5783,-0.567,-0.5437,-0.5398,-0.5285,-0.5018,-0.5018,-0.5018,-0.5018,-0.5018,-0.5018,-0.5018,-0.5018,-0.5018,-0.5018,-0.5018,-0.5018,-0.5007,-0.4934,-0.4855,-0.4858,-0.4974,-0.5018,-0.5018,-0.5018,-0.5018,-0.5018,-0.5018,-0.5018,-0.5018,-0.5018,-0.5018,-0.5023,-0.505,-0.5072,-0.5072,-0.5075,-0.5121,-0.5235,-0.5364,-0.5423,-0.5497,-0.5618,-0.5688,-0.5466,-0.4523,-0.3807,-0.3762,-0.3539,-0.3092,-0.2419,-0.2107,-0.1455,-0.0699,0.0,0.0,0.0,0.0,0.0,0.0,0.0,0.0,0.0,0.0,0.0,0.0,0.0,0.0,0.0,0.0,0.0,0.0,0.0,0.0,0.0,0.0,0.0,0.0,0.0,0.0,0.0,0.0,0.0,0.0,0.0,0.0,0.0,0.0,0.0,-1.0581,-1.0546,-1.0587,-1.0479,-1.046,-1.0503,-1.0565,-1.0501,-1.0374,-1.0293,-1.0261,-1.0056,-1.011,-1.0207,-1.0056,-0.9996,-0.9852,-0.9101,-0.8275,-0.754,-0.7502,-0.7425,-0.7234,-0.6546,-0.6588,-0.7234,-0.7387,-0.6965,-0.624,-0.6128,-0.5744,-0.5171,-0.5015,-0.5018,-0.5018,-0.5018,-0.5018,-0.5093,-0.5057,-0.5018,-0.5018,-0.5057,-0.5018,-0.5018,-0.5007,-0.5002,-0.4968,-0.5012,-0.5018,-0.5018,-0.5018,-0.5018,-0.5018,-0.5018,-0.5018,-0.5018,-0.5018,-0.5018,-0.5037,-0.5121,-0.5167,-0.5167,-0.5178,-0.5222,-0.5364,-0.5405,-0.5426,-0.5518,-0.5621,-0.5688,-0.5688,-0.551,-0.5421,-0.5555,-0.4748,-0.4255,-0.3985,-0.3405,-0.2501,-0.1643,-0.1428,-0.1017,-0.0349,0.0,0.0,0.0,0.0,0.0,0.0,0.0,0.0,0.0,0.0,0.0,0.0,0.0,0.0,0.0,0.0,0.0,0.0,0.0,0.0,0.0,0.0,0.0,0.0,0.0,0.0,0.0,0.0,0.0,0.0,0.0,0.0,-1.0206,-1.0374,-1.0168,-1.0245,-1.0363,-1.0179,-1.0104,-1.0104,-1.0024,-1.004,-1.0019,-0.9916,-0.9927,-0.997,-0.9911,-0.9927,-0.9986,-0.9646,-0.9079,-0.8428,-0.8313,-0.8042,-0.7579,-0.7234,-0.7234,-0.7464,-0.7502,-0.7387,-0.7042,-0.6507,-0.6047,-0.578,-0.5285,-0.5018,-0.5057,-0.5018,-0.5246,-0.5705,-0.5285,-0.5249,-0.5705,-0.5285,-0.5018,-0.5018,-0.5018,-0.5018,-0.5018,-0.5018,-0.5018,-0.5018,-0.5018,-0.5018,-0.5018,-0.5018,-0.5018,-0.5018,-0.5018,-0.5059,-0.5127,-0.5162,-0.5186,-0.5186,-0.5186,-0.5246,-0.5388,-0.5413,-0.5461,-0.5588,-0.5669,-0.5688,-0.5688,-0.5688,-0.5688,-0.5688,-0.5419,-0.4971,-0.4389,-0.3539,-0.2857,-0.2596,-0.2497,-0.2116,-0.1378,-0.1099,-0.0858,0.0,0.0,0.0,0.0,0.0,0.0,0.0,0.0,0.0,0.0,0.0,0.0,0.0,0.0,0.0,0.0,0.0,0.0,0.0,0.0,0.0,0.0,0.0,0.0,0.0,0.0,0.0,0.0,0.0,0.0,-1.0534,-1.0473,-1.0322,-1.0198,-1.0137,-0.9976,-0.9884,-0.9884,-0.9884,-0.9884,-0.9884,-0.9884,-0.9884,-0.9884,-0.9884,-0.9884,-0.9884,-0.9884,-0.9614,-0.9198,-0.9122,-0.8846,-0.8423,-0.8385,-0.8194,-0.8042,-0.8271,-0.8228,-0.7927,-0.7391,-0.6969,-0.6623,-0.6167,-0.5786,-0.5553,-0.5783,-0.6089,-0.6167,-0.6051,-0.6163,-0.6468,-0.6205,-0.5938,-0.5938,-0.5938,-0.5783,-0.5515,-0.5437,-0.5285,-0.5057,-0.5018,-0.5018,-0.5018,-0.5018,-0.5018,-0.5018,-0.5021,-0.505,-0.5118,-0.5156,-0.5186,-0.5186,-0.5186,-0.5265,-0.5385,-0.5407,-0.5477,-0.5684,-0.5688,-0.5688,-0.5688,-0.5688,-0.5688,-0.5688,-0.5688,-0.5419,-0.4837,-0.43,-0.3816,-0.3665,-0.354,-0.3078,-0.2463,-0.2196,-0.1965,-0.1311,-0.121,-0.0908,-0.0757,0.0,0.0,0.0,0.0,0.0,0.0,0.0,0.0,0.0,0.0,0.0,0.0,0.0,0.0,0.0,0.0,0.0,0.0,0.0,0.0,0.0,0.0,0.0,0.0,0.0,0.0,-1.1335,-1.0887,-1.085,-1.0556,-1.0127,-1.011,-1.0067,-0.996,-0.9997,-0.996,-0.9916,-0.9884,-0.9884,-0.9884,-0.9884,-0.9884,-0.9884,-0.9884,-0.9884,-0.9809,-0.9771,-0.969,-0.9614,-0.9614,-0.9273,-0.8927,-0.9425,-0.9382,-0.8775,-0.8546,-0.8313,-0.7583,-0.7349,-0.7042,-0.6507,-0.708,-0.7042,-0.6738,-0.708,-0.7349,-0.754,-0.7387,-0.7387,-0.7349,-0.7272,-0.6965,-0.6395,-0.6279,-0.5857,-0.5132,-0.5018,-0.5018,-0.5018,-0.5018,-0.5018,-0.5018,-0.5018,-0.5029,-0.5053,-0.5135,-0.5186,-0.5186,-0.5195,-0.5281,-0.541,-0.5426,-0.5469,-0.57,-0.5688,-0.5688,-0.5688,-0.5688,-0.5688,-0.5688,-0.5688,-0.5644,-0.5688,-0.5552,-0.5146,-0.4739,-0.4569,-0.4242,-0.3443,-0.3321,-0.3172,-0.2972,-0.2871,-0.2368,-0.1915,-0.1462,-0.1059,0.0,0.0,0.0,0.0,0.0,0.0,0.0,0.0,0.0,0.0,0.0,0.0,0.0,0.0,0.0,0.0,0.0,0.0,0.0,0.0,0.0,0.0,0.0,0.0,-1.1595,-1.1484,-1.1484,-1.1372,-1.1223,-1.1223,-1.0968,-1.0594,-1.0556,-1.0331,-0.9992,-0.9884,-0.9916,-0.9884,-0.9884,-0.9884,-0.9884,-0.9884,-0.9884,-0.9884,-0.9884,-0.9884,-0.9884,-0.9884,-0.9771,-0.9614,-0.9765,-0.9771,-0.9539,-0.9003,-0.8618,-0.8356,-0.7846,-0.7464,-0.7272,-0.7464,-0.7732,-0.7927,-0.7617,-0.7884,-0.8237,-0.7851,-0.7502,-0.7502,-0.7536,-0.7425,-0.7157,-0.7157,-0.643,-0.5132,-0.5018,-0.5018,-0.5057,-0.5018,-0.5018,-0.5018,-0.5021,-0.5056,-0.5124,-0.5162,-0.5181,-0.5186,-0.5173,-0.5292,-0.5396,-0.5432,-0.5491,-0.5673,-0.5688,-0.5688,-0.5688,-0.5688,-0.5688,-0.5688,-0.5688,-0.5688,-0.5688,-0.5696,-0.5642,-0.5657,-0.5653,-0.5186,-0.4676,-0.4331,-0.4128,-0.3575,-0.3374,-0.3224,-0.2821,-0.2267,-0.1815,-0.116,0.0,0.0,0.0,0.0,0.0,0.0,0.0,0.0,0.0,0.0,0.0,0.0,0.0,0.0,0.0,0.0,0.0,0.0,0.0,0.0,0.0,0.0,0.0,-1.2305,-1.2077,-1.2077,-1.1929,-1.1706,-1.1706,-1.1477,-1.1223,-1.1149,-1.0999,-1.0663,-1.0363,-1.025,-1.0255,-1.0035,-0.9884,-0.9884,-0.9884,-0.9884,-0.9884,-0.9884,-0.9884,-0.9884,-0.9884,-0.9884,-0.9884,-0.9884,-0.9884,-0.9803,-0.9382,-0.9236,-0.916,-0.8727,-0.8342,-0.8042,-0.8385,-0.8499,-0.8661,-0.8504,-0.877,-0.9122,-0.877,-0.8575,-0.8499,-0.8499,-0.8423,-0.8042,-0.7693,-0.7003,-0.6167,-0.5744,-0.5515,-0.5476,-0.5171,-0.5018,-0.5018,-0.5018,-0.5048,-0.5097,-0.5116,-0.5116,-0.5116,-0.5116,-0.5205,-0.5369,-0.5416,-0.5472,-0.5692,-0.5683,-0.5688,-0.5688,-0.5688,-0.5688,-0.5688,-0.5688,-0.5688,-0.5688,-0.5688,-0.5799,-0.6005,-0.61,-0.5984,-0.5504,-0.5479,-0.5183,-0.478,-0.473,-0.4429,-0.3927,-0.3224,-0.2519,-0.1916,-0.1261,0.0,0.0,0.0,0.0,0.0,0.0,0.0,0.0,0.0,0.0,0.0,0.0,0.0,0.0,0.0,0.0,0.0,0.0,0.0,0.0,0.0,0.0,-1.32,-1.2673,-1.2673,-1.2378,-1.1966,-1.1892,-1.1929,-1.1781,-1.1781,-1.1706,-1.1521,-1.1105,-1.0887,-1.0856,-1.0475,-1.0105,-1.003,-1.0067,-1.003,-1.003,-0.9992,-0.9916,-1.0067,-0.9916,-0.9884,-0.9884,-0.9884,-0.9884,-0.9884,-0.9841,-0.9841,-0.9728,-0.9765,-0.9501,-0.9041,-0.9425,-0.9425,-0.9122,-0.9425,-0.9614,-0.9733,-0.9652,-0.9576,-0.9576,-0.9614,-0.9344,-0.8808,-0.8271,-0.777,-0.777,-0.6853,-0.6395,-0.624,-0.5592,-0.521,-0.521,-0.5249,-0.5212,-0.5174,-0.5263,-0.5176,-0.5224,-0.516,-0.5127,-0.5358,-0.5393,-0.5499,-0.5669,-0.5688,-0.5688,-0.5688,-0.5688,-0.5688,-0.5688,-0.5688,-0.5688,-0.5688,-0.5688,-0.582,-0.6026,-0.607,-0.6198,-0.6336,-0.6431,-0.6337,-0.5634,-0.5684,-0.5432,-0.4931,-0.4331,-0.3525,-0.262,-0.2016,0.0,0.0,0.0,0.0,0.0,0.0,0.0,0.0,0.0,0.0,0.0,0.0,0.0,0.0,0.0,0.0,0.0,0.0,0.0,0.0,0.0,0.0,-1.3419,-1.3309,-1.3317,-1.3236,-1.3119,-1.3119,-1.2826,-1.2415,-1.2415,-1.2194,-1.1781,-1.1552,-1.1521,-1.1484,-1.126,-1.1074,-1.0625,-1.0588,-1.0588,-1.055,-1.0067,-1.0218,-1.0368,-1.0137,-0.9916,-0.9884,-0.9884,-0.9884,-0.9884,-0.9884,-0.9884,-0.9884,-0.9884,-0.9803,-0.969,-0.9728,-0.9846,-0.9695,-0.9846,-0.9884,-0.9916,-0.9884,-0.9884,-0.9884,-0.9884,-0.9809,-0.9695,-0.9496,-0.9382,-0.9074,-0.8114,-0.731,-0.7084,-0.6433,-0.5973,-0.5935,-0.5935,-0.5935,-0.5938,-0.5941,-0.5935,-0.5918,-0.5583,-0.5211,-0.5388,-0.5458,-0.5526,-0.5659,-0.5688,-0.5688,-0.5688,-0.5688,-0.5688,-0.5688,-0.5688,-0.5688,-0.5688,-0.5688,-0.5803,-0.592,-0.6032,-0.6143,-0.6287,-0.6388,-0.6415,-0.6381,-0.6337,-0.6284,-0.5834,-0.5286,-0.4479,-0.3524,-0.3073,-0.2418,-0.121,-0.0656,-0.0252,0.0,0.0,0.0,0.0,0.0,0.0,0.0,0.0,0.0,0.0,0.0,0.0,0.0,0.0,0.0,0.0,0.0,0.0,-1.4338,-1.4013,-1.4013,-1.3804,-1.3528,-1.3492,-1.3309,-1.3046,-1.301,-1.2863,-1.2526,-1.2268,-1.212,-1.2077,-1.1818,-1.1477,-1.1223,-1.0925,-1.0775,-1.0738,-1.0443,-1.0368,-1.0368,-1.0325,-1.0212,-0.996,-0.9884,-0.9884,-0.9884,-0.9884,-0.9884,-0.9884,-0.9884,-0.9884,-0.9884,-0.9884,-0.996,-0.9997,-0.996,-0.996,-1.003,-0.9954,-0.9884,-0.9884,-0.9884,-0.9884,-0.9846,-0.9884,-0.9884,-0.969,-0.9074,-0.8418,-0.7961,-0.7276,-0.6853,-0.6815,-0.6815,-0.6815,-0.6819,-0.6885,-0.6973,-0.693,-0.6321,-0.6141,-0.5924,-0.5815,-0.5559,-0.5653,-0.5688,-0.5688,-0.5688,-0.5688,-0.5688,-0.5688,-0.5688,-0.5688,-0.5688,-0.5688,-0.5731,-0.5877,-0.5958,-0.6092,-0.6217,-0.6323,-0.6396,-0.6415,-0.6387,-0.6337,-0.6337,-0.5837,-0.5334,-0.463,-0.423,-0.3374,-0.1915,-0.1009,-0.0353,0.0,0.0,0.0,0.0,0.0,0.0,0.0,0.0,0.0,0.0,0.0,0.0,0.0,0.0,0.0,0.0,0.0,0.0,-1.5357,-1.4744,-1.4637,-1.4258,-1.3702,-1.3564,-1.3492,-1.3492,-1.3492,-1.3375,-1.3419,-1.2936,-1.2709,-1.2636,-1.2261,-1.2003,-1.1706,-1.1298,-1.1074,-1.126,-1.1037,-1.0887,-1.0738,-1.0812,-1.0663,-1.011,-0.9922,-0.9922,-0.9884,-0.9884,-0.9884,-0.9884,-0.9884,-0.9884,-0.9884,-0.996,-1.0035,-1.0105,-1.0105,-1.0105,-1.018,-1.0073,-0.9976,-0.997,-1.0013,-0.9975,-0.9965,-0.996,-0.9884,-0.9884,-0.9884,-0.9539,-0.8927,-0.8161,-0.7693,-0.7655,-0.7659,-0.7659,-0.768,-0.7819,-0.7911,-0.793,-0.7367,-0.7076,-0.6992,-0.6645,-0.6246,-0.5954,-0.5866,-0.5688,-0.5688,-0.5688,-0.5688,-0.5688,-0.5688,-0.5688,-0.5688,-0.5691,-0.5737,-0.5844,-0.5909,-0.6021,-0.6151,-0.6265,-0.6339,-0.6401,-0.6373,-0.6387,-0.6387,-0.6337,-0.5784,-0.5584,-0.5233,-0.413,-0.2669,-0.1462,-0.0808,0.0,0.0,0.0,0.0,0.0,0.0,0.0,0.0,0.0,0.0,0.0,0.0,0.0,0.0,0.0,0.0,0.0,0.0,-1.564,-1.5455,-1.4851,-1.453,-1.4322,-1.3775,-1.3564,-1.3492,-1.355,-1.3492,-1.3441,-1.3375,-1.3252,-1.3237,-1.3266,-1.2929,-1.2365,-1.1855,-1.1781,-1.2003,-1.1781,-1.1558,-1.1744,-1.1558,-1.1223,-1.0631,-1.0255,-1.0035,-0.9884,-0.9884,-0.9884,-0.9884,-0.9884,-0.9884,-0.9981,-1.0073,-1.0192,-1.0356,-1.0383,-1.0447,-1.0485,-1.0339,-1.0264,-1.0274,-1.0279,-1.0235,-1.0159,-1.0024,-0.9884,-0.9884,-0.9884,-0.9809,-0.9539,-0.8884,-0.8546,-0.8508,-0.8504,-0.8508,-0.8555,-0.8568,-0.8704,-0.8681,-0.826,-0.8014,-0.8051,-0.7927,-0.7392,-0.6851,-0.626,-0.5822,-0.5733,-0.5866,-0.5777,-0.5733,-0.5733,-0.5733,-0.5688,-0.5691,-0.5696,-0.5739,-0.586,-0.5939,-0.6064,-0.6187,-0.6282,-0.6363,-0.6368,-0.6381,-0.6387,-0.6387,-0.6237,-0.6187,-0.6187,-0.483,-0.3373,-0.2217,-0.1312,-0.0555,0.0,0.0,0.0,0.0,0.0,0.0,0.0,0.0,0.0,0.0,0.0,0.0,0.0,0.0,0.0,0.0,0.0,-1.7179,-1.6757,-1.607,-1.5525,-1.5136,-1.4824,-1.441,-1.4055,-1.3874,-1.3585,-1.3256,-1.3075,-1.2987,-1.3038,-1.3192,-1.3136,-1.2938,-1.2452,-1.2378,-1.2489,-1.2342,-1.2083,-1.2305,-1.2114,-1.1818,-1.1372,-1.0962,-1.0443,-0.9954,-0.9884,-0.9927,-0.9884,-0.9884,-0.9943,-1.0127,-1.0308,-1.0561,-1.07,-1.0857,-1.0973,-1.1018,-1.0857,-1.0802,-1.0757,-1.0578,-1.0478,-1.039,-1.0084,-0.9889,-0.9884,-0.9884,-0.9884,-0.9781,-0.9625,-0.9316,-0.9322,-0.9279,-0.9382,-0.9493,-0.9584,-0.9811,-0.9979,-0.9377,-0.9065,-0.9,-0.8709,-0.8321,-0.7885,-0.7577,-0.7143,-0.7231,-0.6656,-0.6482,-0.6349,-0.6041,-0.5733,-0.5688,-0.5688,-0.5688,-0.5688,-0.5737,-0.5863,-0.5966,-0.6092,-0.6214,-0.6312,-0.6349,-0.6376,-0.6387,-0.6387,-0.6387,-0.6287,-0.6187,-0.5284,-0.4028,-0.3123,-0.1865,-0.1009,-0.0555,-0.0454,0.0,0.0,0.0,0.0,0.0,0.0,0.0,0.0,0.0,0.0,0.0,0.0,0.0,0.0,0.0,-1.888,-1.8281,-1.758,-1.6869,-1.6166,-1.5844,-1.5364,-1.4744,-1.434,-1.3887,-1.3313,-1.3067,-1.292,-1.2818,-1.2939,-1.3155,-1.3368,-1.288,-1.2826,-1.2826,-1.2783,-1.2526,-1.2378,-1.2372,-1.2445,-1.1929,-1.1818,-1.1223,-1.0331,-1.0143,-1.0057,-1.0013,-1.0008,-1.016,-1.0427,-1.0662,-1.101,-1.1244,-1.1404,-1.1479,-1.1525,-1.1445,-1.1324,-1.1255,-1.0869,-1.0662,-1.0601,-1.0237,-1.0057,-1.0014,-0.997,-0.9932,-1.0007,-0.9986,-0.9981,-1.004,-0.9938,-1.0083,-1.0276,-1.0333,-1.0418,-1.0709,-1.0396,-1.0211,-0.9975,-0.9444,-0.8846,-0.8763,-0.8456,-0.8324,-0.8105,-0.7577,-0.7139,-0.6877,-0.6263,-0.5688,-0.5688,-0.5688,-0.5688,-0.5688,-0.5688,-0.5825,-0.5966,-0.6048,-0.6184,-0.6331,-0.6371,-0.6379,-0.6387,-0.6387,-0.6387,-0.6187,-0.5937,-0.5384,-0.4632,-0.4079,-0.2772,-0.1462,-0.111,-0.0959,0.0,0.0,0.0,0.0,0.0,0.0,0.0,0.0,0.0,0.0,0.0,0.0,0.0,0.0,0.0,-1.9933,-1.9792,-1.9038,-1.8328,-1.7518,-1.6575,-1.5698,-1.5104,-1.4689,-1.4421,-1.4239,-1.4181,-1.3785,-1.339,-1.3068,-1.3044,-1.3112,-1.3259,-1.3273,-1.3266,-1.3266,-1.3229,-1.3193,-1.3309,-1.301,-1.2562,-1.2489,-1.1774,-1.0962,-1.0738,-1.0568,-1.0401,-1.034,-1.0487,-1.0935,-1.1112,-1.133,-1.1571,-1.1755,-1.1802,-1.1681,-1.1641,-1.1508,-1.1318,-1.1061,-1.0891,-1.0823,-1.0478,-1.028,-1.044,-1.0117,-1.0148,-1.0388,-1.0353,-1.0396,-1.0363,-1.0211,-1.0077,-1.0442,-1.0458,-1.0611,-1.0934,-1.0863,-1.0937,-1.0714,-1.0294,-0.9724,-0.9728,-0.9113,-0.8807,-0.8715,-0.7753,-0.7272,-0.6833,-0.6349,-0.5866,-0.5688,-0.5688,-0.5688,-0.5688,-0.5688,-0.5877,-0.6024,-0.6086,-0.6162,-0.6263,-0.6376,-0.6384,-0.6387,-0.6387,-0.6387,-0.6287,-0.6187,-0.5684,-0.5386,-0.4832,-0.3676,-0.2167,-0.1765,0.0,0.0,0.0,0.0,0.0,0.0,0.0,0.0,0.0,0.0,0.0,0.0,0.0,0.0,0.0,0.0,-2.1587,-2.1192,-2.0448,-1.9587,-1.8642,-1.7755,-1.7009,-1.6279,-1.5296,-1.4808,-1.4596,-1.413,-1.3785,-1.3607,-1.3295,-1.3255,-1.3389,-1.3525,-1.3492,-1.3528,-1.3521,-1.3492,-1.3455,-1.3499,-1.3309,-1.3156,-1.3046,-1.2709,-1.1892,-1.1173,-1.0872,-1.1254,-1.0746,-1.0766,-1.1473,-1.1525,-1.1633,-1.1886,-1.2135,-1.2284,-1.2206,-1.2064,-1.1933,-1.1834,-1.1305,-1.1194,-1.1093,-1.0686,-1.0637,-1.0813,-1.0567,-1.0483,-1.069,-1.0643,-1.0549,-1.0762,-1.0396,-1.0385,-1.0719,-1.0554,-1.0731,-1.1005,-1.115,-1.1171,-1.1203,-1.0954,-1.0646,-1.0689,-1.0342,-1.0077,-0.968,-0.8719,-0.8149,-0.7536,-0.6612,-0.5997,-0.5733,-0.5688,-0.5688,-0.5688,-0.5712,-0.5901,-0.6034,-0.6102,-0.6173,-0.6298,-0.6354,-0.6384,-0.6387,-0.6387,-0.6387,-0.6387,-0.6337,-0.6184,-0.6037,-0.5687,-0.4529,-0.3222,-0.2671,0.0,0.0,0.0,0.0,0.0,0.0,0.0,0.0,0.0,0.0,0.0,0.0,0.0,0.0,0.0,0.0,-2.3087,-2.2421,-2.1499,-2.0507,-1.9507,-1.8822,-1.8112,-1.7358,-1.6207,-1.5579,-1.5162,-1.4436,-1.3957,-1.3896,-1.3713,-1.3658,-1.3887,-1.3938,-1.3882,-1.3804,-1.3739,-1.3666,-1.3564,-1.3492,-1.3492,-1.3492,-1.3411,-1.3156,-1.2636,-1.1998,-1.1702,-1.2158,-1.1423,-1.1478,-1.204,-1.2343,-1.2416,-1.2457,-1.2559,-1.265,-1.2566,-1.2295,-1.2187,-1.196,-1.1623,-1.1289,-1.1351,-1.101,-1.0962,-1.1049,-1.0886,-1.0817,-1.0982,-1.0874,-1.0842,-1.0945,-1.0697,-1.0676,-1.0817,-1.0823,-1.0903,-1.1128,-1.1311,-1.1284,-1.13,-1.1311,-1.1267,-1.1176,-1.1132,-1.1132,-1.0959,-0.9728,-0.8894,-0.8017,-0.7095,-0.6346,-0.5774,-0.5733,-0.5738,-0.5702,-0.579,-0.5904,-0.6021,-0.6102,-0.6195,-0.6298,-0.6369,-0.6426,-0.6387,-0.6387,-0.6387,-0.6387,-0.6387,-0.6337,-0.6287,-0.5934,-0.4931,-0.4026,-0.3425,0.0,0.0,0.0,0.0,0.0,0.0,0.0,0.0,0.0,0.0,0.0,0.0,0.0,0.0,0.0,0.0,-2.4146,-2.3465,-2.2003,-2.097,-2.0174,-1.9229,-1.8513,-1.7941,-1.7294,-1.6867,-1.6472,-1.5517,-1.4854,-1.4729,-1.4432,-1.4263,-1.4454,-1.5083,-1.4937,-1.4681,-1.4502,-1.4194,-1.3949,-1.3739,-1.3593,-1.3557,-1.3521,-1.3455,-1.3309,-1.2709,-1.2329,-1.2101,-1.1981,-1.2542,-1.2994,-1.3217,-1.329,-1.3264,-1.3215,-1.2954,-1.2728,-1.2406,-1.2073,-1.186,-1.1441,-1.1122,-1.1152,-1.1091,-1.1208,-1.1343,-1.1192,-1.1166,-1.1321,-1.1164,-1.1169,-1.1181,-1.0999,-1.0993,-1.1064,-1.0919,-1.0903,-1.1144,-1.1311,-1.1311,-1.1311,-1.1311,-1.1311,-1.1311,-1.1311,-1.1311,-1.1003,-1.0381,-0.9379,-0.8588,-0.7665,-0.6745,-0.613,-0.5733,-0.5741,-0.5754,-0.5828,-0.5942,-0.6064,-0.621,-0.6252,-0.6355,-0.6382,-0.6387,-0.6387,-0.6387,-0.6387,-0.6387,-0.6387,-0.6387,-0.6387,-0.5784,-0.4931,-0.3875,-0.3071,-0.1865,0.0,0.0,0.0,0.0,0.0,0.0,0.0,0.0,0.0,0.0,0.0,0.0,0.0,0.0,0.0,-2.4225,-2.388,-2.263,-2.1652,-2.0893,-2.018,-1.957,-1.8958,-1.81,-1.7401,-1.7,-1.6293,-1.595,-1.5772,-1.5436,-1.5418,-1.5776,-1.5498,-1.5625,-1.5623,-1.5411,-1.5144,-1.476,-1.441,-1.4194,-1.4086,-1.3804,-1.3492,-1.3419,-1.3193,-1.3162,-1.2914,-1.2581,-1.2909,-1.3378,-1.3883,-1.4079,-1.4258,-1.4216,-1.4132,-1.3426,-1.2986,-1.2479,-1.1872,-1.1357,-1.1206,-1.1327,-1.1352,-1.1546,-1.1732,-1.1682,-1.1786,-1.1786,-1.1542,-1.146,-1.1445,-1.1207,-1.1149,-1.1214,-1.1026,-1.1025,-1.1193,-1.1311,-1.1311,-1.1311,-1.1311,-1.1311,-1.1311,-1.1311,-1.1311,-1.1176,-1.0472,-0.9641,-0.9069,-0.8281,-0.7316,-0.6577,-0.6142,-0.5827,-0.5857,-0.5885,-0.598,-0.6155,-0.6284,-0.6323,-0.6357,-0.6376,-0.6387,-0.6387,-0.6387,-0.6387,-0.6387,-0.6387,-0.6387,-0.6387,-0.5734,-0.4931,-0.3825,-0.2719,-0.1513,0.0,0.0,0.0,0.0,0.0,0.0,0.0,0.0,0.0,0.0,0.0,0.0,0.0,0.0,0.0,-2.4194,-2.397,-2.3117,-2.2339,-2.1678,-2.0978,-2.0489,-2.0067,-1.9206,-1.8359,-1.7699,-1.7251,-1.6899,-1.6694,-1.6377,-1.6352,-1.6623,-1.6534,-1.6484,-1.6408,-1.6239,-1.5974,-1.5597,-1.5251,-1.4931,-1.4752,-1.4222,-1.3876,-1.3905,-1.3637,-1.3441,-1.3212,-1.2974,-1.3285,-1.3743,-1.4252,-1.4537,-1.4821,-1.4918,-1.5072,-1.4351,-1.4001,-1.3373,-1.2715,-1.2389,-1.2222,-1.2376,-1.2504,-1.2639,-1.2641,-1.2542,-1.2415,-1.2234,-1.198,-1.178,-1.1595,-1.1449,-1.1277,-1.1246,-1.1198,-1.1171,-1.1284,-1.1311,-1.1311,-1.1311,-1.1311,-1.1311,-1.1311,-1.1311,-1.1267,-1.1267,-1.0738,-1.0168,-0.9641,-0.9113,-0.8197,-0.7214,-0.6611,-0.6187,-0.5968,-0.6024,-0.61,-0.6168,-0.6295,-0.6358,-0.6373,-0.6379,-0.6387,-0.6387,-0.6387,-0.6387,-0.6387,-0.6387,-0.6387,-0.6387,-0.5484,-0.463,-0.3574,-0.2468,-0.1361,0.0,0.0,0.0,0.0,0.0,0.0,0.0,0.0,0.0,0.0,0.0,0.0,0.0,0.0,0.0,-2.4204,-2.379,-2.3494,-2.3024,-2.248,-2.151,-2.1099,-2.1026,-2.0521,-1.9863,-1.9044,-1.8271,-1.7644,-1.7305,-1.7087,-1.7147,-1.7372,-1.7585,-1.7557,-1.7181,-1.7205,-1.6631,-1.6147,-1.5869,-1.5834,-1.5534,-1.4966,-1.4573,-1.4466,-1.3985,-1.3666,-1.363,-1.3565,-1.3599,-1.4033,-1.4294,-1.4586,-1.4874,-1.4951,-1.5198,-1.5189,-1.5003,-1.4444,-1.3842,-1.381,-1.3617,-1.3406,-1.3863,-1.3914,-1.3521,-1.3609,-1.3339,-1.2672,-1.2378,-1.2112,-1.1897,-1.1725,-1.1548,-1.1343,-1.1289,-1.1295,-1.13,-1.1311,-1.1311,-1.1311,-1.1311,-1.1311,-1.1311,-1.1311,-1.1311,-1.1267,-1.1176,-1.0651,-1.0255,-0.9728,-0.9078,-0.8095,-0.7017,-0.6636,-0.6371,-0.6267,-0.6265,-0.6298,-0.6347,-0.6399,-0.6384,-0.6387,-0.6387,-0.6387,-0.6387,-0.6387,-0.6387,-0.6387,-0.6387,-0.6237,-0.5233,-0.4329,-0.3323,-0.2167,-0.1009,0.0,0.0,0.0,0.0,0.0,0.0,0.0,0.0,0.0,0.0,0.0,0.0,0.0,0.0,0.0,-2.5047,-2.491,-2.4812,-2.4496,-2.3966,-2.2988,-2.2354,-2.1885,-2.0999,-2.0169,-1.9566,-1.9016,-1.8655,-1.832,-1.8075,-1.8045,-1.8253,-1.7794,-1.7739,-1.8361,-1.8281,-1.8037,-1.7502,-1.7064,-1.6876,-1.6367,-1.5737,-1.5029,-1.4565,-1.433,-1.4258,-1.4222,-1.4209,-1.4138,-1.4208,-1.4505,-1.5039,-1.549,-1.585,-1.6142,-1.5892,-1.5791,-1.545,-1.4648,-1.4675,-1.4604,-1.4313,-1.4961,-1.4918,-1.4547,-1.4676,-1.4497,-1.3923,-1.362,-1.3033,-1.2619,-1.2326,-1.157,-1.1397,-1.1305,-1.1305,-1.1311,-1.1311,-1.1311,-1.1311,-1.1311,-1.1311,-1.1311,-1.1311,-1.1311,-1.1267,-1.1273,-1.0965,-1.0824,-1.0342,-0.9816,-0.8932,-0.7811,-0.7054,-0.6917,-0.6801,-0.6448,-0.6369,-0.6377,-0.642,-0.6387,-0.6387,-0.6387,-0.6387,-0.6387,-0.6387,-0.6387,-0.6387,-0.6387,-0.6087,-0.5133,-0.4429,-0.3626,-0.2066,-0.0454,0.0,0.0,0.0,0.0,0.0,0.0,0.0,0.0,0.0,0.0,0.0,0.0,0.0,0.0,0.0,-2.5633,-2.5503,-2.5519,-2.5351,-2.4985,-2.409,-2.3311,-2.2606,-2.1687,-2.0855,-2.0245,-1.9965,-1.9539,-1.9095,-1.8905,-1.8876,-1.9017,-1.8554,-1.8338,-1.9046,-1.8909,-1.8665,-1.8489,-1.8281,-1.7874,-1.7338,-1.6611,-1.5842,-1.5517,-1.5136,-1.4994,-1.4966,-1.4966,-1.4656,-1.4533,-1.4606,-1.4865,-1.5285,-1.5728,-1.6283,-1.6265,-1.6323,-1.6261,-1.5769,-1.5612,-1.574,-1.558,-1.564,-1.5867,-1.5767,-1.5725,-1.5718,-1.5304,-1.4803,-1.4041,-1.3415,-1.2412,-1.1656,-1.1354,-1.1311,-1.1311,-1.1311,-1.1311,-1.1311,-1.1311,-1.1311,-1.1311,-1.1311,-1.1316,-1.137,-1.1407,-1.1402,-1.1385,-1.121,-1.1097,-1.0568,-0.9762,-0.8639,-0.7752,-0.7567,-0.6861,-0.659,-0.6363,-0.6371,-0.6384,-0.6387,-0.6387,-0.6387,-0.6387,-0.6387,-0.6387,-0.6387,-0.6387,-0.6387,-0.5984,-0.5081,-0.4379,-0.3827,-0.2368,-0.0656,0.0,0.0,0.0,0.0,0.0,0.0,0.0,0.0,0.0,0.0,0.0,0.0,0.0,0.0,0.0,-2.5926,-2.5596,-2.5577,-2.5596,-2.5411,-2.4772,-2.3954,-2.3172,-2.283,-2.2137,-2.1248,-2.0955,-2.0371,-1.9617,-1.9483,-1.9403,-1.9295,-1.9051,-1.9085,-1.9046,-1.9017,-1.906,-1.9049,-1.8839,-1.8757,-1.8488,-1.7906,-1.7214,-1.6853,-1.6123,-1.5781,-1.5675,-1.5666,-1.53,-1.4928,-1.453,-1.4539,-1.4858,-1.5413,-1.5929,-1.6147,-1.6862,-1.6682,-1.6473,-1.673,-1.6861,-1.6911,-1.7097,-1.7122,-1.6952,-1.6731,-1.6247,-1.5801,-1.547,-1.4713,-1.3789,-1.254,-1.1903,-1.1602,-1.1559,-1.1311,-1.1311,-1.1311,-1.1311,-1.1311,-1.1311,-1.1311,-1.1337,-1.1359,-1.1488,-1.1618,-1.1666,-1.1709,-1.1734,-1.1876,-1.1267,-1.0534,-0.9611,-0.8729,-0.7959,-0.6984,-0.6517,-0.6426,-0.6387,-0.6387,-0.6387,-0.6387,-0.6387,-0.6387,-0.6387,-0.6387,-0.6387,-0.6387,-0.6387,-0.5834,-0.5131,-0.468,-0.4228,-0.3022,-0.1563,-0.1312,-0.0808,0.0,0.0,0.0,0.0,0.0,0.0,0.0,0.0,0.0,0.0,0.0,0.0,0.0,-2.7159,-2.7049,-2.6807,-2.6556,-2.6195,-2.5489,-2.476,-2.4081,-2.3661,-2.3018,-2.2312,-2.1889,-2.1234,-2.0421,-2.0384,-1.9991,-1.9617,-1.938,-1.9522,-1.9505,-1.9497,-1.9762,-1.9807,-1.9719,-1.9752,-1.9587,-1.9191,-1.8439,-1.7648,-1.6904,-1.6228,-1.5807,-1.6332,-1.6018,-1.5455,-1.4788,-1.456,-1.4533,-1.5117,-1.5536,-1.603,-1.6695,-1.6716,-1.694,-1.7257,-1.7417,-1.751,-1.7696,-1.7715,-1.7659,-1.7619,-1.7367,-1.7335,-1.6665,-1.5827,-1.4664,-1.3493,-1.2607,-1.2394,-1.1768,-1.1354,-1.1354,-1.1311,-1.1311,-1.1311,-1.1311,-1.1311,-1.1337,-1.1445,-1.1628,-1.1774,-1.1849,-1.1914,-1.2051,-1.2132,-1.1861,-1.1037,-1.0023,-0.916,-0.8007,-0.7029,-0.6526,-0.6437,-0.6387,-0.6387,-0.6387,-0.6387,-0.6387,-0.6387,-0.6387,-0.6387,-0.6387,-0.6387,-0.6387,-0.6087,-0.5434,-0.5083,-0.4531,-0.3475,-0.2519,-0.1965,-0.1462,-0.0858,0.0,0.0,0.0,0.0,0.0,0.0,0.0,0.0,0.0,0.0,0.0,0.0,-2.7686,-2.7642,-2.7446,-2.7195,-2.6905,-2.6471,-2.595,-2.5349,-2.4654,-2.3893,-2.3098,-2.278,-2.217,-2.1403,-2.1272,-2.0944,-2.0309,-2.0118,-2.0105,-2.0105,-2.0122,-2.0362,-2.0486,-2.0344,-2.0211,-2.0228,-2.0005,-1.9231,-1.8632,-1.8065,-1.7429,-1.7223,-1.7413,-1.6862,-1.6341,-1.5842,-1.5384,-1.5083,-1.5061,-1.5328,-1.5838,-1.6405,-1.6675,-1.6991,-1.7347,-1.7531,-1.7711,-1.7986,-1.8006,-1.7991,-1.7991,-1.7991,-1.7829,-1.7115,-1.6527,-1.5413,-1.4336,-1.3613,-1.3197,-1.2357,-1.1897,-1.1645,-1.1478,-1.1311,-1.1311,-1.1311,-1.1311,-1.1332,-1.1525,-1.1741,-1.1892,-1.2073,-1.2159,-1.2245,-1.2294,-1.2343,-1.1402,-1.0314,-0.9216,-0.8087,-0.726,-0.6617,-0.6387,-0.6387,-0.6387,-0.6387,-0.6387,-0.6387,-0.6387,-0.6387,-0.6387,-0.6387,-0.6387,-0.6387,-0.6037,-0.5837,-0.5636,-0.5233,-0.4531,-0.3626,-0.282,-0.1915,-0.116,0.0,0.0,0.0,0.0,0.0,0.0,0.0,0.0,0.0,0.0,0.0,0.0,-2.776,-2.7698,-2.7587,-2.7482,-2.7496,-2.7315,-2.7046,-2.6758,-2.5784,-2.4725,-2.3872,-2.364,-2.3091,-2.2363,-2.2216,-2.187,-2.1321,-2.0993,-2.0906,-2.0721,-2.0474,-2.072,-2.0989,-2.0486,-2.0791,-2.0677,-2.0423,-2.0167,-1.9976,-1.9365,-1.8857,-1.9054,-1.8519,-1.7969,-1.7379,-1.7026,-1.6602,-1.6184,-1.562,-1.5474,-1.5898,-1.6318,-1.6627,-1.7076,-1.7457,-1.7791,-1.806,-1.8126,-1.8072,-1.8072,-1.8031,-1.8031,-1.774,-1.7408,-1.6862,-1.6281,-1.533,-1.4789,-1.4161,-1.333,-1.2741,-1.232,-1.186,-1.165,-1.1607,-1.1348,-1.1311,-1.1354,-1.1564,-1.1785,-1.1997,-1.2161,-1.2301,-1.2409,-1.2543,-1.2548,-1.2082,-1.0644,-0.8881,-0.7794,-0.688,-0.6382,-0.6391,-0.6388,-0.6387,-0.6387,-0.6387,-0.6387,-0.6387,-0.6387,-0.6387,-0.6387,-0.6387,-0.6387,-0.6337,-0.6187,-0.6287,-0.5887,-0.5286,-0.4734,-0.3927,-0.272,-0.1412,0.0,0.0,0.0,0.0,0.0,0.0,0.0,0.0,0.0,0.0,0.0,0.0,-2.8375,-2.8281,-2.7423,-2.7232,-2.7389,-2.6854,-2.6851,-2.7145,-2.6953,-2.6092,-2.5115,-2.4641,-2.4055,-2.3274,-2.3113,-2.2727,-2.2044,-2.1846,-2.1894,-2.1667,-2.1307,-2.143,-2.198,-2.1394,-2.1628,-2.2078,-2.1913,-2.1226,-2.0871,-2.0312,-1.9824,-1.9813,-1.9485,-1.9077,-1.8499,-1.8176,-1.7745,-1.7423,-1.6802,-1.6307,-1.658,-1.6902,-1.7243,-1.7687,-1.8079,-1.8457,-1.8737,-1.8827,-1.878,-1.8714,-1.8241,-1.808,-1.7951,-1.7789,-1.7668,-1.7416,-1.6494,-1.591,-1.533,-1.4455,-1.3704,-1.3245,-1.2826,-1.2363,-1.1983,-1.1559,-1.1375,-1.1435,-1.1564,-1.1795,-1.2062,-1.2248,-1.2457,-1.2587,-1.2759,-1.2684,-1.2603,-1.0686,-0.8646,-0.7518,-0.66,-0.6372,-0.6383,-0.6372,-0.6418,-0.6387,-0.6387,-0.6387,-0.6387,-0.6387,-0.6387,-0.6387,-0.6387,-0.6387,-0.6387,-0.6387,-0.6387,-0.6387,-0.5937,-0.5436,-0.4935,-0.3776,-0.2519,-0.1764,0.0,-0.0908,-0.0555,0.0,0.0,0.0,0.0,0.0,0.0,0.0,0.0,-2.8574,-2.8446,-2.7427,-2.7098,-2.7187,-2.6792,-2.6953,-2.7417,-2.7489,-2.7017,-2.6213,-2.5621,-2.4945,-2.4205,-2.4002,-2.3505,-2.2786,-2.2506,-2.2383,-2.2267,-2.2249,-2.2287,-2.227,-2.2192,-2.2535,-2.2976,-2.307,-2.2603,-2.1875,-2.1342,-2.0962,-2.0558,-2.0344,-1.9998,-1.9529,-1.9222,-1.89,-1.8707,-1.807,-1.7861,-1.7637,-1.761,-1.7702,-1.8134,-1.8601,-1.8995,-1.935,-1.9427,-1.9246,-1.8913,-1.8322,-1.808,-1.7991,-1.7951,-1.7951,-1.7789,-1.7286,-1.6837,-1.6419,-1.5587,-1.4545,-1.421,-1.3464,-1.2881,-1.2705,-1.2283,-1.1602,-1.1625,-1.1575,-1.1795,-1.1935,-1.214,-1.2355,-1.2517,-1.2544,-1.2544,-1.2006,-1.0747,-0.8973,-0.7515,-0.6885,-0.6772,-0.6657,-0.638,-0.6371,-0.6387,-0.6387,-0.6387,-0.6387,-0.6387,-0.6387,-0.6387,-0.6387,-0.6387,-0.6387,-0.6387,-0.6387,-0.6387,-0.6387,-0.5787,-0.5085,-0.4481,-0.3676,-0.2821,-0.2167,-0.1765,-0.1311,-0.0858,-0.0252,0.0,0.0,0.0,0.0,0.0,0.0,-2.8269,-2.8103,-2.7184,-2.6836,-2.6848,-2.6835,-2.7098,-2.7542,-2.7707,-2.758,-2.7211,-2.6522,-2.5896,-2.5262,-2.4779,-2.421,-2.3728,-2.3333,-2.3054,-2.2875,-2.2694,-2.2772,-2.2783,-2.28,-2.3042,-2.3415,-2.3697,-2.3389,-2.2832,-2.2219,-2.1578,-2.1178,-2.0803,-2.0431,-2.0431,-2.0291,-2.0031,-1.9649,-1.9349,-1.9536,-1.8988,-1.8275,-1.8459,-1.8722,-1.9057,-1.9411,-1.9918,-1.9982,-1.9717,-1.9213,-1.8714,-1.8353,-1.8152,-1.8112,-1.7991,-1.787,-1.7708,-1.7465,-1.7139,-1.6173,-1.5594,-1.5054,-1.4104,-1.3519,-1.3385,-1.2918,-1.224,-1.1976,-1.1932,-1.1759,-1.1894,-1.1989,-1.2204,-1.2382,-1.2363,-1.2251,-1.1449,-1.0749,-0.9341,-0.779,-0.7557,-0.7369,-0.6958,-0.6642,-0.6515,-0.6531,-0.6437,-0.6387,-0.6387,-0.6387,-0.6387,-0.6387,-0.6387,-0.6387,-0.6387,-0.6387,-0.6387,-0.6387,-0.6337,-0.5787,-0.5336,-0.5133,-0.463,-0.3776,-0.3173,-0.2821,-0.2368,-0.1865,-0.121,-0.0555,0.0,0.0,0.0,0.0,0.0,-2.6969,-2.6652,-2.5819,-2.5695,-2.5999,-2.6032,-2.644,-2.7197,-2.7828,-2.7979,-2.7725,-2.747,-2.6853,-2.5842,-2.5652,-2.5205,-2.4665,-2.4225,-2.4042,-2.3952,-2.3384,-2.326,-2.3252,-2.3304,-2.3215,-2.362,-2.4079,-2.3891,-2.3328,-2.2613,-2.2129,-2.1893,-2.1913,-2.151,-2.0974,-2.091,-2.0858,-2.0452,-2.0346,-2.0446,-2.0525,-2.0014,-1.9779,-2.0051,-2.0478,-2.0887,-2.1165,-2.0944,-2.0712,-2.0235,-1.946,-1.8944,-1.8634,-1.8393,-1.8193,-1.8121,-1.7959,-1.7838,-1.7375,-1.6681,-1.618,-1.6023,-1.511,-1.423,-1.3977,-1.3597,-1.3094,-1.2845,-1.2608,-1.1921,-1.1865,-1.184,-1.1973,-1.2102,-1.2185,-1.1703,-1.1069,-1.0605,-0.9826,-0.9025,-0.8606,-0.8171,-0.7526,-0.7279,-0.7117,-0.693,-0.6484,-0.6437,-0.6387,-0.6387,-0.6387,-0.6387,-0.6387,-0.6387,-0.6387,-0.6387,-0.6387,-0.6387,-0.6387,-0.6087,-0.5987,-0.6137,-0.5632,-0.478,-0.4329,-0.4028,-0.3524,-0.2871,-0.2267,-0.1664,-0.1462,0.0,0.0,0.0,0.0]},{"header":{"parameterUnit":"m.s-1","parameterCategory":1,"la1":31.0,"la2":29.5877,"lo1":-88.7671,"lo2":-86.6584,"dy":0.0162,"dx":0.0185,"nx":115,"ny":88,"refTime":"2023-08-31T12:00:00:Z","depth":0,"parameterNumber":3,"parameterNumberName":"V-component_of_WINDS"},"data":[0.0,0.0,0.0,0.0,0.0,0.0,0.0,0.0,0.0,0.0,0.0,0.0,0.0,0.0,0.0,0.0,0.0,0.0,0.0,0.0,0.0,0.0,0.0,0.0,0.0,0.0,0.0,0.0,0.0,0.0,0.0,0.0,0.0,0.0,0.0,0.0,0.0,0.0,0.0,0.0,0.0,0.0,0.0,0.0,0.0,0.0,0.0,0.0,0.0,0.0,0.0,0.0,0.0,0.0,0.0,0.0,0.0,0.0,0.0,0.0,0.0,0.0,0.0,0.0,0.0,0.0,0.0,0.0,0.0,0.0,0.0,0.0,0.0,0.0,0.0,0.0,0.0,0.0,0.0,0.0,0.0,0.0,0.0,0.0,0.0,0.0,0.0,0.0,0.0,0.0,0.0,0.0,0.0,0.0,0.0,0.0,0.0,0.0,0.0,0.0,0.0,0.0,0.0,0.0,0.0,0.0,0.0,0.0,0.0,0.0,0.0,0.0,0.0,0.0,0.0,0.0,0.0,0.0,0.0,0.0,0.0,0.0,0.0,0.0,0.0,0.0,0.0,0.0,0.0,0.0,0.0,0.0,0.0,0.0,0.0,0.0,0.0,0.0,0.0,0.0,0.0,0.0,0.0,0.0,0.0,0.0,0.0,0.0,0.0,0.0,0.0,0.0,0.0,0.0,0.0,0.0,0.0,0.0,0.0,0.0,0.0,0.0,0.0,0.0,0.0,0.0,0.0,0.0,0.0,0.0,0.0,0.0,0.0,0.0,0.0,0.0,0.0,0.0,0.0,0.0,0.0,0.0,0.0,0.0,0.0,0.0,0.0,0.0,0.0,0.0,0.0,0.0,0.0,0.0,0.0,0.0,0.0,0.0,0.0,0.0,0.0,0.0,0.0,0.0,0.0,0.0,0.0,0.0,0.0,0.0,0.0,0.0,0.0,0.0,0.0,0.0,0.0,0.0,0.0,0.0,0.0,0.0,0.0,0.0,0.0,0.0,0.0,0.0,0.0,0.0,0.0,0.0,0.0,0.0,0.0,0.0,0.0,0.0,0.0,0.0,0.0,0.0,0.0,0.0,0.0,0.0,0.0,0.0,0.0,0.0,0.0,0.0,0.0,0.0,0.0,0.0,0.0,0.0,0.0,0.0,0.0,0.0,0.0,0.0,0.0,0.0,0.0,0.0,0.0,0.0,0.0,0.0,0.0,0.0,0.0,0.0,0.0,0.0,0.0,0.0,0.0,0.0,0.0,0.0,0.0,0.0,0.0,0.0,0.0,0.0,0.0,0.0,0.0,0.0,0.0,0.0,0.0,0.0,0.0,0.0,0.0,0.0,0.0,0.0,0.0,0.0,0.0,0.0,0.0,0.0,0.0,0.0,0.0,0.0,0.0,0.0,0.0,0.0,0.0,0.0,0.0,0.0,0.0,0.0,0.0,0.0,0.0,0.0,0.0,0.0,0.0,0.0,0.0,0.0,0.0,0.0,0.0,0.0,0.0,0.0,0.0,0.0,0.0,0.0,0.0,0.0,0.0,0.0,0.0,0.0,0.0,0.0,0.0,0.0,0.0,0.0,0.0,0.0,0.0,0.0,0.0,0.0,0.0,0.0,0.0,0.0,0.0,0.0,0.0,0.0,0.0,0.0,0.0,0.0,0.0,0.0,0.0,0.0,0.0,0.0,0.0,0.0,0.0,0.0,0.0,0.0,0.0,0.0,0.0,0.0,0.0,0.0,0.0,0.0,0.0,0.0,0.0,0.0,0.0,0.0,0.0,0.0,0.0,0.0,0.0,0.0,0.0,0.0,0.0,0.0,0.0,0.0,0.0,0.0,0.0,0.0,0.0,0.0,0.0,0.0,0.0,0.0,0.0,0.0,0.0,0.0,0.0,0.0,0.0,0.0,0.0,0.0,0.0,0.0,0.0,0.0,0.0,0.0,0.0,0.0,0.0,0.0,0.0,0.0,0.0,0.0,0.0,0.0,0.0,0.0,0.0,0.0,0.0,0.0,0.0,0.0,0.0,0.0,0.0,0.0,0.0,0.0,0.0,0.0,0.0,0.0,0.0,0.0,0.0,0.0,0.0,0.0,0.0,0.0,0.0,0.0,0.0,0.0,0.0,0.0,0.0,0.0,0.0,0.0,0.0,0.0,0.0,0.0,0.0,0.0,0.0,0.0,0.0,0.0,0.0,0.0,0.0,0.0,0.0,0.0,0.0,0.0,0.0,0.0,0.0,0.0,0.0,0.0,0.0,0.0,0.0,0.0,0.0,0.0,0.0,0.0,0.0,0.0,0.0,0.0,0.0,0.0,0.0,0.0,0.0,0.0,0.0,0.0,0.0,0.0,0.0,0.0,0.0,0.0,0.0,0.0,0.0,0.0,0.0,0.0,0.0,0.0,0.0,0.0,0.0,0.0,0.0,0.0,0.0,0.0,0.0,0.0,0.0,0.0,0.0,0.0,0.0,0.0,0.0,0.0,0.0,0.0,0.0,0.0,0.0,0.0,0.0,0.0,0.0,0.0,0.0,0.0,0.0,0.0,0.0,0.0,0.0,0.0,0.0,0.0,0.0,0.0,0.0,0.0,0.0,0.0,0.0,0.0,0.0,0.0,0.0,0.0,0.0,0.0,0.0,0.0,0.0,0.0,0.0,0.0,0.0,0.0,0.0,0.0,0.0,0.0,0.0,0.0,0.0,0.0,0.0,0.0,0.0,0.0,0.0,0.0,0.0,0.0,0.0,0.0,0.0,0.0,0.0,0.0,0.0,0.0,0.0,0.0,0.0,0.0,0.0,0.0,0.0,0.0,0.0,0.0,0.0,0.0,0.0,0.0,0.0,0.0,0.0,0.0,0.0,0.0,0.0,0.0,0.0,0.0,0.0,0.0,0.0,0.0,0.0,0.0,0.0,0.0,0.0,0.0,0.0,0.0,0.0,0.0,0.0,0.0,0.0,0.0,0.0,0.0,0.0,0.0,0.0,0.0,0.0,0.0,0.0,0.0,0.0,0.0,0.0,0.0,0.0,0.0,0.0,0.0,0.0,0.0,0.0,0.0,0.0,0.0,0.0,0.0,0.0,0.0,0.0,0.0,0.0,0.0,0.0,0.0,0.0,0.0,0.0,0.0,0.0,0.0,0.0,0.0,0.0,0.0,0.0,0.0,0.0,0.0,0.0,0.0,0.0,0.0,0.0,0.0,0.0,0.0,0.0,0.0,0.0,0.0,0.0,0.0,0.0,0.0,0.0,0.0,0.0,0.0,0.0,0.0,0.0,0.0,0.0,0.0,0.0,0.0,0.0,0.0,0.0,0.0,0.0,0.0,0.0,0.0,0.0,0.0,0.0,0.0,0.0,0.0,0.0,0.0,0.0,0.0,0.0,0.0,0.0,0.0,0.0,0.0,0.0,0.0,0.0,0.0,0.0,0.0,0.0,0.0,0.0,0.0,0.0,0.0,0.0,0.0,0.0,0.0,0.0,0.0,0.0,0.0,0.0,0.0,0.0,0.0,0.0,0.0,0.0,0.0,0.0,0.0,0.0,0.0,0.0,0.0,0.0,0.0,0.0,0.0,0.0,0.0,0.0,0.0,0.0,0.0,0.0,0.0,0.0,0.0,0.0,0.0,0.0,0.0,0.0,0.0,0.0,0.0,0.0,0.0,0.0,0.0,0.0,0.0,0.0,0.0,0.0,0.0,0.0,0.0,0.0,0.0,0.0,0.0,0.0,0.0,0.0,0.0,0.0,0.0,0.0,0.0,0.0,0.0,0.0,0.0,0.0,0.0,0.0,0.0,0.0,0.0,0.0,0.0,0.0,0.0,0.0,0.0,0.0,0.0,0.0,0.0,0.0,0.0,0.0,0.0,0.0,0.0,0.0,0.0,0.0,0.0,0.0,0.0,0.0,0.0,0.0,0.0,0.0,0.0,0.0,0.0,0.0,0.0,0.0,0.0,0.0,0.0,0.0,0.0,0.0,0.0,0.0,0.0,0.0,0.0,0.0,0.0,0.0,0.0,0.0,0.0,0.0,0.0,0.0,0.0,0.0,0.0,0.0,0.0,0.0,0.0,0.0,0.0,0.0,0.0,0.0,0.0,0.0,0.0,0.0,0.0,0.0,0.0,0.0,0.0,0.0,0.0,0.0,0.0,0.0,0.0,0.0,0.0,0.0,0.0,0.0,0.0,0.0,0.0,0.0,0.0,0.0,0.0,0.0,0.0,0.0,0.0,0.0,0.0,0.0,0.0,0.0,0.0,0.0,0.0,0.0,0.0,0.0,0.0,1.2543,0.0,0.0,0.0,0.0,0.0,0.0,0.0,0.0,0.0,0.0,0.0,0.0,0.0,0.0,0.0,0.0,0.0,0.0,0.0,0.0,0.0,0.0,0.0,0.0,0.0,0.0,0.0,0.0,0.0,0.0,0.0,0.0,0.0,0.0,0.0,0.0,0.0,0.0,0.0,0.0,0.0,0.0,0.0,0.0,0.0,0.0,0.0,0.0,0.0,0.0,0.0,0.0,0.0,0.0,0.0,0.0,0.0,0.0,0.0,0.0,0.0,0.0,0.0,0.0,0.0,0.0,0.0,0.0,0.0,0.0,0.0,0.0,0.0,0.0,0.0,0.0,0.0,0.0,0.0,0.0,0.0,0.0,0.0,0.0,0.0,0.0,0.0,0.0,0.0,0.0,0.0,0.0,0.0,0.0,0.0,0.0,0.0,0.0,0.0,0.0,0.0,0.0,0.0,0.0,0.0,0.0,0.0,0.0,0.0,0.0,1.0361,1.1286,1.2145,1.2615,1.2661,0.0,0.0,0.0,0.0,0.0,0.0,0.0,0.0,0.0,0.0,0.0,0.0,0.0,0.0,0.0,0.0,0.0,0.0,0.0,0.0,0.0,0.0,0.0,0.0,0.0,0.0,0.0,0.0,0.0,0.0,0.0,0.0,0.0,0.0,0.0,0.0,0.0,0.0,0.0,0.0,0.0,0.0,0.0,0.0,0.0,0.0,0.0,0.0,0.0,0.0,0.0,0.0,0.0,0.0,0.0,0.0,0.0,0.0,0.0,0.0,0.0,0.0,0.0,0.0,0.0,0.0,0.0,0.0,0.0,0.0,0.0,0.0,0.0,0.0,0.0,0.0,0.0,0.0,0.0,0.0,0.0,0.0,0.0,0.0,0.0,0.0,0.0,0.0,0.0,0.0,0.0,0.0,0.0,0.0,0.0,0.0,0.0,0.0,0.0,0.0,0.0,0.0,0.0,0.0,0.0,0.0,0.0,0.0,0.0,0.0,0.0,0.0,1.2915,1.3291,1.3495,0.0,0.0,0.0,0.0,0.0,0.0,0.0,0.0,0.0,0.0,0.0,0.0,0.0,0.0,0.0,0.0,0.0,0.0,0.0,0.0,0.0,0.0,0.0,0.0,0.0,0.0,0.0,0.0,0.0,0.0,0.0,0.0,0.0,0.0,0.0,0.0,0.0,0.0,0.0,0.0,0.0,0.0,0.0,0.0,0.0,0.0,0.0,0.0,0.0,0.0,0.0,0.0,0.0,0.0,0.0,0.0,0.0,0.0,0.0,0.0,0.0,0.0,0.0,0.0,0.0,0.0,0.0,0.0,0.0,0.0,0.0,0.0,0.0,0.0,0.0,0.0,0.0,0.0,0.0,0.0,0.0,0.0,0.0,0.0,0.0,0.0,0.0,0.0,0.0,0.0,0.0,0.0,0.0,0.0,0.0,0.0,0.0,0.0,0.0,0.0,0.0,0.0,0.0,0.0,0.0,0.0,0.0,0.0,0.0,0.0,1.1849,1.5693,1.5251,0.0,1.6115,0.0,0.0,0.0,0.0,0.0,0.0,0.0,0.0,0.0,0.0,0.0,0.0,0.0,0.0,0.0,0.0,0.0,0.0,0.0,0.0,0.0,0.0,0.0,0.0,0.0,0.0,0.0,0.0,0.0,0.0,0.0,0.0,0.0,0.0,0.0,0.0,0.0,0.0,0.0,0.0,0.0,0.0,0.0,0.0,0.0,0.0,0.0,0.0,0.0,0.0,0.0,0.0,0.0,0.0,0.0,0.0,0.0,0.0,0.0,0.0,0.0,0.0,0.0,0.0,0.0,0.0,0.0,0.0,0.0,0.0,0.0,0.0,0.0,0.0,0.0,0.0,0.0,0.0,0.0,0.0,0.0,0.0,0.0,0.0,0.0,0.0,0.0,0.0,0.0,0.0,0.0,0.0,0.0,0.0,0.0,0.0,0.0,0.0,0.0,0.0,0.0,0.0,0.0,0.0,0.0,0.0,0.0,0.0,0.0,0.0,1.2873,1.4547,1.4866,1.5438,0.0,0.0,0.0,0.0,0.0,0.0,0.0,0.0,0.0,0.0,0.0,0.0,0.0,0.0,0.0,0.0,0.0,0.0,0.0,0.0,0.0,0.0,0.0,0.0,0.0,0.0,0.0,0.0,0.0,0.0,0.0,0.0,0.0,0.0,0.0,0.0,0.0,0.0,0.0,0.0,0.0,0.0,0.0,0.0,0.0,0.0,0.0,0.0,0.0,0.0,0.0,0.0,0.0,0.0,0.0,0.0,0.0,0.0,0.0,0.0,0.0,0.0,0.0,0.0,0.0,0.0,0.0,0.0,0.0,0.0,0.0,0.0,0.0,0.0,0.0,0.0,0.0,0.0,0.0,0.0,0.0,0.0,0.0,0.0,0.0,0.0,0.0,0.0,0.0,0.0,0.0,0.0,0.0,0.0,0.0,0.0,0.0,0.0,0.0,0.0,0.0,0.0,0.0,0.0,0.0,0.0,0.0,0.0,0.0,0.0,1.3214,1.384,1.4495,1.5432,1.5824,1.5542,0.0,0.0,0.0,0.0,0.0,0.0,0.0,0.0,0.0,0.0,0.0,0.0,0.0,0.0,0.0,0.0,0.0,0.0,0.0,0.0,0.0,0.0,0.0,0.0,0.0,0.0,0.0,0.0,0.0,0.0,0.0,0.0,0.0,0.0,0.0,0.0,0.0,0.0,0.0,0.0,0.0,0.0,0.0,0.0,0.0,0.0,0.0,0.0,0.0,0.0,0.0,0.0,0.0,0.0,0.0,0.0,0.0,0.0,0.0,0.0,0.0,0.0,0.0,0.0,0.0,0.0,0.0,0.0,0.0,0.0,0.0,0.0,0.0,0.0,0.0,0.0,0.0,0.0,0.0,0.0,0.0,0.0,0.0,0.0,0.0,0.0,0.0,0.0,0.0,0.0,0.0,0.0,0.0,0.0,0.0,0.0,0.0,0.0,0.0,0.0,0.0,0.0,0.0,0.0,0.0,0.0,0.0,0.0,1.8804,1.5513,1.4756,1.7136,1.8055,1.7079,0.0,0.0,0.0,0.0,0.0,0.0,0.0,0.0,0.0,0.0,0.0,0.0,0.0,0.0,0.0,0.0,0.0,0.0,0.0,0.0,0.0,0.0,0.0,0.0,0.0,0.0,0.0,0.0,0.0,0.0,0.0,0.0,0.0,0.0,0.0,0.0,0.0,0.0,0.0,0.0,0.0,0.0,0.0,0.0,0.0,0.0,0.0,0.0,0.0,0.0,0.0,0.0,0.0,0.0,0.0,0.0,0.0,0.0,0.0,0.0,0.0,0.0,0.0,0.0,0.0,0.0,0.0,0.0,0.0,0.0,0.0,0.0,0.0,0.0,0.0,0.0,0.0,0.0,0.0,0.0,0.0,0.0,0.0,0.0,0.0,0.0,0.0,0.0,0.0,0.0,0.0,0.0,0.0,0.0,0.0,0.0,0.0,0.0,0.0,0.0,0.0,0.0,0.0,0.0,0.0,0.0,0.0,0.0,0.0,1.3317,1.3379,1.5386,1.9276,1.683,1.5546,0.0,0.0,0.0,0.0,0.0,0.0,0.0,0.0,0.0,0.0,0.0,0.0,0.0,0.0,0.0,0.0,0.0,0.0,0.0,0.0,0.0,0.0,0.0,0.0,0.0,0.0,0.0,0.0,0.0,0.0,0.0,0.0,0.0,0.0,0.0,0.0,0.0,0.0,0.0,0.0,0.0,0.0,0.0,0.0,0.0,0.0,0.0,0.0,0.0,0.0,0.0,0.0,0.0,0.0,0.0,0.0,0.0,0.0,0.0,0.0,0.0,0.0,0.0,0.0,0.0,0.0,0.0,0.0,0.0,0.0,0.0,0.0,0.0,0.0,0.0,0.0,0.0,0.0,0.0,0.0,0.0,0.0,0.0,0.0,0.0,0.0,0.0,0.0,0.0,0.0,0.0,0.0,0.0,0.0,0.0,0.0,0.0,0.0,0.0,0.0,0.0,0.0,0.0,0.0,0.0,0.0,0.0,0.0,0.0,1.2284,0.0,1.7757,1.9756,1.657,1.4874,0.0,0.0,0.0,0.0,0.0,0.0,0.0,0.0,0.0,0.0,0.0,0.0,0.0,0.0,0.0,0.0,0.0,0.0,0.0,0.0,0.0,0.0,0.0,0.0,0.0,0.0,0.0,0.0,0.0,0.0,0.0,0.0,0.0,0.0,0.0,0.0,0.0,0.0,0.0,0.0,0.0,0.0,0.0,0.0,0.0,0.0,0.0,0.0,0.0,0.0,0.0,0.0,0.0,0.0,0.0,0.0,0.0,0.0,0.0,0.0,0.0,0.0,0.0,0.0,0.0,0.0,0.0,0.0,0.0,0.0,0.0,0.0,0.0,0.0,0.0,0.0,0.0,0.0,0.0,0.0,0.0,0.0,0.0,0.0,0.0,0.0,0.0,0.0,0.0,0.0,0.0,0.0,0.0,0.0,0.0,0.0,0.0,0.0,0.0,0.0,0.0,0.0,0.0,0.0,0.0,0.0,0.0,0.0,1.3887,1.7114,2.1097,2.162,1.8697,1.7697,1.5358,0.0,0.0,0.0,0.0,0.0,0.0,0.0,0.0,0.0,0.0,0.0,0.0,0.0,0.0,0.0,0.0,0.0,0.0,0.0,0.0,0.0,0.0,0.0,0.0,0.0,0.0,0.0,0.0,0.0,0.0,0.0,0.0,0.0,0.0,0.0,0.0,0.0,0.0,0.0,0.0,0.0,0.0,0.0,0.0,0.0,0.0,0.0,0.0,0.0,0.0,0.0,0.0,0.0,0.0,0.0,0.0,0.0,0.0,0.0,0.0,0.0,0.0,0.0,0.0,0.0,0.0,0.0,0.0,0.0,0.0,0.0,0.0,0.0,0.0,0.0,0.0,0.0,0.0,0.0,0.0,0.0,0.0,0.0,0.0,0.0,0.0,0.0,0.0,0.0,0.0,0.0,0.0,0.0,0.0,0.0,0.0,0.0,0.0,0.0,0.0,0.0,0.0,0.0,0.0,0.0,0.0,0.0,0.0,0.0,1.4744,1.8314,2.0797,2.171,1.8358,1.691,0.0,0.0,0.0,0.0,0.0,0.0,0.0,0.0,0.0,0.0,0.0,0.0,0.0,0.0,0.0,0.0,0.0,0.0,0.0,0.0,0.0,0.0,0.0,0.0,0.0,0.0,0.0,0.0,0.0,0.0,0.0,0.0,0.0,0.0,0.0,0.0,0.0,0.0,0.0,0.0,0.0,0.0,0.0,0.0,0.0,0.0,0.0,0.0,0.0,0.0,0.0,0.0,0.0,0.0,0.0,0.0,0.0,0.0,0.0,0.0,0.0,0.0,0.0,0.0,0.0,0.0,0.0,0.0,0.0,0.0,0.0,0.0,0.0,0.0,0.0,0.0,0.0,0.0,0.0,0.0,0.0,0.0,0.0,0.0,0.0,0.0,0.0,0.0,0.0,0.0,0.0,0.0,0.0,0.0,0.0,0.0,0.0,0.0,0.0,0.0,0.0,0.0,0.0,0.0,0.0,0.0,0.0,0.0,0.0,1.7976,2.0941,2.3242,2.4496,2.0602,1.8979,1.9937,0.0,0.0,0.0,0.0,0.0,0.0,0.0,0.0,0.0,0.0,0.0,0.0,0.0,0.0,0.0,0.0,0.0,0.0,0.0,0.0,0.0,0.0,0.0,0.0,0.0,0.0,0.0,0.0,0.0,0.0,0.0,0.0,0.0,0.0,0.0,0.0,0.0,0.0,0.0,0.0,0.0,0.0,0.0,0.0,0.0,0.0,0.0,0.0,0.0,0.0,0.0,0.0,0.0,0.0,0.0,0.0,0.0,0.0,0.0,0.0,0.0,0.0,0.0,0.0,0.0,0.0,0.0,0.0,0.0,0.0,0.0,0.0,0.0,0.0,0.0,0.0,0.0,0.0,0.0,0.0,0.0,0.0,0.0,0.0,0.0,0.0,0.0,0.0,0.0,0.0,0.0,0.0,0.0,0.0,0.0,0.0,0.0,0.0,0.0,0.0,0.0,0.0,0.0,0.0,0.0,0.0,0.0,0.0,2.5272,2.7972,2.8543,2.6865,2.4209,2.1593,0.0,0.0,0.0,0.0,0.0,0.0,0.0,0.0,0.0,0.0,0.0,0.0,0.0,0.0,0.0,0.0,0.0,0.0,0.0,0.0,0.0,0.0,0.0,0.0,0.0,0.0,0.0,0.0,0.0,0.0,0.0,0.0,0.0,0.0,0.0,0.0,0.0,0.0,0.0,0.0,0.0,0.0,0.0,0.0,0.0,0.0,0.0,0.0,0.0,0.0,0.0,0.0,0.0,0.0,0.0,0.0,0.0,0.0,0.0,0.0,0.0,0.0,0.0,0.0,0.0,0.0,0.0,0.0,0.0,0.0,0.0,0.0,0.0,0.0,0.0,0.0,0.0,0.0,0.0,0.0,0.0,0.0,0.0,0.0,0.0,0.0,0.0,0.0,0.0,0.0,0.0,0.0,0.0,0.0,0.0,0.0,0.0,0.0,0.0,0.0,0.0,0.0,0.0,0.0,0.0,0.0,0.0,0.0,0.0,2.8715,3.1488,3.2504,3.1732,2.8151,2.551,0.0,0.0,0.0,0.0,0.0,0.0,0.0,0.0,0.0,0.0,0.0,0.0,0.0,0.0,0.0,0.0,0.0,0.0,0.0,0.0,0.0,0.0,0.0,0.0,0.0,0.0,0.0,0.0,0.0,0.0,0.0,0.0,0.0,0.0,0.0,0.0,0.0,0.0,0.0,0.0,0.0,0.0,0.0,0.0,0.0,0.0,0.0,0.0,0.0,0.0,0.0,0.0,0.0,0.0,0.0,0.0,0.0,0.0,0.0,0.0,0.0,0.0,0.0,0.0,0.0,0.0,0.0,0.0,0.0,0.0,0.0,0.0,0.0,0.0,0.0,0.0,0.0,0.0,0.0,0.0,0.0,0.0,0.0,0.0,0.0,0.0,0.0,0.0,0.0,0.0,0.0,0.0,0.0,0.0,0.0,0.0,0.0,0.0,0.0,0.0,0.0,0.0,0.0,0.0,0.0,0.0,0.0,0.0,2.6213,3.1775,3.4435,3.5885,3.6048,3.229,2.8922,0.0,0.0,0.0,0.0,0.0,0.0,0.0,0.0,0.0,0.0,0.0,0.0,0.0,0.0,0.0,0.0,0.0,0.0,0.0,0.0,0.0,0.0,0.0,0.0,0.0,0.0,0.0,0.0,0.0,0.0,0.0,0.0,0.0,0.0,0.0,0.0,0.0,0.0,0.0,0.0,0.0,0.0,0.0,0.0,0.0,0.0,0.0,0.0,0.0,0.0,0.0,0.0,0.0,0.0,0.0,0.0,0.0,0.0,0.0,0.0,0.0,0.0,0.0,0.0,0.0,0.0,0.0,0.0,0.0,0.0,0.0,0.0,0.0,0.0,0.0,0.0,0.0,0.0,0.0,0.0,0.0,0.0,0.0,0.0,0.0,0.0,0.0,0.0,0.0,0.0,0.0,0.0,0.0,0.0,0.0,0.0,0.0,0.0,0.0,0.0,0.0,0.0,0.0,0.0,0.0,0.0,0.0,0.0,2.9155,3.4229,3.682,3.8481,3.9119,3.5932,3.1788,0.0,0.0,0.0,0.0,0.0,0.0,0.0,0.0,0.0,0.0,0.0,0.0,0.0,0.0,0.0,0.0,0.0,0.0,0.0,0.0,0.0,0.0,0.0,0.0,0.0,0.0,0.0,0.0,0.0,0.0,0.0,0.0,0.0,0.0,0.0,0.0,0.0,0.0,0.0,0.0,0.0,0.0,0.0,0.0,0.0,0.0,0.0,0.0,0.0,0.0,0.0,0.0,0.0,0.0,0.0,0.0,0.0,0.0,0.0,0.0,0.0,0.0,0.0,0.0,0.0,0.0,0.0,0.0,0.0,0.0,0.0,0.0,0.0,0.0,0.0,0.0,0.0,0.0,0.0,0.0,0.0,0.0,0.0,0.0,0.0,0.0,0.0,0.0,0.0,0.0,0.0,0.0,0.0,0.0,0.0,0.0,0.0,0.0,0.0,0.0,0.0,0.0,0.0,0.0,0.0,0.0,0.0,0.0,3.0644,3.5121,3.7719,3.9004,3.8959,3.6372,3.3123,0.0,0.0,0.0,0.0,0.0,0.0,0.0,0.0,0.0,0.0,0.0,0.0,0.0,0.0,0.0,0.0,0.0,0.0,0.0,0.0,0.0,0.0,0.0,0.0,0.0,0.0,0.0,0.0,0.0,0.0,0.0,0.0,0.0,0.0,0.0,0.0,0.0,0.0,0.0,0.0,0.0,0.0,0.0,0.0,0.0,0.0,0.0,0.0,1.8507,0.0,0.0,0.0,0.0,0.0,0.0,0.0,0.0,0.0,0.0,0.0,0.0,0.0,0.0,0.0,0.0,0.0,0.0,0.0,0.0,0.0,0.0,0.0,0.0,0.0,0.0,0.0,0.0,0.0,0.0,0.0,0.0,0.0,0.0,0.0,0.0,0.0,0.0,0.0,0.0,0.0,0.0,0.0,0.0,0.0,0.0,0.0,0.0,0.0,0.0,0.0,0.0,0.0,0.0,0.0,0.0,0.0,0.0,0.0,3.1706,3.5942,3.818,3.9411,3.9553,3.7578,3.4385,0.0,0.0,0.0,0.0,0.0,0.0,0.0,0.0,0.0,0.0,0.0,0.0,0.0,0.0,0.0,0.0,0.0,0.0,0.0,0.0,0.0,0.0,0.0,0.0,0.0,0.0,0.0,0.0,0.0,0.0,0.0,0.0,0.0,0.0,0.0,0.0,0.0,0.0,0.0,0.0,0.0,0.0,0.0,0.0,0.0,0.0,0.0,0.0,0.0,0.0,0.0,0.0,0.0,0.0,0.0,0.0,0.0,0.0,0.0,0.0,0.0,0.0,0.0,0.0,0.0,0.0,0.0,0.0,0.0,0.0,0.0,0.0,0.0,0.0,0.0,0.0,0.0,0.0,0.0,0.0,0.0,0.0,0.0,0.0,0.0,0.0,0.0,0.0,0.0,0.0,0.0,0.0,0.0,0.0,0.0,0.0,0.0,0.0,0.0,0.0,0.0,0.0,0.0,0.0,0.0,0.0,0.0,2.7904,3.2429,3.6731,3.8604,3.9788,4.0399,3.8773,3.5411,3.0311,0.0,0.0,0.0,0.0,0.0,0.0,0.0,0.0,0.0,0.0,0.0,0.0,0.0,0.0,0.0,0.0,0.0,0.0,0.0,0.0,0.0,0.0,0.0,0.0,0.0,0.0,0.0,0.0,0.0,0.0,0.0,0.0,0.0,0.0,0.0,0.0,0.0,0.0,1.8695,2.0876,0.0,0.0,0.0,0.0,0.0,0.0,0.0,0.0,2.038,0.0,0.0,0.0,0.0,0.0,0.0,0.0,0.0,0.0,0.0,0.0,0.0,0.0,0.0,0.0,0.0,0.0,0.0,0.0,0.0,0.0,0.0,0.0,0.0,0.0,0.0,0.0,0.0,0.0,0.0,0.0,0.0,0.0,0.0,0.0,0.0,0.0,0.0,0.0,0.0,0.0,0.0,0.0,0.0,0.0,0.0,0.0,0.0,0.0,0.0,0.0,0.0,0.0,0.0,0.0,0.0,2.6897,2.9129,3.2665,3.7661,3.9438,4.029,4.0202,3.8625,3.5842,3.1835,0.0,0.0,0.0,0.0,0.0,0.0,0.0,0.0,0.0,0.0,0.0,0.0,0.0,0.0,0.0,0.0,0.0,0.0,0.0,0.0,0.0,0.0,0.0,0.0,0.0,0.0,0.0,0.0,0.0,0.0,0.0,0.0,0.0,0.0,0.0,0.0,0.0,0.0,0.0,2.3712,2.4897,0.0,0.0,0.0,0.0,0.0,0.0,0.0,0.0,2.0105,0.0,0.0,0.0,0.0,0.0,0.0,0.0,0.0,0.0,0.0,0.0,0.0,0.0,0.0,0.0,0.0,0.0,0.0,0.0,0.0,0.0,0.0,0.0,0.0,0.0,0.0,0.0,0.0,0.0,0.0,0.0,0.0,0.0,0.0,0.0,0.0,0.0,0.0,0.0,0.0,0.0,0.0,0.0,0.0,0.0,0.0,0.0,0.0,0.0,0.0,0.0,0.0,0.0,0.0,0.0,2.6307,3.0299,3.4145,3.7892,3.965,4.0457,4.0298,3.7416,3.4525,0.0,0.0,0.0,0.0,0.0,0.0,0.0,0.0,0.0,0.0,0.0,0.0,0.0,0.0,0.0,0.0,0.0,0.0,0.0,0.0,0.0,0.0,0.0,0.0,0.0,0.0,0.0,0.0,0.0,0.0,0.0,0.0,0.0,0.0,0.0,0.0,0.0,0.0,0.0,0.0,2.4658,2.5705,2.6531,0.0,0.0,0.0,0.0,0.0,0.0,2.2611,2.1675,0.0,0.0,0.0,0.0,0.0,0.0,0.0,0.0,0.0,0.0,0.0,0.0,0.0,0.0,0.0,0.0,0.0,0.0,0.0,0.0,0.0,0.0,0.0,0.0,0.0,0.0,0.0,0.0,0.0,0.0,0.0,0.0,0.0,0.0,0.0,0.0,0.0,0.0,0.0,0.0,0.0,0.0,0.0,0.0,0.0,0.0,0.0,0.0,0.0,0.0,0.0,0.0,0.0,0.0,0.0,2.5195,3.0471,3.4735,3.7892,3.9469,4.0342,4.0419,3.6851,3.3767,0.0,0.0,0.0,0.0,0.0,0.0,0.0,0.0,0.0,0.0,0.0,0.0,0.0,0.0,0.0,0.0,0.0,0.0,0.0,0.0,0.0,0.0,0.0,0.0,0.0,0.0,0.0,0.0,0.0,0.0,0.0,0.0,0.0,0.0,0.0,0.0,0.0,0.0,0.0,0.0,0.0,2.6521,2.764,2.6843,0.0,0.0,0.0,0.0,2.451,2.4997,0.0,0.0,0.0,0.0,0.0,0.0,0.0,0.0,0.0,0.0,0.0,0.0,0.0,0.0,0.0,0.0,0.0,0.0,0.0,0.0,0.0,0.0,0.0,0.0,0.0,0.0,0.0,0.0,0.0,0.0,0.0,0.0,0.0,0.0,0.0,0.0,0.0,0.0,0.0,0.0,0.0,0.0,0.0,0.0,0.0,0.0,0.0,0.0,0.0,0.0,0.0,0.0,0.0,0.0,0.0,0.0,2.5096,2.8138,3.2333,3.7692,3.8938,3.9765,4.0458,3.8584,3.5572,0.0,0.0,0.0,0.0,0.0,0.0,0.0,0.0,0.0,0.0,0.0,0.0,0.0,0.0,0.0,0.0,0.0,0.0,0.0,0.0,0.0,0.0,0.0,0.0,0.0,0.0,0.0,0.0,0.0,0.0,0.0,0.0,0.0,0.0,0.0,0.0,0.0,0.0,0.0,0.0,0.0,2.8381,2.789,2.8264,2.8546,0.0,0.0,2.8675,2.9292,2.9457,0.0,0.0,0.0,0.0,0.0,0.0,0.0,0.0,0.0,0.0,0.0,0.0,0.0,0.0,0.0,0.0,0.0,0.0,0.0,0.0,0.0,0.0,0.0,0.0,0.0,0.0,0.0,0.0,0.0,0.0,0.0,0.0,0.0,0.0,0.0,0.0,0.0,0.0,0.0,0.0,0.0,0.0,0.0,0.0,0.0,0.0,0.0,0.0,0.0,0.0,0.0,0.0,0.0,0.0,0.0,1.9905,2.5207,2.9202,3.3166,3.7096,3.8104,3.8719,3.9065,3.6065,3.299,0.0,0.0,0.0,0.0,0.0,0.0,0.0,0.0,0.0,0.0,0.0,0.0,0.0,0.0,0.0,0.0,0.0,0.0,0.0,0.0,0.0,0.0,0.0,0.0,0.0,0.0,0.0,0.0,0.0,0.0,0.0,0.0,0.0,0.0,0.0,0.0,0.0,0.0,0.0,0.0,0.0,0.0,2.9219,3.0246,0.0,0.0,0.0,3.0485,3.0815,0.0,0.0,0.0,0.0,0.0,0.0,0.0,0.0,0.0,0.0,0.0,0.0,0.0,0.0,0.0,0.0,0.0,0.0,0.0,0.0,0.0,0.0,0.0,0.0,0.0,0.0,0.0,0.0,0.0,0.0,0.0,0.0,0.0,0.0,0.0,0.0,0.0,0.0,0.0,0.0,0.0,0.0,0.0,0.0,0.0,0.0,0.0,0.0,0.0,0.0,0.0,0.0,0.0,0.0,0.0,0.0,0.0,2.4981,2.9794,3.3622,3.6288,3.7231,3.7777,3.793,3.4526,0.0,0.0,0.0,0.0,0.0,0.0,0.0,0.0,0.0,0.0,0.0,0.0,0.0,0.0,0.0,0.0,0.0,0.0,0.0,0.0,0.0,0.0,0.0,0.0,0.0,0.0,0.0,1.1186,0.0,0.0,0.0,0.0,0.0,0.0,0.0,0.0,0.0,0.0,0.0,0.0,0.0,0.0,3.0466,3.0942,3.2342,3.3178,0.0,0.0,3.2553,3.2339,3.2155,3.0925,0.0,0.0,0.0,0.0,0.0,0.0,0.0,0.0,0.0,0.0,0.0,0.0,0.0,0.0,0.0,0.0,0.0,0.0,0.0,0.0,0.0,0.0,0.0,0.0,0.0,0.0,0.0,0.0,0.0,0.0,0.0,0.0,0.0,0.0,0.0,0.0,0.0,0.0,0.0,0.0,0.0,0.0,0.0,0.0,0.0,0.0,0.0,0.0,0.0,0.0,0.0,0.0,0.0,0.0,0.0,2.4149,2.839,3.2212,3.5442,3.6365,3.718,3.793,3.6212,3.3249,0.0,0.0,0.0,0.0,0.0,0.0,0.0,0.0,0.0,0.0,0.0,0.0,0.0,0.0,0.0,0.0,0.0,0.0,0.0,0.0,0.0,0.0,0.0,0.0,0.0,0.0,0.0,0.0,0.0,0.0,0.0,0.0,0.0,0.0,0.0,0.0,0.0,0.0,0.0,0.0,0.0,3.1272,3.2945,3.4409,3.5559,0.0,0.0,3.5697,3.4876,3.6009,3.5161,2.9732,0.0,0.0,0.0,0.0,0.0,0.0,0.0,0.0,0.0,0.0,0.0,0.0,0.0,0.0,0.0,0.0,0.0,0.0,0.0,0.0,0.0,0.0,0.0,0.0,0.0,0.0,0.0,0.0,0.0,0.0,0.0,0.0,0.0,0.0,0.0,0.0,0.0,0.0,0.0,0.0,0.0,0.0,0.0,0.0,0.0,0.0,0.0,0.0,0.0,0.0,0.0,0.0,0.0,1.9819,2.4052,2.8255,3.1788,3.4584,3.5519,3.6135,3.6462,3.4788,3.2353,0.0,0.0,0.0,0.0,0.0,0.0,0.0,0.0,0.0,0.0,0.0,0.0,0.0,0.0,0.0,0.0,0.0,0.0,0.0,0.0,0.0,0.0,0.0,0.0,0.0,0.0,0.0,0.0,1.6413,1.679,1.7009,0.0,0.0,0.0,0.0,0.0,0.0,0.0,0.0,0.0,0.0,3.3004,3.4753,3.6319,0.0,0.0,3.7653,3.7654,3.7804,3.6137,3.393,3.1266,2.8429,0.0,0.0,0.0,0.0,0.0,0.0,0.0,0.0,0.0,0.0,0.0,0.0,0.0,0.0,0.0,0.0,0.0,0.0,0.0,0.0,0.0,0.0,0.0,0.0,0.0,0.0,0.0,0.0,0.0,0.0,0.0,0.0,0.0,0.0,0.0,0.0,0.0,0.0,0.0,0.0,0.0,0.0,0.0,0.0,0.0,0.0,0.0,0.0,0.0,0.0,0.0,0.0,1.9681,2.3682,2.8121,3.15,3.3782,3.493,3.55,3.5442,3.3808,3.1808,0.0,0.0,0.0,0.0,0.0,0.0,0.0,0.0,0.0,0.0,0.0,0.0,0.0,0.0,0.0,0.0,0.0,0.0,0.0,0.0,0.0,0.0,0.0,0.0,0.0,0.0,0.0,0.0,1.8012,1.7844,1.6905,0.0,0.0,0.0,0.0,0.0,0.0,0.0,0.0,0.0,0.0,3.4936,3.6701,3.8076,3.8893,3.8883,3.8579,3.8486,3.8807,3.6332,3.3859,3.2292,0.0,0.0,0.0,0.0,0.0,0.0,0.0,0.0,0.0,0.0,0.0,0.0,0.0,0.0,0.0,0.0,0.0,0.0,0.0,0.0,0.0,0.0,0.0,0.0,0.0,0.0,0.0,0.0,0.0,0.0,0.991,0.0,0.0,0.0,0.0,0.0,0.0,0.0,0.0,0.0,0.0,0.0,0.0,0.0,0.0,0.0,0.0,0.0,0.0,0.0,0.0,0.0,0.0,1.9411,2.2855,2.7846,3.1231,3.291,3.4596,3.55,3.5442,3.3808,3.2096,3.0321,0.0,0.0,0.0,0.0,0.0,0.0,0.0,0.0,0.0,0.0,0.0,0.0,0.0,0.0,0.0,0.0,0.0,0.0,0.0,0.0,0.0,0.0,0.0,0.0,0.0,0.0,1.9389,1.8889,1.7885,0.0,0.0,0.0,0.0,0.0,0.0,0.0,0.0,0.0,0.0,3.4228,3.7007,3.8837,3.9659,4.0005,3.9965,3.9026,3.8079,3.7395,3.7044,3.5941,0.0,0.0,0.0,0.0,0.0,0.0,0.0,0.0,0.0,0.0,0.0,0.0,0.0,0.0,0.0,0.0,0.0,0.0,0.0,0.0,0.0,0.0,0.0,0.0,0.0,0.0,0.0,1.4968,1.37,0.0,0.0,0.0,0.0,0.0,0.0,0.0,0.0,0.0,0.0,0.0,2.2187,2.3348,0.0,0.0,0.0,0.0,0.0,0.0,0.0,0.0,0.0,0.0,0.0,0.0,2.0242,2.3701,2.8121,3.1212,3.2891,3.4596,3.5212,3.4641,3.3506,3.1314,2.7981,0.0,0.0,0.0,0.0,0.0,0.0,0.0,0.0,0.0,0.0,0.0,0.0,0.0,0.0,0.0,0.0,0.0,0.0,0.0,0.0,0.0,0.0,0.0,0.0,0.0,1.9252,0.0,0.0,0.0,0.0,0.0,0.0,0.0,0.0,0.0,0.0,0.0,3.0605,3.4305,3.6347,3.8109,3.9831,4.0225,4.0364,0.0,0.0,0.0,0.0,0.0,0.0,0.0,0.0,0.0,0.0,0.0,0.0,0.0,0.0,3.68,3.0912,2.9136,2.8574,2.8586,0.0,0.0,0.0,0.0,0.0,0.0,0.0,0.0,0.0,0.0,0.0,0.0,0.0,0.0,1.788,0.0,1.7129,0.0,0.0,0.0,0.0,0.0,0.0,0.0,0.0,2.2982,2.49,2.5732,2.6864,2.7135,0.0,2.6652,2.4034,0.0,0.0,0.0,0.0,0.0,0.0,0.0,0.0,2.1701,2.4567,2.8698,3.1525,3.2872,3.4314,3.4776,3.4205,3.3064,3.091,2.7568,2.5606,2.3889,0.0,0.0,0.0,0.0,0.0,0.0,0.0,0.0,0.0,0.0,0.0,0.0,0.0,0.0,0.0,0.0,0.0,0.0,0.0,0.0,0.0,0.0,0.0,2.0477,0.0,0.0,0.0,0.0,0.0,0.0,0.0,0.0,0.0,2.8007,3.0387,3.3374,3.7007,3.827,3.9381,4.0758,0.0,0.0,0.0,0.0,0.0,0.0,0.0,3.6635,3.7717,3.6136,3.492,3.5714,3.8462,4.0335,3.9457,0.0,0.0,3.582,3.409,3.357,3.3865,3.4334,3.493,3.5834,3.7026,3.8154,0.0,0.0,0.0,0.0,0.0,0.0,0.0,0.0,1.8521,1.9476,0.0,1.9952,0.0,0.0,0.0,0.0,0.0,2.0818,0.0,0.0,2.6746,2.842,2.9182,2.9239,2.9239,2.9369,3.0889,2.9907,2.6597,2.2652,0.0,0.0,0.0,0.0,0.0,0.0,2.3725,2.5515,2.9523,3.2076,3.2942,3.3789,3.4186,3.4129,3.2526,3.0852,2.9204,2.8261,2.6741,2.4302,2.1735,0.0,0.0,0.0,0.0,0.0,0.0,0.0,0.0,0.0,0.0,0.0,0.0,0.0,0.0,0.0,0.0,0.0,0.0,0.0,0.0,2.1498,0.0,0.0,0.0,0.0,0.0,0.0,0.0,0.0,0.0,0.0,2.975,3.3038,3.6519,3.8988,0.0,0.0,0.0,0.0,4.0554,4.0554,3.9919,3.9727,4.0496,4.0516,4.0431,4.0535,0.0,0.0,3.9873,4.1508,4.2393,4.0015,4.1662,4.3181,4.3028,4.0816,3.9508,4.0189,3.9207,3.9161,4.1269,4.2346,4.3538,2.6862,0.0,0.0,0.0,0.0,2.3361,2.4254,2.6138,2.6508,2.574,2.4234,2.4954,0.0,0.0,0.0,0.0,0.0,0.0,2.5712,2.7815,2.9148,3.0558,3.2018,3.2018,3.2329,3.2949,3.2829,3.1941,3.0378,2.9163,2.5529,1.9681,0.0,0.0,0.0,0.0,2.5926,2.8186,3.0009,3.1883,3.3881,3.4154,3.3953,3.3301,3.1641,3.0538,3.0019,2.8659,2.7588,2.6799,2.3793,0.0,0.0,0.0,0.0,0.0,0.0,0.0,0.0,0.0,0.0,0.0,0.0,0.0,0.0,0.0,0.0,0.0,0.0,0.0,2.1472,2.2894,2.3544,0.0,0.0,0.0,0.0,0.0,0.0,0.0,0.0,0.0,3.5372,3.7026,3.87,0.0,0.0,4.1296,4.0931,4.1181,4.1431,4.1431,4.1758,0.0,0.0,4.1304,4.092,4.2143,4.3258,4.3701,4.2989,4.3998,4.4643,4.3863,4.4382,4.4874,4.4786,4.3335,4.2181,4.2335,4.2874,4.3594,4.4374,4.5624,4.6778,3.1286,2.8814,2.731,2.7273,2.8115,2.7626,2.8251,2.9682,3.0183,2.9461,2.7933,2.8599,2.7315,2.4551,2.3914,0.0,0.0,0.0,2.8635,3.0878,3.1359,3.2334,3.3658,3.3716,3.3988,3.447,3.4295,3.3774,3.2942,3.2923,3.0249,2.5066,0.0,0.0,2.4771,2.6607,2.8504,3.0348,3.1559,3.2866,3.4323,3.4037,3.3247,3.1987,3.0959,3.0436,3.0385,2.9102,2.8376,2.8338,2.5774,2.3543,0.0,0.0,0.0,0.0,0.0,0.0,0.0,0.0,0.0,0.0,0.0,1.4239,1.1776,0.0,0.0,0.0,1.8383,2.1316,2.4359,2.5503,0.0,0.0,0.0,0.0,0.0,0.0,0.0,3.2712,3.5584,3.7988,3.9335,4.0546,4.1458,4.1939,4.2181,4.2239,4.2027,0.0,4.2308,4.2316,4.2758,4.3201,4.3508,4.2701,4.247,4.3863,4.447,4.4806,4.4844,4.5267,4.5575,4.5594,4.5594,4.5594,4.5594,4.4759,4.422,4.4547,4.5393,4.6278,4.6941,4.7913,4.8702,3.4505,3.4406,3.2018,3.0979,3.0913,3.0835,3.0839,3.0913,3.0913,3.129,3.1852,3.1216,3.0427,2.9527,2.8064,0.0,2.8662,3.0209,3.1799,3.342,3.3338,3.3789,3.4605,3.4609,3.4625,3.4629,3.5372,3.5333,3.4629,3.4609,3.3754,3.213,3.0597,2.9741,2.966,3.0419,3.1255,3.2111,3.3621,3.4388,3.4381,3.3553,3.2302,3.0689,3.0472,3.0366,3.0304,2.9393,2.8956,2.8951,2.74,2.5803,2.4206,0.0,0.0,0.0,0.0,0.0,0.0,0.0,0.0,0.0,0.0,0.0,0.0,0.0,0.0,0.0,2.2455,0.0,2.7761,2.88,0.0,0.0,0.0,3.0808,3.1077,3.3179,3.5257,3.6923,0.0,0.0,4.1885,4.3335,4.4335,4.4393,4.3701,4.3431,4.4124,4.3566,4.3201,4.3201,4.3278,4.3585,4.4297,4.4316,4.4509,4.5306,4.5594,4.5556,4.5537,4.5575,4.5594,4.5594,4.5594,4.5594,4.5594,4.5518,4.5855,4.6624,4.6904,4.7462,4.8856,4.9356,4.9702,3.5627,3.56,3.4976,3.4266,3.3508,3.2853,3.293,3.3491,3.3491,3.3266,3.2889,3.3359,3.3087,3.2275,3.2554,3.279,3.3001,3.3393,3.4179,3.519,3.4573,3.475,3.5617,3.5637,3.5637,3.5656,3.5849,3.583,3.5656,3.5656,3.5092,3.4062,3.3635,3.2744,3.1468,3.2292,3.3163,3.4023,3.3785,3.3628,3.3568,3.2681,3.2,3.1588,3.0285,2.9571,2.9532,2.8121,2.7648,2.8183,2.6633,2.5502,2.5005,2.1831,0.0,0.0,0.0,0.0,0.0,0.0,0.0,0.0,0.0,1.897,1.5192,0.0,2.2331,0.0,2.5548,2.8165,2.8761,3.0185,0.0,0.0,3.3179,3.4334,3.6892,3.7726,3.8726,4.0392,4.17,4.2797,4.3605,4.4047,4.4547,4.5163,4.4556,4.3874,4.3489,4.3778,4.4008,4.4066,4.4547,4.5075,4.5201,4.5287,4.5344,4.5575,4.5594,4.5594,4.5594,4.5594,4.5594,4.5594,4.5594,4.5594,4.5633,4.5594,4.5932,4.6721,4.7394,4.8125,4.9183,4.9894,5.0423,3.7172,3.7113,3.6746,3.6265,3.5671,3.4815,3.4706,3.5112,3.5112,3.4631,3.3882,3.3974,3.3955,3.3902,3.4369,3.5012,3.5691,3.5343,3.5866,3.7017,3.581,3.5703,3.6558,3.6187,3.6012,3.6012,3.6012,3.6012,3.6012,3.6012,3.5758,3.5291,3.5271,3.4776,3.3826,3.3918,3.4392,3.5252,3.4432,3.3604,3.2803,3.225,3.1618,3.085,2.9874,2.9159,2.8777,2.7514,2.7184,2.7954,2.6722,2.5963,2.5916,2.3474,2.147,0.0,0.0,0.0,0.0,0.0,0.0,0.0,0.0,0.0,0.0,0.0,2.505,2.6223,2.9115,3.1235,3.2014,3.3611,3.5146,3.6369,3.7173,3.8381,4.0208,4.0758,4.152,4.2849,4.3435,4.4044,4.4875,4.5,4.5125,4.5638,4.5244,4.4752,4.4363,4.4605,4.4874,4.4902,4.5287,4.5594,4.5594,4.5594,4.5594,4.5594,4.5594,4.5594,4.5594,4.5594,4.5594,4.5614,4.5922,4.6163,4.6182,4.6163,4.6451,4.7182,4.7481,4.7875,4.8663,4.9202,4.9606,3.8583,3.8523,3.7781,3.7449,3.739,3.6649,3.6195,3.6012,3.6012,3.5641,3.4998,3.4354,3.4413,3.5037,3.5252,3.5994,3.7067,3.6558,3.7087,3.8298,3.6871,3.6617,3.7419,3.6695,3.6344,3.6324,3.6324,3.6265,3.6168,3.6148,3.609,3.6012,3.6012,3.6012,3.5974,3.5234,3.5195,3.5817,3.4979,3.3749,3.215,3.1993,3.1162,2.9604,2.9349,2.8839,2.7986,2.7229,2.7187,2.7854,2.726,2.6881,2.6754,2.5159,2.3515,0.0,2.0294,0.0,0.0,0.0,0.0,0.0,0.0,0.0,0.0,2.6551,2.8746,3.0989,3.2788,3.4438,3.5834,3.7475,3.8753,3.9522,4.0995,4.197,4.2159,4.2857,4.3662,4.4576,4.4667,4.5007,4.5714,4.5844,4.5815,4.579,4.5731,4.5614,4.5607,4.5558,4.5563,4.5612,4.5593,4.562,4.562,4.5612,4.5612,4.5612,4.562,4.5612,4.5612,4.5612,4.567,4.5815,4.6392,4.6892,4.7028,4.7067,4.7287,4.7894,4.7462,4.7259,4.7952,4.8192,4.8355,3.8523,3.8523,3.8328,3.8269,3.825,3.8093,3.7246,3.6012,3.6012,3.6306,3.6852,3.7381,3.7322,3.6931,3.8238,3.7867,3.6324,3.7536,3.7906,3.7516,3.7204,3.7516,3.8318,3.8181,3.8102,3.8102,3.8102,3.775,3.7067,3.7048,3.6695,3.6031,3.6012,3.6016,3.6002,0.0,0.0,0.0,3.4099,3.3144,3.211,3.1407,3.0584,2.9605,2.8881,0.0,2.7254,2.704,2.7007,2.7132,2.7629,0.0,0.0,0.0,0.0,0.0,0.0,0.0,0.0,0.0,0.0,0.0,2.7223,2.6621,2.6481,3.0448,3.3245,3.3783,3.5927,3.7168,3.6837,3.8341,3.9669,4.0471,4.1456,4.2597,4.3936,4.4286,4.4734,4.5522,4.5624,4.5692,4.5846,4.5891,4.5867,4.5886,4.5872,4.5862,4.5841,4.575,4.5692,4.5684,4.568,4.5692,4.5684,4.5692,4.5688,4.5665,4.5684,4.5684,4.5665,4.5657,4.5929,4.6435,4.6827,4.7193,4.7739,4.793,4.7948,4.8076,4.7471,4.7135,4.7932,4.8096,4.8163,3.9738,0.0,3.9268,3.9092,0.0,3.8617,3.7992,3.7246,3.7226,3.748,3.791,3.8357,3.853,3.8567,3.9006,3.8726,3.7905,3.8376,3.8572,3.8512,3.8125,3.8387,3.9177,3.8748,3.8516,3.8513,3.8494,3.8279,3.783,3.7441,3.7012,3.6541,3.6152,3.5937,3.5915,3.5915,3.5293,3.4066,3.3633,3.2772,3.1504,3.1016,3.0431,2.9631,0.0,0.0,0.0,0.0,0.0,0.0,0.0,0.0,0.0,0.0,0.0,2.5613,2.484,2.4724,2.5559,2.6027,2.7401,2.9928,3.1333,3.1659,3.0769,3.3897,3.6233,3.7057,3.8316,3.9037,3.9068,3.9842,4.0665,4.1461,4.2291,4.3315,4.447,4.5049,4.5479,4.5877,4.5981,4.6011,4.6084,4.6086,4.6034,4.6031,4.601,4.6014,4.5982,4.589,4.5789,4.5808,4.5789,4.5789,4.5789,4.5789,4.5789,4.5802,4.577,4.5749,4.5742,4.5723,4.5854,4.6274,4.6667,4.7265,4.7983,4.8223,4.8367,4.861,4.8139,4.7715,4.8081,4.7507,4.7009,4.099,4.0929,4.0201,3.9928,3.9848,3.9131,3.8878,3.8911,0.0,0.0,0.0,3.8881,3.9256,3.9726,3.9099,3.8995,3.9268,3.8645,3.8683,3.9288,3.8648,3.8769,3.9506,3.8838,3.8452,3.84,3.8397,3.8319,3.8146,3.7495,3.7085,3.6844,3.621,3.5858,3.5789,3.5806,3.5078,3.3671,3.3471,3.2551,3.0852,3.0789,3.0397,2.9617,2.9594,2.9181,2.8341,2.8459,2.8537,2.8537,2.8615,2.8611,2.8535,2.8478,2.8416,2.8301,2.8282,2.838,2.8518,2.9319,3.0315,3.1408,3.457,3.6151,3.5428,3.6854,3.8378,3.9899,4.0037,4.0333,4.1022,4.11,4.1444,4.2256,4.2897,4.366,4.463,4.5324,4.5787,4.6062,4.613,4.6181,4.6261,4.6252,4.6222,4.6218,4.6162,4.6137,4.6131,4.6029,4.5918,4.5938,4.5953,4.5946,4.5946,4.5942,4.5931,4.5938,4.5876,4.5861,4.5844,4.5816,4.5838,4.6116,4.661,4.7318,4.8118,4.8485,4.8731,4.9374,4.8988,4.8525,4.8381,4.7232,4.6506,4.0915,4.0893,4.0776,4.0718,4.0713,4.0592,4.0558,4.0498,3.9816,3.9538,3.9572,4.0327,4.031,3.9717,3.9608,3.8789,3.7478,3.7359,3.7378,0.0,3.7357,3.7764,3.8561,3.8481,3.8399,3.8393,3.8391,3.802,3.7338,3.7186,3.6735,3.6081,3.5875,3.5791,3.5797,3.5795,3.5334,3.4349,3.3665,3.2483,3.0767,3.078,3.039,2.957,2.9582,2.9181,2.8341,2.9026,2.9436,2.9436,3.0076,3.0134,2.9474,2.9452,2.9081,2.836,2.8302,2.8615,2.9378,3.0177,3.1663,3.4011,3.667,3.8173,3.8104,3.8967,3.9926,4.0825,4.0868,4.095,4.1087,4.1106,4.1436,4.2234,4.2467,4.3191,4.4655,4.5047,4.544,4.6091,4.6268,4.6269,4.6289,4.6289,4.6289,4.6289,4.6269,4.6269,4.623,4.6162,4.6082,4.6072,4.6072,4.6072,4.6086,4.6075,4.6063,4.6072,4.6068,4.6029,4.6029,4.6028,4.6216,4.6892,4.7024,4.746,4.8193,4.9026,4.9269,4.9409,4.9241,4.9195,4.9137,4.839,4.7893,4.0839,4.0842,4.0842,4.0842,4.0848,4.0842,4.0856,4.0812,4.0457,4.0303,4.0338,4.0757,4.0463,3.9641,3.9184,3.8317,3.7107,3.7106,3.7106,3.7143,3.7587,3.7981,3.8318,3.8368,3.8321,3.8295,3.8291,3.8077,3.7689,3.7263,3.6835,3.6398,3.5951,3.5753,3.5745,3.5745,3.5317,3.4462,3.3692,3.2697,3.1445,3.0976,3.0554,3.0164,3.019,3.0017,2.9626,2.9979,3.0409,3.0896,3.1288,3.1539,3.1657,3.1668,3.1485,3.1113,3.1078,3.1256,3.1627,3.2449,3.3623,3.5305,3.7376,3.8606,3.8602,3.9795,4.0694,4.1065,4.1106,4.1108,4.111,4.111,4.1286,4.1697,4.2108,4.2733,4.3535,4.4492,4.5175,4.5566,4.6016,4.6289,4.6289,4.6289,4.6289,4.6289,4.6289,4.6289,4.6289,4.625,4.6211,4.6207,4.6207,4.6207,4.6211,4.6207,4.6207,4.6207,4.6169,4.6155,4.6147,4.6131,4.6254,4.6555,4.6656,4.6968,4.7656,4.8083,4.8505,4.8996,4.9025,4.9006,4.8929,4.8926,4.9013,4.0759,4.0796,4.0796,4.0796,4.0796,4.0796,4.0804,4.08,4.0804,4.0809,4.0807,4.0849,4.0496,3.9805,3.8828,3.8015,3.7375,3.6944,3.6788,3.6866,3.7484,3.7776,3.773,3.7728,3.7676,3.7624,3.7638,3.7632,3.7553,3.7012,3.6678,3.658,3.6013,3.5704,3.5704,3.5704,3.538,3.4694,3.3948,3.302,3.2004,3.1144,3.0706,3.0706,3.0696,3.0702,3.0702,3.0882,3.1294,3.1955,3.2235,3.2672,3.3316,3.3379,3.3375,3.3375,3.3377,3.3456,3.3651,3.4258,3.5019,3.5898,3.7383,3.8262,3.8379,3.9824,4.0878,4.1051,4.1109,4.113,4.1131,4.1132,4.1152,4.123,4.1738,4.2207,4.2519,4.3789,4.4805,4.5019,4.5781,4.6289,4.6289,4.6289,4.6289,4.6289,4.6289,4.6289,4.6289,4.6289,4.6289,4.6289,4.6289,4.6289,4.6289,4.6289,4.6289,4.6289,4.6245,4.6216,4.621,4.6169,4.615,4.6211,4.6209,4.6435,4.6924,4.7304,4.7661,4.8199,4.8474,4.8621,4.8632,4.8935,4.9269,4.0623,4.0794,4.0794,4.08,4.0794,4.0794,4.0788,4.0782,4.079,4.0803,4.0784,4.0796,4.0749,4.0474,3.8999,3.8239,3.7981,3.6536,3.5853,3.5878,3.5901,3.5954,3.6026,3.6002,3.5952,3.5994,3.6013,3.6091,3.6091,3.5933,3.5855,3.58,3.5723,3.5704,3.5704,3.5704,3.567,3.5568,3.4743,3.3529,3.1967,3.1119,3.0712,3.0709,3.07,3.0702,3.0771,3.1457,3.1923,3.206,3.2781,3.3232,3.3351,3.3335,3.3337,3.3358,3.3356,3.3608,3.4316,3.4482,3.493,3.5767,3.6703,3.7305,3.7362,3.8861,4.0205,4.0839,4.1132,4.1172,4.1191,4.1191,4.1191,4.1191,4.1308,4.1582,4.2305,4.3242,4.4121,4.4941,4.5644,4.6289,4.6289,4.6289,4.6289,4.6289,4.6289,4.6289,4.6289,4.6289,4.6289,4.6289,4.6289,4.6289,4.6289,4.6289,4.6289,4.6289,4.6289,4.6269,4.6269,4.6289,4.6269,4.623,4.625,4.6328,4.6498,4.6876,4.7367,4.7457,4.7924,4.8479,4.8565,4.8602,4.8596,4.0431,4.0607,4.0633,4.0633,4.06,4.0492,4.0454,4.0454,4.0438,4.0449,4.0457,4.045,4.0284,3.9964,3.8764,3.7965,3.7384,3.6237,3.5704,3.5704,3.5704,3.5704,3.5704,3.5704,3.5704,3.5704,3.5704,3.5704,3.5704,3.5704,3.5704,3.5704,3.5704,3.5704,3.5704,3.5704,3.5704,3.5684,3.4839,3.4051,3.3306,3.2031,3.1126,3.0742,3.1099,3.1351,3.1448,3.219,3.2896,3.3386,3.3803,3.4239,3.4762,3.4774,3.477,3.479,3.4783,3.4932,3.5242,3.5276,3.5407,3.578,3.6598,3.7102,3.718,3.87,3.9894,4.0242,4.0806,4.1144,4.1144,4.117,4.1191,4.1191,4.1191,4.1348,4.1641,4.2441,4.3281,4.4141,4.5,4.5762,4.6172,4.6289,4.6289,4.6289,4.6289,4.6289,4.6289,4.6289,4.6289,4.6289,4.6289,4.6289,4.6289,4.6289,4.6289,4.6289,4.6289,4.6289,4.6289,4.6289,4.6289,4.6289,4.6289,4.6289,4.6289,4.646,4.6767,4.6829,4.6809,4.7184,4.7184,4.7525,4.7566,4.0242,4.0417,4.0406,4.0425,4.0417,4.0269,4.0205,4.0148,3.9957,3.9842,3.9804,3.9622,3.9473,3.9236,3.8433,3.7701,3.7089,3.6097,3.5656,3.5704,3.5704,3.5704,3.5704,3.5704,3.5704,3.5704,3.5704,3.5704,3.5704,3.5704,3.5704,3.5704,3.5704,3.5704,3.5704,3.5704,3.5704,3.567,3.5051,3.4645,3.4258,3.317,3.2121,3.1429,3.1855,3.2159,3.2179,3.2992,3.3742,3.4366,3.4663,3.5111,3.5718,3.5768,3.5774,3.5771,3.5762,3.5772,3.5758,3.5778,3.5778,3.5836,3.6384,3.6719,3.7007,3.8311,3.9225,3.9369,4.036,4.1057,4.1076,4.1115,4.1144,4.1144,4.1167,4.117,4.123,4.1913,4.2676,4.332,4.4375,4.5332,4.6074,4.6289,4.6289,4.6289,4.6289,4.6289,4.6289,4.6289,4.6289,4.6289,4.6289,4.6289,4.6289,4.6289,4.6289,4.6289,4.6289,4.6289,4.6289,4.6289,4.6289,4.6289,4.6289,4.6289,4.6289,4.6308,4.6348,4.6308,4.6308,4.6328,4.6449,4.6758,4.6738,4.0011,4.0186,4.0214,4.0119,4.0176,4.01,4.0129,3.9919,3.927,3.8954,3.883,3.8199,3.8244,3.8798,3.7948,3.7707,3.7601,3.6129,3.5515,3.5687,3.5679,3.5704,3.5704,3.5704,3.5704,3.5704,3.5704,3.5704,3.5704,3.5704,3.5704,3.5704,3.5704,3.5704,3.5704,3.5704,3.5704,3.5684,3.5593,3.524,3.4549,3.4336,3.3828,3.3107,3.303,3.3049,3.3126,3.3891,3.4374,3.4413,3.5183,3.5648,3.5706,3.5711,3.5702,3.5722,3.5716,3.5711,3.5697,3.5702,3.5722,3.5711,3.5809,3.5833,3.6086,3.748,3.8405,3.8357,3.999,4.0941,4.1,4.1009,4.1017,4.1037,4.1072,4.109,4.1112,4.1793,4.2324,4.2734,4.3984,4.5215,4.6113,4.6289,4.6289,4.6289,4.6289,4.6289,4.6289,4.6289,4.6289,4.6289,4.6289,4.6289,4.6289,4.6289,4.6289,4.6289,4.6289,4.6289,4.6289,4.6289,4.6289,4.6289,4.6289,4.6289,4.6289,4.6308,4.6308,4.6289,4.6289,4.6289,4.6269,4.6289,4.6308,3.8529,3.9106,3.8632,3.8679,3.9077,3.8498,3.8207,3.8188,3.7875,3.7753,3.7696,3.7432,3.7469,3.7696,3.6873,3.6958,3.7502,3.5967,3.5309,3.5502,3.5509,3.5571,3.5704,3.5704,3.5704,3.5704,3.5704,3.5704,3.5704,3.5704,3.5704,3.5704,3.5704,3.5704,3.5704,3.5704,3.5704,3.5704,3.5704,3.553,3.5245,3.5226,3.5065,3.4756,3.4214,3.3944,3.3944,3.4756,3.524,3.5245,3.5554,3.5704,3.5704,3.5704,3.5704,3.5704,3.5704,3.5704,3.5704,3.5704,3.5704,3.5704,3.5704,3.5974,3.6535,3.7522,3.8431,3.91,4.0072,4.0812,4.0878,4.0949,4.099,4.0994,4.1011,4.1059,4.1124,4.1392,4.1772,4.248,4.3906,4.5117,4.5527,4.5957,4.6289,4.6289,4.6289,4.6289,4.6289,4.6289,4.6289,4.6289,4.6289,4.6289,4.6289,4.6289,4.6289,4.6289,4.6289,4.6289,4.6289,4.6289,4.6289,4.6289,4.6289,4.6289,4.6289,4.6289,4.6289,4.6289,4.6289,4.6289,4.6289,4.6289,4.6289,3.7495,3.7967,3.7535,3.76,3.8013,3.7386,3.711,3.7073,3.6828,3.6704,3.6678,3.6434,3.6434,3.6547,3.5841,3.6042,3.6853,3.5643,3.5122,3.5295,3.5302,3.5371,3.5502,3.559,3.5571,3.5509,3.5509,3.5547,3.5583,3.5589,3.5626,3.5704,3.5704,3.5704,3.5704,3.5704,3.5704,3.5704,3.5704,3.5704,3.5704,3.5704,3.5704,3.5626,3.5104,3.4819,3.4839,3.5394,3.5704,3.5704,3.5704,3.5704,3.5704,3.5704,3.5704,3.5704,3.5704,3.5704,3.5742,3.5936,3.6091,3.6091,3.611,3.6439,3.7251,3.7864,3.8586,3.9423,4.0294,4.0797,4.0827,4.0883,4.0937,4.0941,4.0961,4.0997,4.1022,4.1059,4.1654,4.2709,4.375,4.4668,4.5351,4.5937,4.623,4.6289,4.6289,4.6289,4.6289,4.6289,4.6289,4.6289,4.6289,4.6289,4.6289,4.6289,4.6289,4.6289,4.6289,4.6289,4.6289,4.6289,4.6289,4.6289,4.6289,4.6289,4.6289,4.6289,4.6289,4.6289,4.6289,4.6289,4.6289,4.6289,4.6289,3.7054,3.7084,3.7073,3.7002,3.7088,3.6934,3.6998,3.6772,3.6179,3.5897,3.5784,3.5071,3.5259,3.5597,3.5071,3.5149,3.5676,3.519,3.4972,3.5098,3.5106,3.5122,3.5162,3.5316,3.5328,3.5162,3.513,3.5216,3.5391,3.5431,3.5515,3.5662,3.5684,3.5704,3.5704,3.5704,3.5704,3.5673,3.5698,3.5704,3.5704,3.5698,3.5704,3.5704,3.5626,3.5588,3.5632,3.5665,3.5704,3.5704,3.5704,3.5704,3.5704,3.5704,3.5704,3.5704,3.5704,3.5704,3.5839,3.6439,3.6767,3.6767,3.6845,3.7154,3.7864,3.8154,3.8605,3.9578,4.0313,4.0797,4.0797,4.0821,4.0833,4.0815,4.0877,4.0912,4.092,4.0972,4.1644,4.3015,4.3629,4.4383,4.5682,4.623,4.6289,4.6289,4.6289,4.6289,4.6289,4.6289,4.6289,4.6289,4.6289,4.6289,4.6289,4.6289,4.6289,4.6289,4.6289,4.6289,4.6289,4.6289,4.6289,4.6289,4.6289,4.6289,4.6289,4.6289,4.6289,4.6289,4.6289,4.6289,4.6289,4.6289,4.6289,3.5739,3.6179,3.5608,3.5728,3.6141,3.5645,3.5382,3.5382,3.5101,3.5015,3.494,3.4725,3.4763,3.4913,3.4706,3.4763,3.4969,3.4781,3.4792,3.4935,3.4963,3.5006,3.5089,3.5162,3.5162,3.5114,3.5106,3.513,3.5201,3.5324,3.5425,3.5489,3.5626,3.5704,3.5698,3.5704,3.5631,3.5521,3.5626,3.5651,3.5521,3.5626,3.5704,3.5704,3.5704,3.5704,3.5704,3.5704,3.5704,3.5704,3.5704,3.5704,3.5704,3.5704,3.5704,3.5704,3.5704,3.5994,3.6477,3.6729,3.6903,3.6903,3.6903,3.7328,3.8038,3.8212,3.8856,4.0081,4.0661,4.0797,4.0797,4.0797,4.0797,4.0797,4.0814,4.0851,4.0898,4.0961,4.1503,4.244,4.315,4.4051,4.5116,4.5768,4.6242,4.6289,4.6289,4.6289,4.6289,4.6289,4.6289,4.6289,4.6289,4.6289,4.6289,4.6289,4.6289,4.6289,4.6289,4.6289,4.6289,4.6289,4.6289,4.6289,4.6289,4.6289,4.6289,4.6289,4.6289,4.6289,4.6289,4.6289,4.6289,4.6289,4.6289,3.4726,3.5214,3.4708,3.4847,3.5353,3.4789,3.4612,3.4612,3.4612,3.4612,3.4612,3.4612,3.4612,3.4612,3.4612,3.4612,3.4612,3.4612,3.4668,3.4781,3.4801,3.4832,3.4916,3.4925,3.4971,3.5006,3.4953,3.4943,3.5032,3.5149,3.5235,3.5302,3.5424,3.5528,3.5565,3.5509,3.5438,3.5424,3.5444,3.5405,3.5331,3.5417,3.5483,3.5483,3.5483,3.5509,3.5571,3.5583,3.5626,3.5698,3.5704,3.5704,3.5704,3.5704,3.5704,3.5704,3.5723,3.5936,3.6419,3.669,3.6903,3.6903,3.6903,3.7464,3.8315,3.847,3.8972,4.0442,4.0797,4.0797,4.0797,4.0797,4.0797,4.0797,4.0797,4.0814,4.0867,4.0907,4.1524,4.242,4.3175,4.4014,4.5109,4.5709,4.6169,4.6212,4.6215,4.6221,4.6244,4.6269,4.6269,4.6289,4.6289,4.6289,4.6289,4.6289,4.6289,4.6289,4.6289,4.6289,4.6289,4.6289,4.6289,4.6289,4.6289,4.6289,4.6289,4.6289,4.6289,4.6289,4.6289,4.6289,4.6289,4.6289,4.6289,3.4124,3.4269,3.4281,3.4393,3.4603,3.4547,3.4539,3.4591,3.458,3.4591,3.4583,3.4612,3.4612,3.4612,3.4612,3.4612,3.4612,3.4612,3.4612,3.4634,3.4645,3.4647,3.4668,3.4668,3.4761,3.4831,3.472,3.4711,3.487,3.4926,3.4963,3.5108,3.5138,3.5201,3.5324,3.5193,3.5201,3.528,3.5193,3.5138,3.5098,3.513,3.513,3.5138,3.5154,3.5216,3.5364,3.5385,3.5477,3.5668,3.5704,3.5704,3.5704,3.5704,3.5704,3.5704,3.5704,3.5781,3.5955,3.6535,3.6903,3.6903,3.6961,3.758,3.8804,3.8605,3.8914,4.0558,4.0797,4.0797,4.0797,4.0797,4.0797,4.0797,4.0797,4.0803,4.0797,4.0796,4.1538,4.2844,4.3471,4.4054,4.5652,4.6052,4.6082,4.6115,4.6122,4.615,4.6171,4.6207,4.6238,4.625,4.6269,4.6289,4.6289,4.6289,4.6289,4.6289,4.6289,4.6289,4.6289,4.6289,4.6289,4.6289,4.6289,4.6289,4.6289,4.6289,4.6289,4.6289,4.6289,4.6289,4.6289,4.6289,4.6289,3.4036,3.4074,3.4074,3.4111,3.4161,3.4161,3.4264,3.4381,3.4393,3.4461,3.4561,3.4612,3.4583,3.4612,3.4612,3.4612,3.4612,3.4612,3.4612,3.4612,3.4612,3.4612,3.4612,3.4612,3.4645,3.4668,3.4626,3.4645,3.4689,3.4812,3.4889,3.4973,3.503,3.5114,3.5154,3.5114,3.5056,3.5032,3.5081,3.5022,3.4981,3.5049,3.5106,3.5106,3.5078,3.5122,3.5178,3.5178,3.5338,3.5668,3.5704,3.5704,3.5698,3.5704,3.5704,3.5704,3.5723,3.5974,3.6458,3.6729,3.6864,3.6903,3.6806,3.7361,3.8392,3.8348,3.9069,4.0365,4.0797,4.0797,4.0797,4.0797,4.0797,4.0797,4.0797,4.0797,4.0797,4.0855,4.1454,4.2969,4.3304,4.4228,4.5444,4.6027,4.6026,4.6072,4.6087,4.6098,4.6125,4.6155,4.6195,4.6235,4.625,4.6289,4.6289,4.6289,4.6289,4.6289,4.6289,4.6289,4.6289,4.6289,4.6289,4.6289,4.6289,4.6289,4.6289,4.6289,4.6289,4.6289,4.6289,4.6289,4.6289,4.6289,4.6289,3.3807,3.3868,3.3868,3.3921,3.3998,3.3998,3.4055,3.4161,3.4185,3.4233,3.434,3.4431,3.4465,3.4484,3.4569,3.4612,3.4612,3.4612,3.4612,3.4612,3.4612,3.4612,3.4612,3.4612,3.4612,3.4612,3.4612,3.4612,3.4615,3.4711,3.4771,3.4791,3.4841,3.4916,3.5006,3.4925,3.4898,3.4898,3.4917,3.4851,3.4801,3.4851,3.4879,3.4898,3.4898,3.4916,3.5006,3.5064,3.5209,3.5424,3.5515,3.5571,3.5577,3.5662,3.5704,3.5704,3.5704,3.5916,3.6265,3.64,3.64,3.64,3.64,3.7038,3.7903,3.8232,3.8934,4.05,4.0758,4.0797,4.0797,4.0797,4.0797,4.0797,4.0797,4.0797,4.0797,4.0797,4.159,4.2725,4.3401,4.397,4.5646,4.5865,4.5939,4.5963,4.5968,4.5998,4.6044,4.6098,4.6142,4.6191,4.6213,4.625,4.6269,4.6289,4.6289,4.6289,4.6289,4.6289,4.6289,4.6289,4.6289,4.6289,4.6289,4.6289,4.6289,4.6289,4.6289,4.6289,4.6289,4.6289,4.6289,4.6289,4.6289,3.3509,3.3671,3.3671,3.378,3.3908,3.3934,3.3921,3.3972,3.3972,3.3998,3.4061,3.4179,3.4269,3.43,3.4397,3.4528,3.455,3.4539,3.455,3.455,3.4561,3.4583,3.4539,3.4583,3.4612,3.4612,3.4612,3.4612,3.4612,3.4604,3.4604,3.4636,3.4626,3.4699,3.4802,3.472,3.472,3.4801,3.472,3.4668,3.4655,3.4658,3.4678,3.4678,3.4668,3.4722,3.4841,3.4953,3.5047,3.5047,3.5258,3.5364,3.5391,3.5559,3.5656,3.5656,3.5651,3.5676,3.5681,3.5747,3.5701,3.5753,3.5861,3.6477,3.7825,3.8373,3.9127,4.0661,4.0797,4.0797,4.0797,4.0797,4.0797,4.0797,4.0797,4.0797,4.0797,4.0797,4.1409,4.2879,4.3189,4.4098,4.5084,4.5761,4.5814,4.5886,4.588,4.5891,4.5947,4.6027,4.6076,4.6137,4.6167,4.6211,4.623,4.6269,4.6289,4.6289,4.6289,4.6289,4.6289,4.6289,4.6289,4.6289,4.6289,4.6289,4.6289,4.6289,4.6289,4.6289,4.6289,4.6289,4.6289,4.6289,4.6289,3.3422,3.3466,3.3484,3.3495,3.352,3.352,3.3633,3.3766,3.3766,3.3847,3.3972,3.403,3.4061,3.4074,3.4148,3.4209,3.4351,3.4363,3.4363,3.4374,3.4539,3.4495,3.445,3.4498,3.4583,3.4612,3.4612,3.4612,3.4612,3.4612,3.4612,3.4612,3.4612,3.4615,3.4647,3.4636,3.4623,3.4666,3.4623,3.4612,3.4583,3.4612,3.4612,3.4612,3.4612,3.4634,3.4666,3.468,3.4711,3.4773,3.4969,3.5146,3.5212,3.5357,3.5457,3.5464,3.5464,3.5464,3.5483,3.5502,3.5464,3.5605,3.6272,3.7077,3.8038,3.8837,3.9636,4.0584,4.0797,4.0797,4.0797,4.0797,4.0797,4.0797,4.0797,4.0797,4.0797,4.0797,4.1293,4.2125,4.2918,4.3711,4.4736,4.5452,4.5645,4.5768,4.5814,4.5801,4.5861,4.5947,4.5993,4.6057,4.6109,4.6147,4.6215,4.6245,4.6288,4.6289,4.6289,4.6289,4.6289,4.6289,4.6289,4.6289,4.6289,4.6289,4.6289,4.6289,4.6289,4.6289,4.6289,4.6289,4.6289,4.6289,4.6289,3.2975,3.3114,3.3114,3.3223,3.3378,3.3393,3.3466,3.3549,3.3563,3.3619,3.3726,3.382,3.3873,3.3868,3.3959,3.4055,3.4161,3.4257,3.4305,3.4316,3.4427,3.445,3.445,3.4443,3.4476,3.4591,3.4612,3.4612,3.4612,3.4612,3.4612,3.4612,3.4612,3.4612,3.4612,3.4612,3.4591,3.458,3.4591,3.4591,3.455,3.4572,3.4612,3.4612,3.4612,3.4612,3.4623,3.4612,3.4612,3.4647,3.4773,3.4897,3.5005,3.5173,3.5258,3.5265,3.5265,3.5265,3.5285,3.563,3.5871,3.586,3.6785,3.7706,3.8492,3.92,3.9868,4.0545,4.0797,4.0797,4.0797,4.0797,4.0797,4.0797,4.0797,4.0797,4.0797,4.0797,4.1106,4.1816,4.2396,4.3343,4.4233,4.4987,4.551,4.5645,4.5807,4.5814,4.5814,4.588,4.5922,4.5978,4.6036,4.6087,4.6171,4.6239,4.6288,4.6289,4.6289,4.6289,4.6289,4.6289,4.6289,4.6289,4.6289,4.6289,4.6289,4.6289,4.6289,4.6289,4.6289,4.6289,4.6289,4.6289,4.6289,3.2469,3.2731,3.2779,3.2988,3.3286,3.3364,3.3393,3.3393,3.3393,3.3419,3.3422,3.3591,3.3657,3.3684,3.3802,3.3895,3.3998,3.4136,3.4209,3.4148,3.4221,3.4269,3.4316,3.4293,3.434,3.4547,3.4602,3.4602,3.4612,3.4612,3.4612,3.4612,3.4612,3.4612,3.4612,3.4591,3.4569,3.4528,3.4528,3.4528,3.4506,3.4558,3.4647,3.4913,3.4921,3.4932,3.4894,3.4733,3.4612,3.4612,3.4612,3.4689,3.4831,3.4999,3.5064,3.5073,3.5092,3.5092,3.5187,3.5637,3.6056,3.6332,3.7247,3.8178,3.8908,3.9444,4.0003,4.0443,4.0771,4.0797,4.0797,4.0797,4.0797,4.0797,4.0797,4.0797,4.0797,4.0816,4.1145,4.1583,4.2048,4.2841,4.3769,4.4581,4.5104,4.5548,4.571,4.5807,4.5807,4.5814,4.5867,4.5892,4.5933,4.6046,4.6114,4.6207,4.6262,4.6289,4.6289,4.6289,4.6289,4.6289,4.6289,4.6289,4.6289,4.6289,4.6289,4.6289,4.6289,4.6289,4.6289,4.6289,4.6289,4.6289,4.6289,3.2334,3.2401,3.2682,3.2827,3.2939,3.3256,3.3364,3.3393,3.3327,3.3393,3.3371,3.3419,3.3321,3.339,3.3462,3.3573,3.3743,3.3947,3.3972,3.3895,3.3972,3.4049,3.3985,3.4049,3.4161,3.437,3.4484,3.4569,3.4612,3.4612,3.4612,3.4612,3.4612,3.4612,3.4666,3.4558,3.4686,3.4821,3.4772,3.4712,3.47,3.4765,3.5072,3.5537,3.5556,3.5548,3.5428,3.4958,3.4612,3.4612,3.4612,3.4634,3.4689,3.4822,3.4926,3.4936,3.4917,3.4936,3.5126,3.5182,3.5572,3.616,3.7259,3.8112,3.8922,3.9625,4.0126,4.04,4.0673,4.0778,4.079,4.0771,4.0784,4.079,4.079,4.079,4.0797,4.0816,4.0855,4.1164,4.1699,4.226,4.315,4.402,4.4697,4.5278,4.5671,4.5768,4.5807,4.5807,4.5827,4.5834,4.5834,4.5958,4.6068,4.6158,4.6231,4.6266,4.6269,4.6289,4.6289,4.6289,4.6289,4.6289,4.6289,4.6289,4.6289,4.6289,4.6289,4.6289,4.6289,4.6289,4.6289,4.6289,4.6289,3.1476,3.1681,3.2057,3.2368,3.2551,3.2716,3.2943,3.3011,3.2685,3.2595,3.2604,3.2361,3.2144,3.227,3.2651,3.3031,3.3486,3.3753,3.378,3.3739,3.3793,3.3887,3.3807,3.3855,3.3959,3.4111,3.4245,3.4427,3.4572,3.4612,3.462,3.4612,3.4612,3.4819,3.5173,3.5222,3.5371,3.5553,3.5649,3.5613,3.562,3.5649,3.6033,3.6169,3.5998,3.5803,3.5646,3.5022,3.4631,3.4612,3.4612,3.4612,3.4682,3.4706,3.4769,3.4788,3.478,3.5015,3.543,3.5769,3.6457,3.7241,3.8141,3.8879,3.9375,3.99,4.0223,4.033,4.0389,4.0508,4.0492,4.0591,4.0639,4.066,4.0726,4.079,4.0797,4.0797,4.0797,4.0797,4.1145,4.1719,4.2454,4.3343,4.4214,4.491,4.5536,4.5729,4.5807,4.5807,4.5807,4.5821,4.5834,4.5927,4.6035,4.6105,4.6193,4.6239,4.6266,4.6287,4.6289,4.6289,4.6289,4.6289,4.6289,4.6289,4.6289,4.6289,4.6289,4.6289,4.6289,4.6289,4.6289,4.6289,4.6289,3.051,3.0804,3.1232,3.1643,3.1987,3.1952,3.212,3.2259,3.1649,3.1467,3.165,3.116,3.0904,3.1137,3.1826,3.256,3.319,3.3445,3.3633,3.3633,3.3629,3.3726,3.378,3.3762,3.3734,3.3921,3.3959,3.4161,3.4461,3.4517,3.4644,3.4921,3.4902,3.5285,3.5919,3.5993,3.6439,3.6634,3.687,3.6827,3.6833,3.6858,3.6895,3.6814,3.6115,3.5708,3.5644,3.4978,3.4786,3.4778,3.4771,3.4781,3.5044,3.4969,3.495,3.5015,3.48,3.5165,3.5983,3.6333,3.6938,3.7972,3.8969,3.9482,3.9824,3.9913,4.011,4.0148,4.0214,4.0242,4.0286,4.0389,4.0489,4.0554,4.0693,4.0797,4.0797,4.0797,4.0797,4.0797,4.0797,4.1448,4.2454,4.3034,4.4001,4.5045,4.5691,4.5749,4.5807,4.5807,4.5807,4.5834,4.5867,4.5916,4.5998,4.605,4.6147,4.6207,4.6237,4.6259,4.6269,4.6289,4.6289,4.6289,4.6289,4.6289,4.6289,4.6289,4.6289,4.6289,4.6289,4.6289,4.6289,4.6289,4.6289,2.9903,2.9973,3.0319,3.0731,3.1042,3.0848,3.0976,3.1226,3.0538,3.0319,3.0362,3.0238,3.0249,3.0703,3.1646,3.2184,3.2556,3.3129,3.3481,3.3462,3.3462,3.3477,3.3491,3.3466,3.3563,3.3712,3.3739,3.3954,3.4245,3.4316,3.4839,3.5398,3.5619,3.6126,3.6768,3.6776,3.6771,3.6839,3.6862,3.6868,3.6906,3.6919,3.692,3.6733,3.6179,3.5761,3.568,3.509,3.4843,3.5529,3.4993,3.539,3.6378,3.6104,3.6254,3.6141,3.5758,3.5288,3.6566,3.6622,3.7005,3.8131,3.8679,3.8942,3.947,3.9804,3.9927,3.9946,4.007,4.0139,4.0139,4.0356,4.0465,4.0561,4.066,4.0771,4.0797,4.0797,4.0797,4.0797,4.0797,4.1816,4.286,4.3305,4.3846,4.4917,4.5729,4.5787,4.5807,4.5807,4.5807,4.5821,4.5834,4.588,4.5935,4.5977,4.6064,4.616,4.6197,4.623,4.6269,4.6289,4.6289,4.6289,4.6289,4.6289,4.6289,4.6289,4.6289,4.6289,4.6289,4.6289,4.6289,4.6289,4.6289,2.8069,2.8903,2.9339,2.9593,2.9761,2.9844,2.9759,2.952,2.9228,2.9062,2.9038,2.8811,2.9064,2.9772,3.0851,3.1611,3.2126,3.2958,3.3393,3.3378,3.336,3.3393,3.3408,3.3411,3.3466,3.3506,3.3549,3.3657,3.3934,3.4259,3.4745,3.5423,3.5846,3.6492,3.738,3.7548,3.7903,3.8132,3.8197,3.8088,3.7989,3.7687,3.7421,3.7391,3.6267,3.5913,3.5863,3.5089,3.5205,3.5928,3.5675,3.5822,3.6677,3.6813,3.6941,3.753,3.6254,3.6216,3.738,3.696,3.758,3.8538,3.9045,3.9282,3.9557,3.9668,3.9731,3.972,3.9811,3.9859,3.9937,4.0158,4.0278,4.0417,4.0598,4.0733,4.079,4.0797,4.0797,4.0797,4.0971,4.199,4.2937,4.3421,4.3924,4.4813,4.5575,4.5787,4.5807,4.5807,4.5807,4.5807,4.5814,4.5815,4.5854,4.5899,4.5988,4.6079,4.6153,4.6191,4.6269,4.6289,4.6289,4.6289,4.6289,4.6289,4.6289,4.6289,4.6289,4.6289,4.6289,4.6289,4.6289,4.6289,4.6289,2.581,2.7079,2.7767,2.8097,2.8185,2.8437,2.8293,2.7914,2.7651,2.7607,2.7637,2.7584,2.7916,2.873,2.9917,3.0948,3.1467,3.2637,3.3105,3.3223,3.3271,3.3301,3.3364,3.3393,3.3393,3.3393,3.3404,3.3506,3.3684,3.4,3.4474,3.5185,3.582,3.6684,3.7612,3.813,3.8497,3.8914,3.8943,3.8934,3.8817,3.7981,3.7647,3.7084,3.631,3.5535,3.5864,3.5459,3.5576,3.5999,3.6313,3.6517,3.7222,3.7457,3.7812,3.8169,3.7305,3.723,3.788,3.7899,3.8181,3.8969,3.9608,3.9514,3.957,3.9608,3.962,3.9626,3.9638,3.9638,3.9686,3.9946,4.012,4.0304,4.0496,4.064,4.0765,4.079,4.0829,4.0893,4.1197,4.2009,4.2841,4.3421,4.4078,4.4813,4.5316,4.5722,4.5807,4.5807,4.5807,4.5807,4.5807,4.5814,4.5821,4.5848,4.5947,4.6016,4.6084,4.6172,4.6269,4.6289,4.6289,4.6289,4.6289,4.6289,4.6289,4.6289,4.6289,4.6289,4.6289,4.6289,4.6289,4.6289,4.6289,2.3216,2.3931,2.5256,2.607,2.647,2.6225,2.6378,2.6535,2.6005,2.5912,2.6234,2.6607,2.7005,2.7628,2.9185,3.0243,3.0304,3.18,3.2493,3.2781,3.286,3.3037,3.3162,3.3271,3.3331,3.3345,3.336,3.3408,3.3466,3.3657,3.4338,3.5143,3.5679,3.6685,3.7603,3.8249,3.8596,3.8935,3.8931,3.8998,3.86,3.776,3.6883,3.65,3.5343,3.4358,3.4451,3.5044,3.5683,3.6112,3.6608,3.7249,3.7916,3.8146,3.8633,3.8832,3.8357,3.8338,3.8744,3.8237,3.8181,3.9026,3.9608,3.9608,3.9608,3.9608,3.9608,3.9608,3.9608,3.9608,3.9674,3.9781,4.0029,4.0186,4.0372,4.0576,4.0713,4.079,4.0848,4.0945,4.1467,4.228,4.315,4.384,4.4485,4.522,4.5413,4.5807,4.5807,4.5807,4.5807,4.5807,4.5807,4.5807,4.5807,4.5867,4.5947,4.6028,4.6089,4.6193,4.6289,4.6289,4.6289,4.6289,4.6289,4.6289,4.6289,4.6289,4.6289,4.6289,4.6289,4.6289,4.6289,4.6289,4.6289,2.1812,2.2074,2.2531,2.3525,2.4844,2.4976,2.4937,2.4818,2.497,2.5319,2.5684,2.6138,2.6349,2.6978,2.8578,2.9539,2.9593,3.1512,3.2037,3.2299,3.2401,3.2569,3.2766,3.2943,3.3037,3.3083,3.3223,3.3393,3.3422,3.3491,3.3629,3.431,3.5161,3.6329,3.7261,3.8013,3.842,3.852,3.8535,3.8566,3.8446,3.7317,3.65,3.6538,3.5083,3.4618,3.499,3.533,3.6068,3.6788,3.7336,3.7958,3.8551,3.8808,3.9158,3.9427,3.8764,3.8882,3.927,3.8613,3.845,3.9195,3.9608,3.9608,3.9608,3.9608,3.9608,3.9608,3.9608,3.9608,3.9626,3.9777,3.9967,4.008,4.0251,4.0457,4.0663,4.079,4.1132,4.1345,4.1874,4.255,4.3453,4.4362,4.4987,4.5594,4.5729,4.5807,4.5807,4.5807,4.5807,4.5807,4.5807,4.5807,4.5807,4.5873,4.5947,4.6033,4.6111,4.6206,4.6289,4.6289,4.6289,4.6289,4.6289,4.6289,4.6289,4.6289,4.6289,4.6289,4.6289,4.6289,4.6289,4.6289,4.6289,2.0482,2.0654,2.0678,2.1572,2.2994,2.3608,2.3622,2.3392,2.393,2.4585,2.516,2.5516,2.5775,2.6394,2.7733,2.8538,2.872,2.9982,3.092,3.1269,3.1445,3.1865,3.2246,3.2519,3.2668,3.2749,3.3003,3.3193,3.316,3.3334,3.3477,3.3756,3.4246,3.5297,3.6273,3.7249,3.7747,3.7867,3.7871,3.802,3.8131,3.7199,3.6619,3.6667,3.5477,3.5122,3.5564,3.5933,3.6321,3.7105,3.7757,3.8353,3.8801,3.9186,3.9451,3.9302,3.9121,3.9008,3.922,3.9214,3.8957,3.9514,3.9608,3.9608,3.9608,3.9608,3.9608,3.9608,3.9608,3.962,3.962,3.9727,3.9856,3.9967,4.007,4.0288,4.0654,4.0875,4.1396,4.1803,4.2525,4.3401,4.3885,4.4794,4.5239,4.571,4.5749,4.5807,4.5807,4.5807,4.5807,4.5807,4.5807,4.5807,4.5807,4.5904,4.5978,4.6053,4.6125,4.621,4.6269,4.6289,4.6289,4.6289,4.6289,4.6289,4.6289,4.6289,4.6289,4.6289,4.6289,4.6289,4.6289,4.6289,4.6289,1.9081,1.9655,1.9978,2.0459,2.1055,2.1936,2.2331,2.24,2.2891,2.3463,2.4158,2.4748,2.5198,2.5716,2.6885,2.7309,2.7467,2.821,2.9075,2.9909,3.0255,3.0952,3.169,3.2091,3.2196,3.2385,3.2651,3.2829,3.2876,3.3147,3.3301,3.3316,3.3574,3.4087,3.4733,3.5491,3.6216,3.6816,3.689,3.738,3.7594,3.7017,3.6903,3.6778,3.5976,3.5589,3.5857,3.6352,3.6605,3.6773,3.7904,3.8331,3.8289,3.896,3.9309,3.9375,3.9426,3.9458,3.9558,3.9533,3.9552,3.957,3.9608,3.9608,3.9608,3.9608,3.9608,3.9608,3.9608,3.9608,3.962,3.9626,3.975,3.9834,3.9946,4.0118,4.0468,4.1105,4.1603,4.2316,4.3555,4.4581,4.4813,4.5162,4.5529,4.5787,4.5807,4.5807,4.5807,4.5807,4.5807,4.5807,4.5807,4.5807,4.5827,4.5933,4.6008,4.6072,4.616,4.6239,4.6269,4.6289,4.6289,4.6289,4.6289,4.6289,4.6289,4.6289,4.6289,4.6289,4.6289,4.6289,4.6289,4.6289,4.6289,1.7825,1.8015,1.8151,1.8543,1.9192,2.0382,2.1075,2.1506,2.2372,2.3201,2.3788,2.423,2.4533,2.51,2.5874,2.6441,2.6559,2.7731,2.8597,2.8341,2.8903,2.9652,3.0467,3.1183,3.1573,3.195,3.2265,3.2601,3.2811,3.2957,3.2988,3.3003,3.3073,3.3612,3.4514,3.5237,3.5755,3.5839,3.6129,3.6577,3.6878,3.6645,3.662,3.6949,3.6096,3.5808,3.5989,3.657,3.6693,3.6694,3.7861,3.8138,3.8123,3.873,3.8952,3.9129,3.9242,3.9533,3.9583,3.9589,3.9589,3.9608,3.9608,3.9608,3.9608,3.9608,3.9608,3.9608,3.9608,3.9608,3.962,3.9639,3.9705,3.9703,3.9811,3.9924,4.0291,4.114,4.1871,4.2764,4.387,4.4812,4.5316,4.5374,4.5684,4.5807,4.5807,4.5807,4.5807,4.5807,4.5807,4.5807,4.5807,4.5807,4.5848,4.5944,4.5998,4.6068,4.6165,4.6267,4.6289,4.6289,4.6289,4.6289,4.6289,4.6289,4.6289,4.6289,4.6289,4.6289,4.6289,4.6289,4.6289,4.6289,4.6289,1.7006,1.7202,1.7213,1.7424,1.7945,1.9162,2.0042,2.0805,2.1734,2.256,2.3187,2.348,2.3861,2.4441,2.503,2.5393,2.541,2.6254,2.7187,2.6887,2.7577,2.847,2.9303,3.0052,3.0726,3.1278,3.1824,3.2214,3.235,3.2551,3.2617,3.2651,3.2651,3.3112,3.3827,3.4305,3.4704,3.4841,3.5222,3.5421,3.5794,3.6025,3.631,3.6484,3.6339,3.6199,3.6374,3.6624,3.6931,3.7144,3.75,3.7948,3.8117,3.8314,3.8579,3.8822,3.9215,3.9508,3.9596,3.9608,3.9608,3.9608,3.9608,3.9608,3.9608,3.9608,3.9608,3.9608,3.9627,3.9815,3.9946,3.9927,4.0034,4.0083,4.0357,4.0499,4.0661,4.1533,4.2601,4.3467,4.4256,4.5107,4.5633,4.5691,4.5787,4.5807,4.5807,4.5807,4.5807,4.5807,4.5807,4.5807,4.5807,4.5807,4.5841,4.5931,4.6003,4.6052,4.615,4.6265,4.6289,4.6269,4.6289,4.6289,4.6289,4.6289,4.6289,4.6289,4.6289,4.6289,4.6289,4.6289,4.6289,4.6289,4.6289,1.6557,1.7062,1.709,1.7062,1.7302,1.8205,1.9268,2.0321,2.0646,2.1331,2.2244,2.2521,2.3076,2.3797,2.4006,2.4122,2.4258,2.4549,2.5041,2.5681,2.6235,2.7283,2.8308,2.9149,2.9873,3.0543,3.1092,3.1458,3.1696,3.2074,3.2266,3.2317,3.2299,3.2626,3.2948,3.3317,3.3739,3.4069,3.4315,3.4552,3.4925,3.5452,3.5774,3.6043,3.629,3.6574,3.6788,3.6981,3.7142,3.7306,3.7469,3.7703,3.7913,3.805,3.8328,3.867,3.9175,3.9393,3.9483,3.9496,3.9608,3.9608,3.9608,3.9608,3.9608,3.9608,3.9608,3.9702,3.9777,4.0228,4.0516,4.0685,4.0835,4.1092,4.1417,4.1506,4.1476,4.2261,4.3388,4.429,4.5048,4.565,4.5722,4.5807,4.5807,4.5807,4.5807,4.5807,4.5807,4.5807,4.5807,4.5807,4.5807,4.5807,4.5861,4.5925,4.5973,4.6017,4.6112,4.6204,4.6231,4.6262,4.6269,4.6289,4.6289,4.6289,4.6289,4.6289,4.6289,4.6289,4.6289,4.6289,4.6289,4.6289,4.6289,1.4403,1.461,1.5089,1.5526,1.6053,1.7152,1.8155,1.8984,1.9505,2.023,2.1035,2.1558,2.223,2.3031,2.3091,2.3458,2.3797,2.404,2.4,2.4466,2.5068,2.6047,2.7013,2.7966,2.8941,2.9734,3.0269,3.0687,3.1193,3.1625,3.2021,3.2231,3.1968,3.2127,3.2401,3.2732,3.3091,3.3422,3.3655,3.3894,3.4182,3.4709,3.5046,3.5415,3.5978,3.6312,3.6506,3.6893,3.7036,3.7127,3.7147,3.7243,3.728,3.7541,3.786,3.8326,3.8774,3.9091,3.916,3.9413,3.9596,3.9596,3.9608,3.9608,3.9608,3.9608,3.9608,3.9702,4.0078,4.0553,4.106,4.1323,4.1548,4.1854,4.2136,4.2233,4.2295,4.2987,4.4038,4.456,4.5337,4.5708,4.58,4.5807,4.5807,4.5807,4.5807,4.5807,4.5807,4.5807,4.5807,4.5807,4.5807,4.5807,4.5848,4.591,4.595,4.6008,4.608,4.6142,4.6169,4.6207,4.6242,4.6269,4.6289,4.6289,4.6289,4.6289,4.6289,4.6289,4.6289,4.6289,4.6289,4.6289,4.6289,1.3541,1.3631,1.4022,1.446,1.4914,1.5632,1.6373,1.7219,1.8201,1.9219,2.0168,2.0556,2.1269,2.2067,2.2221,2.2558,2.3209,2.3348,2.3385,2.3592,2.4088,2.4701,2.5582,2.6512,2.7564,2.849,2.9312,2.9826,3.0479,3.0977,3.1361,3.1475,3.1414,3.1714,3.1985,3.2214,3.2435,3.2812,3.3145,3.3345,3.3581,3.3917,3.4285,3.4739,3.537,3.5845,3.6213,3.6775,3.6917,3.6989,3.6989,3.6989,3.7068,3.7339,3.756,3.803,3.847,3.8711,3.8876,3.9192,3.9375,3.947,3.954,3.9608,3.9608,3.9608,3.9608,3.9683,4.0359,4.0947,4.1473,4.1929,4.223,4.253,4.2699,4.2868,4.3309,4.3802,4.4306,4.4724,4.5202,4.5636,4.5807,4.5807,4.5807,4.5807,4.5807,4.5807,4.5807,4.5807,4.5807,4.5807,4.5807,4.5807,4.5854,4.588,4.5905,4.5933,4.6008,4.6068,4.6105,4.6171,4.6216,4.6269,4.6289,4.6289,4.6289,4.6289,4.6289,4.6289,4.6289,4.6289,4.6289,4.6289,4.6289,1.339,1.3472,1.3567,1.3777,1.401,1.4106,1.4532,1.5255,1.6705,1.817,1.9245,1.953,2.0206,2.1037,2.1221,2.1633,2.2175,2.2512,2.2566,2.2762,2.3142,2.3627,2.4145,2.4852,2.6138,2.7191,2.811,2.8868,2.9686,3.0251,3.0547,3.0493,3.0821,3.1123,3.1433,3.1604,3.1807,3.2109,3.2474,3.2717,3.2686,3.309,3.3808,3.4436,3.5206,3.5978,3.6521,3.6858,3.695,3.695,3.697,3.697,3.7089,3.7225,3.7432,3.7667,3.8064,3.8277,3.8514,3.8851,3.9069,3.9224,3.9406,3.9489,3.9502,3.9577,3.9608,3.9758,4.0328,4.1098,4.1667,4.2412,4.29,4.3275,4.3562,4.3581,4.3753,4.4125,4.4394,4.4776,4.5024,4.5413,4.5471,4.5452,4.5807,4.5807,4.5807,4.5807,4.5807,4.5807,4.5807,4.5807,4.5807,4.5807,4.5814,4.5834,4.5821,4.5874,4.5947,4.6007,4.6044,4.6131,4.6209,4.623,4.6269,4.6289,4.6289,4.6289,4.6289,4.6289,4.6289,4.6289,4.6289,4.6289,4.6289,1.2081,1.2151,1.2497,1.3135,1.3918,1.372,1.394,1.4471,1.4825,1.6146,1.7627,1.8317,1.9049,1.9965,2.0181,2.0644,2.1428,2.1657,2.1609,2.1809,2.2161,2.2583,2.3111,2.3865,2.4935,2.5964,2.694,2.7976,2.8992,2.9623,2.9951,3.0006,3.022,3.0456,3.0788,3.0934,3.1206,3.1432,3.1768,3.209,3.2192,3.2641,3.3301,3.3708,3.4362,3.5267,3.5803,3.6263,3.6464,3.6629,3.6888,3.6968,3.7009,3.7087,3.7145,3.7242,3.7596,3.7825,3.8064,3.8405,3.87,3.888,3.9041,3.921,3.9349,3.9496,3.9671,3.9877,4.0328,4.1135,4.1892,4.2712,4.3444,4.3895,4.4313,4.4233,4.4134,4.4296,4.448,4.4625,4.4829,4.4981,4.5058,4.5336,4.5664,4.5807,4.5807,4.5807,4.5807,4.5807,4.5807,4.5807,4.5807,4.5807,4.5807,4.5807,4.5807,4.5807,4.5867,4.5929,4.5986,4.6056,4.6142,4.6177,4.623,4.6241,4.6266,4.6289,4.6289,4.6289,4.6289,4.6289,4.6289,4.6289,4.6289,1.1654,1.171,1.1961,1.2457,1.3004,1.2923,1.3218,1.3819,1.3893,1.4669,1.6024,1.6918,1.7834,1.8826,1.9178,1.9723,2.0607,2.0942,2.1102,2.1224,2.1299,2.157,2.2173,2.2881,2.3851,2.4855,2.6191,2.7359,2.8316,2.8841,2.9118,2.9429,2.9601,2.9859,3.0145,3.0318,3.0543,3.0753,3.1064,3.1409,3.1737,3.2265,3.2859,3.3225,3.3905,3.4713,3.5454,3.5967,3.6197,3.6527,3.6849,3.6968,3.6989,3.7009,3.7009,3.7087,3.7281,3.7486,3.765,3.7981,3.8392,3.8517,3.8826,3.9064,3.9101,3.9256,3.9483,3.9721,4.0365,4.1135,4.1623,4.2337,4.3088,4.3651,4.411,4.4293,4.4037,4.3919,4.3857,4.3734,4.4094,4.4645,4.488,4.5394,4.5691,4.5807,4.5807,4.5807,4.5807,4.5807,4.5807,4.5807,4.5807,4.5807,4.5807,4.5807,4.5807,4.5807,4.5807,4.5886,4.5969,4.6013,4.6064,4.6125,4.616,4.6197,4.6212,4.6242,4.6288,4.6289,4.6289,4.6289,4.6289,4.6289,4.6289,1.1314,1.1569,1.1539,1.1704,1.1919,1.1948,1.2457,1.3211,1.3364,1.3713,1.443,1.5467,1.6458,1.7484,1.8294,1.8915,1.9516,2.0016,2.0396,2.0597,2.0795,2.0913,2.1246,2.1826,2.2892,2.4089,2.5412,2.6378,2.727,2.7747,2.8248,2.8817,2.9232,2.9589,2.9589,2.9661,2.9837,3.0113,3.0446,3.0813,3.1291,3.1893,3.2709,3.3346,3.3942,3.4572,3.5385,3.5864,3.6032,3.6326,3.6629,3.6811,3.6911,3.693,3.6989,3.7048,3.7126,3.7241,3.7392,3.7756,3.7999,3.8216,3.8618,3.8848,3.8873,3.9031,3.9269,3.9636,4.0282,4.0841,4.131,4.1811,4.2562,4.3182,4.3654,4.399,4.3681,4.3315,4.3021,4.2813,4.341,4.4036,4.4558,4.5119,4.5631,4.5747,4.58,4.5807,4.5807,4.5807,4.5807,4.5807,4.5807,4.5807,4.5807,4.5807,4.5807,4.5807,4.5814,4.5886,4.5941,4.5944,4.5978,4.6056,4.6102,4.6125,4.615,4.6173,4.6215,4.6266,4.6269,4.6269,4.6289,4.6289,4.6289,0.9849,1.0465,1.0235,1.0643,1.1474,1.159,1.1876,1.2287,1.2645,1.2972,1.3373,1.3846,1.4885,1.6543,1.6978,1.7567,1.8251,1.8927,1.9253,1.9396,2.0016,2.022,2.0437,2.0937,2.2126,2.3363,2.445,2.5176,2.5908,2.6535,2.6965,2.7157,2.8237,2.874,2.9134,2.918,2.9241,2.955,2.9742,3.0028,3.101,3.1874,3.3163,3.3955,3.4678,3.4935,3.5224,3.5379,3.5515,3.5766,3.6216,3.6489,3.667,3.6791,3.6891,3.6948,3.7027,3.7085,3.7261,3.7577,3.7774,3.7862,3.8236,3.8572,3.8664,3.88,3.8993,3.9096,3.9686,4.0244,4.0708,4.1122,4.1755,4.2205,4.2669,4.2743,4.2609,4.2143,4.173,4.201,4.2537,4.304,4.3514,4.4388,4.558,4.5688,4.5773,4.58,4.5807,4.5807,4.5807,4.5807,4.5807,4.5807,4.5807,4.5807,4.5807,4.5807,4.5807,4.5848,4.5861,4.5841,4.5866,4.5963,4.6008,4.6035,4.6057,4.6122,4.6155,4.62,4.6207,4.623,4.6269,4.6289,4.6289]}]]